Time,TemperatureF,DewpointF,PressureIn,WindDirection,WindDirectionDegrees,WindSpeedMPH,WindSpeedGustMPH,Humidity,HourlyPrecipIn,Conditions,Clouds,dailyrainin,SoftwareType,DateUTC
2013-04-02 00:00:00,61.3,59.6,29.91,NE,36,2.0,5.0,94,0.00,,---,0.00,VWS V14.00,2013-04-02 05:00:00,
2013-04-02 00:01:00,61.3,59.6,29.91,NNE,30,2.0,4.0,94,0.00,,---,0.00,VWS V14.00,2013-04-02 05:01:00,
2013-04-02 00:02:00,61.4,59.7,29.91,NNE,26,3.0,4.0,94,0.00,,---,0.00,VWS V14.00,2013-04-02 05:02:00,
2013-04-02 00:03:00,61.4,59.7,29.91,NNE,26,1.0,4.0,94,0.00,,---,0.00,VWS V14.00,2013-04-02 05:03:00,
2013-04-02 00:04:00,61.3,59.6,29.91,NNE,19,3.0,5.0,94,0.00,,---,0.00,VWS V14.00,2013-04-02 05:04:00,
2013-04-02 00:05:00,61.3,59.6,29.91,NNE,16,2.0,5.0,94,0.00,,---,0.00,VWS V14.00,2013-04-02 05:05:00,
2013-04-02 00:06:00,61.4,59.7,29.91,NNE,15,3.0,5.0,94,0.00,,---,0.00,VWS V14.00,2013-04-02 05:06:00,
2013-04-02 00:07:00,61.3,59.6,29.91,NNE,15,2.0,5.0,94,0.00,,---,0.00,VWS V14.00,2013-04-02 05:07:00,
2013-04-02 00:08:00,61.4,59.7,29.91,NNE,15,3.0,5.0,94,0.00,,---,0.00,VWS V14.00,2013-04-02 05:08:00,
2013-04-02 00:09:00,61.3,59.6,29.91,NNE,23,4.0,6.0,94,0.00,,---,0.00,VWS V14.00,2013-04-02 05:09:00,
2013-04-02 00:10:00,61.3,59.6,29.91,NNE,22,3.0,6.0,94,0.00,,---,0.00,VWS V14.00,2013-04-02 05:10:00,
2013-04-02 00:11:00,61.3,59.6,29.92,NNE,22,0.0,6.0,94,0.00,,---,0.00,VWS V14.00,2013-04-02 05:11:00,
2013-04-02 00:12:00,61.3,59.6,29.92,NNE,22,0.0,6.0,94,0.00,,---,0.00,VWS V14.00,2013-04-02 05:12:00,
2013-04-02 00:13:00,61.3,59.6,29.92,NNE,22,1.0,6.0,94,0.00,,---,0.00,VWS V14.00,2013-04-02 05:13:00,
2013-04-02 00:14:00,61.3,59.6,29.92,NNE,22,3.0,6.0,94,0.00,,---,0.00,VWS V14.00,2013-04-02 05:14:00,
2013-04-02 00:15:00,61.3,59.6,29.92,NNE,25,2.0,6.0,94,0.00,,---,0.00,VWS V14.00,2013-04-02 05:15:00,
2013-04-02 00:16:00,61.3,59.6,29.92,NNE,22,2.0,6.0,94,0.00,,---,0.00,VWS V14.00,2013-04-02 05:16:00,
2013-04-02 00:18:00,61.3,59.6,29.92,NNE,22,3.0,6.0,94,0.00,,---,0.01,VWS V14.00,2013-04-02 05:18:00,
2013-04-02 00:19:00,61.3,59.6,29.92,NNE,22,2.0,6.0,94,0.00,,---,0.01,VWS V14.00,2013-04-02 05:19:00,
2013-04-02 00:20:00,61.2,59.5,29.92,NNE,22,2.0,6.0,94,0.00,,---,0.01,VWS V14.00,2013-04-02 05:20:00,
2013-04-02 00:21:00,61.3,59.6,29.92,NNE,22,4.0,6.0,94,0.00,,---,0.01,VWS V14.00,2013-04-02 05:21:00,
2013-04-02 00:22:00,61.3,59.6,29.92,NNE,22,3.0,6.0,94,0.00,,---,0.01,VWS V14.00,2013-04-02 05:22:00,
2013-04-02 00:23:00,61.3,59.6,29.92,NNE,17,3.0,6.0,94,0.00,,---,0.01,VWS V14.00,2013-04-02 05:23:00,
2013-04-02 00:24:00,61.2,59.5,29.92,NNE,17,4.0,6.0,94,0.00,,---,0.01,VWS V14.00,2013-04-02 05:24:00,
2013-04-02 00:25:00,61.2,59.5,29.92,NNE,17,3.0,6.0,94,0.00,,---,0.01,VWS V14.00,2013-04-02 05:25:00,
2013-04-02 00:26:00,61.2,59.5,29.92,NE,36,4.0,6.0,94,0.00,,---,0.01,VWS V14.00,2013-04-02 05:26:00,
2013-04-02 00:29:00,61.2,59.5,29.92,NNE,22,4.0,6.0,94,0.00,,---,0.01,VWS V14.00,2013-04-02 05:29:00,
2013-04-02 00:30:00,61.2,59.5,29.92,NNE,17,3.0,6.0,94,0.00,,---,0.01,VWS V14.00,2013-04-02 05:30:00,
2013-04-02 00:31:00,61.2,59.5,29.92,NNE,28,2.0,4.0,94,0.00,,---,0.01,VWS V14.00,2013-04-02 05:31:00,
2013-04-02 00:32:00,61.2,59.5,29.92,NNE,28,2.0,4.0,94,0.00,,---,0.01,VWS V14.00,2013-04-02 05:32:00,
2013-04-02 00:33:00,61.2,59.5,29.92,NNE,28,0.0,4.0,94,0.00,,---,0.01,VWS V14.00,2013-04-02 05:33:00,
2013-04-02 00:34:00,61.2,59.5,29.92,NNE,28,2.0,4.0,94,0.00,,---,0.01,VWS V14.00,2013-04-02 05:34:00,
2013-04-02 00:36:00,61.2,59.5,29.92,NNE,26,3.0,4.0,94,0.00,,---,0.01,VWS V14.00,2013-04-02 05:36:00,
2013-04-02 00:37:00,61.2,59.5,29.92,NNE,21,3.0,4.0,94,0.00,,---,0.01,VWS V14.00,2013-04-02 05:37:00,
2013-04-02 00:38:00,61.2,59.5,29.92,NNE,19,3.0,6.0,94,0.00,,---,0.01,VWS V14.00,2013-04-02 05:38:00,
2013-04-02 00:39:00,61.1,59.4,29.93,NNE,19,1.0,6.0,94,0.00,,---,0.01,VWS V14.00,2013-04-02 05:39:00,
2013-04-02 00:40:00,61.1,59.4,29.93,NNE,22,2.0,6.0,94,0.00,,---,0.01,VWS V14.00,2013-04-02 05:40:00,
2013-04-02 00:48:00,61.1,59.4,29.93,NNE,18,6.0,6.0,94,0.00,,---,0.01,VWS V14.00,2013-04-02 05:48:00,
2013-04-02 00:49:00,61.1,59.4,29.93,NNE,19,2.0,6.0,94,0.00,,---,0.02,VWS V14.00,2013-04-02 05:49:00,
2013-04-02 00:50:00,61.1,59.4,29.93,NNE,26,1.0,6.0,94,0.00,,---,0.02,VWS V14.00,2013-04-02 05:50:00,
2013-04-02 00:51:00,61.1,59.7,29.93,NNE,26,0.0,6.0,95,0.00,,---,0.02,VWS V14.00,2013-04-02 05:51:00,
2013-04-02 00:53:00,61.1,59.7,29.93,NNE,26,2.0,6.0,95,0.00,,---,0.02,VWS V14.00,2013-04-02 05:53:00,
2013-04-02 00:54:00,61.1,59.7,29.93,NNE,26,0.0,6.0,95,0.00,,---,0.02,VWS V14.00,2013-04-02 05:54:00,
2013-04-02 00:55:00,61.1,59.4,29.93,NNE,26,0.0,6.0,94,0.00,,---,0.02,VWS V14.00,2013-04-02 05:55:00,
2013-04-02 00:56:00,61.1,59.7,29.93,NNE,26,1.0,6.0,95,0.00,,---,0.02,VWS V14.00,2013-04-02 05:56:00,
2013-04-02 00:57:00,61.1,59.4,29.93,NNE,26,3.0,6.0,94,0.00,,---,0.02,VWS V14.00,2013-04-02 05:57:00,
2013-04-02 00:58:00,61.1,59.7,29.93,NNE,26,0.0,6.0,95,0.00,,---,0.02,VWS V14.00,2013-04-02 05:58:00,
2013-04-02 00:59:00,61.1,59.4,29.93,NNE,26,2.0,6.0,94,0.00,,---,0.02,VWS V14.00,2013-04-02 05:59:00,
2013-04-02 01:00:00,61.1,59.7,29.93,NNE,26,1.0,4.0,95,0.00,,---,0.02,VWS V14.00,2013-04-02 06:00:00,
2013-04-02 01:01:00,61.1,59.7,29.93,NNE,26,2.0,4.0,95,0.00,,---,0.02,VWS V14.00,2013-04-02 06:01:00,
2013-04-02 01:02:00,61.1,59.7,29.93,North,5,6.0,6.0,95,0.00,,---,0.02,VWS V14.00,2013-04-02 06:02:00,
2013-04-02 01:03:00,61.1,59.7,29.93,NNE,15,2.0,8.0,95,0.00,,---,0.02,VWS V14.00,2013-04-02 06:03:00,
2013-04-02 01:04:00,61.1,59.7,29.93,NNE,17,4.0,8.0,95,0.00,,---,0.02,VWS V14.00,2013-04-02 06:04:00,
2013-04-02 01:05:00,61.1,59.7,29.93,NNE,20,4.0,8.0,95,0.00,,---,0.02,VWS V14.00,2013-04-02 06:05:00,
2013-04-02 01:06:00,61.1,59.7,29.93,NNE,19,3.0,8.0,95,0.00,,---,0.02,VWS V14.00,2013-04-02 06:06:00,
2013-04-02 01:07:00,61.1,59.7,29.93,NNE,19,4.0,8.0,95,0.00,,---,0.02,VWS V14.00,2013-04-02 06:07:00,
2013-04-02 01:08:00,61.1,59.7,29.93,NNE,24,4.0,8.0,95,0.00,,---,0.02,VWS V14.00,2013-04-02 06:08:00,
2013-04-02 01:09:00,61.1,59.7,29.93,NNE,19,3.0,8.0,95,0.00,,---,0.02,VWS V14.00,2013-04-02 06:09:00,
2013-04-02 01:10:00,61.1,59.7,29.93,North,10,4.0,8.0,95,0.00,,---,0.02,VWS V14.00,2013-04-02 06:10:00,
2013-04-02 01:11:00,61.1,59.7,29.93,North,5,5.0,8.0,95,0.00,,---,0.02,VWS V14.00,2013-04-02 06:11:00,
2013-04-02 01:12:00,61.1,59.7,29.93,NNE,17,5.0,8.0,95,0.00,,---,0.02,VWS V14.00,2013-04-02 06:12:00,
2013-04-02 01:14:00,61.1,59.7,29.93,NNE,15,5.0,8.0,95,0.00,,---,0.02,VWS V14.00,2013-04-02 06:14:00,
2013-04-02 01:16:00,61.1,59.7,29.93,NNE,23,1.0,8.0,95,0.00,,---,0.02,VWS V14.00,2013-04-02 06:16:00,
2013-04-02 01:17:00,61.1,59.7,29.93,NNE,13,6.0,8.0,95,0.00,,---,0.02,VWS V14.00,2013-04-02 06:17:00,
2013-04-02 01:18:00,61.1,59.7,29.92,NNE,25,0.0,8.0,95,0.00,,---,0.02,VWS V14.00,2013-04-02 06:18:00,
2013-04-02 01:19:00,61.1,59.7,29.92,NNE,23,4.0,8.0,95,0.00,,---,0.02,VWS V14.00,2013-04-02 06:19:00,
2013-04-02 01:21:00,61.1,59.7,29.92,NNE,22,4.0,10.0,95,0.00,,---,0.02,VWS V14.00,2013-04-02 06:21:00,
2013-04-02 01:23:00,61.2,59.8,29.93,NNE,31,3.0,10.0,95,0.00,,---,0.02,VWS V14.00,2013-04-02 06:23:00,
2013-04-02 01:24:00,61.1,59.7,29.93,NNE,30,3.0,10.0,95,0.00,,---,0.02,VWS V14.00,2013-04-02 06:24:00,
2013-04-02 01:25:00,61.2,59.8,29.93,NNE,27,5.0,10.0,95,0.00,,---,0.02,VWS V14.00,2013-04-02 06:25:00,
2013-04-02 01:26:00,61.1,59.7,29.93,NE,44,2.0,10.0,95,0.00,,---,0.02,VWS V14.00,2013-04-02 06:26:00,
2013-04-02 01:28:00,61.1,59.7,29.93,NNE,24,3.0,10.0,95,0.00,,---,0.02,VWS V14.00,2013-04-02 06:28:00,
2013-04-02 01:29:00,61.1,59.7,29.93,North,10,4.0,10.0,95,0.00,,---,0.02,VWS V14.00,2013-04-02 06:29:00,
2013-04-02 01:30:00,61.2,59.8,29.93,North,11,6.0,10.0,95,0.00,,---,0.02,VWS V14.00,2013-04-02 06:30:00,
2013-04-02 01:31:00,61.1,59.7,29.93,NNE,15,6.0,9.0,95,0.00,,---,0.02,VWS V14.00,2013-04-02 06:31:00,
2013-04-02 01:32:00,61.1,59.7,29.93,NE,44,2.0,9.0,95,0.00,,---,0.02,VWS V14.00,2013-04-02 06:32:00,
2013-04-02 01:33:00,61.1,59.7,29.93,NE,42,2.0,9.0,95,0.00,,---,0.03,VWS V14.00,2013-04-02 06:33:00,
2013-04-02 01:34:00,61.2,59.8,29.93,NNE,32,3.0,9.0,95,0.00,,---,0.03,VWS V14.00,2013-04-02 06:34:00,
2013-04-02 01:35:00,61.2,59.8,29.93,NNE,28,4.0,9.0,95,0.00,,---,0.03,VWS V14.00,2013-04-02 06:35:00,
2013-04-02 01:36:00,61.2,59.8,29.93,NE,53,8.0,9.0,95,0.00,,---,0.03,VWS V14.00,2013-04-02 06:36:00,
2013-04-02 01:37:00,61.2,59.8,29.93,NNE,19,3.0,9.0,95,0.00,,---,0.03,VWS V14.00,2013-04-02 06:37:00,
2013-04-02 01:39:00,61.2,59.8,29.93,NE,50,4.0,9.0,95,0.00,,---,0.03,VWS V14.00,2013-04-02 06:39:00,
2013-04-02 01:40:00,61.2,59.8,29.92,NE,40,3.0,9.0,95,0.00,,---,0.03,VWS V14.00,2013-04-02 06:40:00,
2013-04-02 01:41:00,61.2,59.8,29.92,NNE,13,5.0,9.0,95,0.00,,---,0.03,VWS V14.00,2013-04-02 06:41:00,
2013-04-02 01:42:00,61.2,59.8,29.92,NNE,19,3.0,9.0,95,0.00,,---,0.03,VWS V14.00,2013-04-02 06:42:00,
2013-04-02 01:43:00,61.2,59.8,29.92,NNE,26,4.0,9.0,95,0.00,,---,0.03,VWS V14.00,2013-04-02 06:43:00,
2013-04-02 01:44:00,61.2,59.8,29.92,NNE,32,3.0,9.0,95,0.00,,---,0.03,VWS V14.00,2013-04-02 06:44:00,
2013-04-02 01:45:00,61.2,59.8,29.92,NNE,25,6.0,9.0,95,0.00,,---,0.03,VWS V14.00,2013-04-02 06:45:00,
2013-04-02 01:46:00,61.2,59.8,29.93,NNE,22,3.0,9.0,95,0.00,,---,0.03,VWS V14.00,2013-04-02 06:46:00,
2013-04-02 01:47:00,61.2,59.8,29.93,NNE,12,5.0,9.0,95,0.00,,---,0.03,VWS V14.00,2013-04-02 06:47:00,
2013-04-02 01:49:00,61.3,59.9,29.93,NNE,22,3.0,9.0,95,0.00,,---,0.03,VWS V14.00,2013-04-02 06:49:00,
2013-04-02 01:50:00,61.3,59.9,29.93,NNE,13,5.0,9.0,95,0.00,,---,0.03,VWS V14.00,2013-04-02 06:50:00,
2013-04-02 01:51:00,61.3,59.9,29.93,NNE,17,4.0,9.0,95,0.00,,---,0.03,VWS V14.00,2013-04-02 06:51:00,
2013-04-02 01:52:00,61.3,59.9,29.93,North,11,3.0,9.0,95,0.00,,---,0.03,VWS V14.00,2013-04-02 06:52:00,
2013-04-02 01:53:00,61.3,59.9,29.93,NNE,13,3.0,9.0,95,0.00,,---,0.03,VWS V14.00,2013-04-02 06:53:00,
2013-04-02 01:54:00,61.3,59.9,29.93,NNE,24,4.0,9.0,95,0.00,,---,0.03,VWS V14.00,2013-04-02 06:54:00,
2013-04-02 01:55:00,61.3,59.9,29.93,NNE,16,5.0,9.0,95,0.00,,---,0.03,VWS V14.00,2013-04-02 06:55:00,
2013-04-02 01:56:00,61.3,59.9,29.93,NNE,24,4.0,9.0,95,0.00,,---,0.03,VWS V14.00,2013-04-02 06:56:00,
2013-04-02 01:58:00,61.3,59.9,29.93,North,10,4.0,9.0,95,0.00,,---,0.03,VWS V14.00,2013-04-02 06:58:00,
2013-04-02 01:59:00,61.3,59.9,29.93,NNE,30,4.0,10.0,95,0.00,,---,0.03,VWS V14.00,2013-04-02 06:59:00,
2013-04-02 02:00:00,61.4,60.0,29.93,NNE,26,3.0,4.0,95,0.00,,---,0.03,VWS V14.00,2013-04-02 07:00:00,
2013-04-02 02:01:00,61.4,60.0,29.93,NNE,25,3.0,4.0,95,0.00,,---,0.03,VWS V14.00,2013-04-02 07:01:00,
2013-04-02 02:02:00,61.4,60.0,29.92,NNE,25,3.0,4.0,95,0.00,,---,0.03,VWS V14.00,2013-04-02 07:02:00,
2013-04-02 02:03:00,61.4,60.0,29.92,NNE,24,3.0,5.0,95,0.00,,---,0.03,VWS V14.00,2013-04-02 07:03:00,
2013-04-02 02:04:00,61.4,60.0,29.92,NNE,21,5.0,6.0,95,0.00,,---,0.03,VWS V14.00,2013-04-02 07:04:00,
2013-04-02 02:05:00,61.4,60.0,29.93,NNE,13,5.0,7.0,95,0.00,,---,0.03,VWS V14.00,2013-04-02 07:05:00,
2013-04-02 02:06:00,61.4,60.0,29.93,NE,37,4.0,7.0,95,0.00,,---,0.03,VWS V14.00,2013-04-02 07:06:00,
2013-04-02 02:07:00,61.4,60.0,29.93,NNE,16,5.0,7.0,95,0.00,,---,0.03,VWS V14.00,2013-04-02 07:07:00,
2013-04-02 02:08:00,61.4,60.0,29.93,NNE,21,3.0,7.0,95,0.00,,---,0.03,VWS V14.00,2013-04-02 07:08:00,
2013-04-02 02:09:00,61.4,60.0,29.93,NNE,15,6.0,9.0,95,0.00,,---,0.04,VWS V14.00,2013-04-02 07:09:00,
2013-04-02 02:10:00,61.4,60.0,29.92,NNE,12,3.0,9.0,95,0.00,,---,0.04,VWS V14.00,2013-04-02 07:10:00,
2013-04-02 02:11:00,61.4,60.0,29.92,NNE,28,2.0,9.0,95,0.00,,---,0.04,VWS V14.00,2013-04-02 07:11:00,
2013-04-02 02:12:00,61.4,60.0,29.92,NNE,17,3.0,9.0,95,0.00,,---,0.04,VWS V14.00,2013-04-02 07:12:00,
2013-04-02 02:13:00,61.4,60.0,29.92,NNE,21,5.0,9.0,95,0.00,,---,0.04,VWS V14.00,2013-04-02 07:13:00,
2013-04-02 02:14:00,61.4,60.0,29.92,NNE,12,3.0,9.0,95,0.00,,---,0.04,VWS V14.00,2013-04-02 07:14:00,
2013-04-02 02:15:00,61.4,60.0,29.92,NNE,26,4.0,9.0,95,0.00,,---,0.04,VWS V14.00,2013-04-02 07:15:00,
2013-04-02 02:16:00,61.5,60.1,29.92,NE,38,5.0,9.0,95,0.00,,---,0.04,VWS V14.00,2013-04-02 07:16:00,
2013-04-02 02:17:00,61.5,60.1,29.92,NNE,24,5.0,9.0,95,0.00,,---,0.04,VWS V14.00,2013-04-02 07:17:00,
2013-04-02 02:18:00,61.5,60.1,29.92,NNE,31,4.0,9.0,95,0.00,,---,0.04,VWS V14.00,2013-04-02 07:18:00,
2013-04-02 02:19:00,61.5,60.1,29.92,NE,40,6.0,9.0,95,0.00,,---,0.04,VWS V14.00,2013-04-02 07:19:00,
2013-04-02 02:20:00,61.5,60.1,29.92,North,9,6.0,9.0,95,0.00,,---,0.04,VWS V14.00,2013-04-02 07:20:00,
2013-04-02 02:21:00,61.5,60.1,29.92,NNE,16,6.0,9.0,95,0.00,,---,0.04,VWS V14.00,2013-04-02 07:21:00,
2013-04-02 02:22:00,61.5,60.1,29.92,NNE,19,5.0,9.0,95,0.00,,---,0.04,VWS V14.00,2013-04-02 07:22:00,
2013-04-02 02:23:00,61.5,60.1,29.92,NNE,29,2.0,9.0,95,0.00,,---,0.04,VWS V14.00,2013-04-02 07:23:00,
2013-04-02 02:24:00,61.6,60.2,29.92,NE,41,3.0,9.0,95,0.00,,---,0.04,VWS V14.00,2013-04-02 07:24:00,
2013-04-02 02:25:00,61.6,60.2,29.92,NNE,20,5.0,9.0,95,0.00,,---,0.04,VWS V14.00,2013-04-02 07:25:00,
2013-04-02 02:26:00,61.6,60.2,29.92,North,10,3.0,9.0,95,0.00,,---,0.04,VWS V14.00,2013-04-02 07:26:00,
2013-04-02 02:27:00,61.6,60.2,29.92,North,9,1.0,9.0,95,0.00,,---,0.04,VWS V14.00,2013-04-02 07:27:00,
2013-04-02 02:28:00,61.6,60.2,29.92,North,355,1.0,9.0,95,0.00,,---,0.04,VWS V14.00,2013-04-02 07:28:00,
2013-04-02 02:29:00,61.6,60.2,29.92,NNE,24,3.0,9.0,95,0.00,,---,0.04,VWS V14.00,2013-04-02 07:29:00,
2013-04-02 02:30:00,61.6,60.2,29.93,NNE,24,2.0,4.0,95,0.00,,---,0.04,VWS V14.00,2013-04-02 07:30:00,
2013-04-02 02:31:00,61.6,60.2,29.92,NNE,24,0.0,4.0,95,0.00,,---,0.04,VWS V14.00,2013-04-02 07:31:00,
2013-04-02 02:32:00,61.7,60.3,29.93,NNE,24,2.0,4.0,95,0.00,,---,0.04,VWS V14.00,2013-04-02 07:32:00,
2013-04-02 02:33:00,61.7,60.3,29.92,NNE,17,5.0,5.0,95,0.00,,---,0.04,VWS V14.00,2013-04-02 07:33:00,
2013-04-02 02:35:00,61.7,60.3,29.92,NNE,26,5.0,10.0,95,0.00,,---,0.04,VWS V14.00,2013-04-02 07:35:00,
2013-04-02 02:36:00,61.7,60.3,29.92,NNE,12,5.0,10.0,95,0.00,,---,0.04,VWS V14.00,2013-04-02 07:36:00,
2013-04-02 02:37:00,61.7,60.3,29.92,NNE,13,9.0,10.0,95,0.00,,---,0.04,VWS V14.00,2013-04-02 07:37:00,
2013-04-02 02:38:00,61.8,60.4,29.93,NE,47,5.0,10.0,95,0.00,,---,0.04,VWS V14.00,2013-04-02 07:38:00,
2013-04-02 02:39:00,61.8,60.4,29.93,North,11,6.0,10.0,95,0.00,,---,0.04,VWS V14.00,2013-04-02 07:39:00,
2013-04-02 02:40:00,61.8,60.4,29.93,NNE,24,3.0,10.0,95,0.00,,---,0.04,VWS V14.00,2013-04-02 07:40:00,
2013-04-02 02:41:00,61.9,60.5,29.93,NNE,13,6.0,10.0,95,0.00,,---,0.04,VWS V14.00,2013-04-02 07:41:00,
2013-04-02 02:42:00,61.9,60.5,29.93,NNE,17,4.0,10.0,95,0.00,,---,0.04,VWS V14.00,2013-04-02 07:42:00,
2013-04-02 02:43:00,61.9,60.5,29.93,NNE,12,4.0,10.0,95,0.00,,---,0.04,VWS V14.00,2013-04-02 07:43:00,
2013-04-02 02:44:00,62.0,60.6,29.93,North,9,5.0,10.0,95,0.00,,---,0.04,VWS V14.00,2013-04-02 07:44:00,
2013-04-02 02:45:00,62.0,60.6,29.93,NNE,24,3.0,10.0,95,0.00,,---,0.04,VWS V14.00,2013-04-02 07:45:00,
2013-04-02 02:46:00,62.1,60.7,29.93,NE,44,3.0,10.0,95,0.00,,---,0.04,VWS V14.00,2013-04-02 07:46:00,
2013-04-02 02:47:00,62.1,60.7,29.93,NNE,24,2.0,10.0,95,0.00,,---,0.04,VWS V14.00,2013-04-02 07:47:00,
2013-04-02 02:48:00,62.1,60.7,29.93,NNE,20,4.0,10.0,95,0.00,,---,0.04,VWS V14.00,2013-04-02 07:48:00,
2013-04-02 02:49:00,62.1,60.7,29.93,NE,38,6.0,10.0,95,0.00,,---,0.04,VWS V14.00,2013-04-02 07:49:00,
2013-04-02 02:50:00,62.1,60.7,29.93,NE,48,1.0,10.0,95,0.00,,---,0.04,VWS V14.00,2013-04-02 07:50:00,
2013-04-02 02:51:00,62.1,60.7,29.93,NNE,14,5.0,10.0,95,0.00,,---,0.04,VWS V14.00,2013-04-02 07:51:00,
2013-04-02 02:52:00,62.1,60.7,29.92,ENE,57,4.0,10.0,95,0.00,,---,0.04,VWS V14.00,2013-04-02 07:52:00,
2013-04-02 02:53:00,62.2,60.8,29.92,NNE,31,4.0,10.0,95,0.00,,---,0.04,VWS V14.00,2013-04-02 07:53:00,
2013-04-02 02:54:00,62.2,60.8,29.92,NE,41,6.0,10.0,95,0.00,,---,0.04,VWS V14.00,2013-04-02 07:54:00,
2013-04-02 02:55:00,62.2,60.8,29.92,North,11,4.0,10.0,95,0.00,,---,0.04,VWS V14.00,2013-04-02 07:55:00,
2013-04-02 02:56:00,62.3,60.8,29.92,NNE,25,6.0,10.0,95,0.00,,---,0.04,VWS V14.00,2013-04-02 07:56:00,
2013-04-02 02:57:00,62.3,60.8,29.92,North,5,6.0,10.0,95,0.00,,---,0.04,VWS V14.00,2013-04-02 07:57:00,
2013-04-02 02:58:00,62.3,60.8,29.92,NNE,24,3.0,10.0,95,0.00,,---,0.05,VWS V14.00,2013-04-02 07:58:00,
2013-04-02 03:00:00,62.3,60.8,29.92,NNE,18,4.0,10.0,95,0.00,,---,0.05,VWS V14.00,2013-04-02 08:00:00,
2013-04-02 03:01:00,62.3,60.8,29.92,North,355,5.0,8.0,95,0.00,,---,0.05,VWS V14.00,2013-04-02 08:01:00,
2013-04-02 03:02:00,62.3,60.6,29.92,NNE,13,6.0,8.0,94,0.00,,---,0.05,VWS V14.00,2013-04-02 08:02:00,
2013-04-02 03:03:00,62.3,60.6,29.92,East,84,2.0,8.0,94,0.00,,---,0.05,VWS V14.00,2013-04-02 08:03:00,
2013-04-02 03:04:00,62.3,60.6,29.92,NE,35,6.0,8.0,94,0.00,,---,0.05,VWS V14.00,2013-04-02 08:04:00,
2013-04-02 03:05:00,62.3,60.6,29.92,ENE,60,4.0,8.0,94,0.00,,---,0.05,VWS V14.00,2013-04-02 08:05:00,
2013-04-02 03:06:00,62.3,60.6,29.92,ENE,60,3.0,8.0,94,0.00,,---,0.05,VWS V14.00,2013-04-02 08:06:00,
2013-04-02 03:07:00,62.4,60.7,29.92,NE,44,4.0,8.0,94,0.00,,---,0.05,VWS V14.00,2013-04-02 08:07:00,
2013-04-02 03:08:00,62.4,60.7,29.92,NNE,14,3.0,8.0,94,0.00,,---,0.05,VWS V14.00,2013-04-02 08:08:00,
2013-04-02 03:09:00,62.4,60.7,29.92,NNE,13,3.0,8.0,94,0.00,,---,0.05,VWS V14.00,2013-04-02 08:09:00,
2013-04-02 03:10:00,62.4,60.7,29.92,North,11,4.0,8.0,94,0.00,,---,0.05,VWS V14.00,2013-04-02 08:10:00,
2013-04-02 03:11:00,62.4,60.7,29.92,NNE,13,4.0,8.0,94,0.00,,---,0.05,VWS V14.00,2013-04-02 08:11:00,
2013-04-02 03:12:00,62.4,60.7,29.92,North,360,4.0,8.0,94,0.00,,---,0.05,VWS V14.00,2013-04-02 08:12:00,
2013-04-02 03:13:00,62.4,60.7,29.92,North,9,5.0,9.0,94,0.00,,---,0.05,VWS V14.00,2013-04-02 08:13:00,
2013-04-02 03:14:00,62.4,60.7,29.92,North,5,4.0,9.0,94,0.00,,---,0.05,VWS V14.00,2013-04-02 08:14:00,
2013-04-02 03:15:00,62.4,60.7,29.92,NNE,23,5.0,9.0,94,0.00,,---,0.05,VWS V14.00,2013-04-02 08:15:00,
2013-04-02 03:16:00,62.5,60.8,29.92,NNE,23,4.0,9.0,94,0.00,,---,0.05,VWS V14.00,2013-04-02 08:16:00,
2013-04-02 03:18:00,62.4,60.7,29.91,NNE,22,2.0,9.0,94,0.00,,---,0.05,VWS V14.00,2013-04-02 08:18:00,
2013-04-02 03:19:00,62.5,60.8,29.92,NNE,19,5.0,9.0,94,0.00,,---,0.05,VWS V14.00,2013-04-02 08:19:00,
2013-04-02 03:20:00,62.5,60.8,29.92,NNE,27,5.0,9.0,94,0.00,,---,0.05,VWS V14.00,2013-04-02 08:20:00,
2013-04-02 03:21:00,62.5,60.8,29.92,NNE,23,6.0,9.0,94,0.00,,---,0.05,VWS V14.00,2013-04-02 08:21:00,
2013-04-02 03:22:00,62.5,60.8,29.92,NNE,32,4.0,9.0,94,0.00,,---,0.05,VWS V14.00,2013-04-02 08:22:00,
2013-04-02 03:23:00,62.5,60.8,29.92,NE,44,3.0,9.0,94,0.00,,---,0.05,VWS V14.00,2013-04-02 08:23:00,
2013-04-02 03:24:00,62.6,60.8,29.92,NNE,29,5.0,9.0,94,0.00,,---,0.05,VWS V14.00,2013-04-02 08:24:00,
2013-04-02 03:25:00,62.6,60.8,29.92,NNE,22,8.0,9.0,94,0.00,,---,0.05,VWS V14.00,2013-04-02 08:25:00,
2013-04-02 03:26:00,62.6,60.8,29.92,North,10,6.0,9.0,94,0.00,,---,0.05,VWS V14.00,2013-04-02 08:26:00,
2013-04-02 03:28:00,62.7,61.0,29.92,NNE,33,4.0,10.0,94,0.00,,---,0.05,VWS V14.00,2013-04-02 08:28:00,
2013-04-02 03:29:00,62.7,61.0,29.92,NNE,16,5.0,10.0,94,0.00,,---,0.05,VWS V14.00,2013-04-02 08:29:00,
2013-04-02 03:30:00,62.7,61.0,29.92,NNE,18,3.0,5.0,94,0.00,,---,0.05,VWS V14.00,2013-04-02 08:30:00,
2013-04-02 03:31:00,62.7,61.0,29.92,NNE,17,2.0,5.0,94,0.00,,---,0.05,VWS V14.00,2013-04-02 08:31:00,
2013-04-02 03:32:00,62.7,61.0,29.92,North,10,3.0,5.0,94,0.00,,---,0.05,VWS V14.00,2013-04-02 08:32:00,
2013-04-02 03:33:00,62.7,61.0,29.92,NNE,24,1.0,5.0,94,0.00,,---,0.05,VWS V14.00,2013-04-02 08:33:00,
2013-04-02 03:36:00,62.7,61.0,29.92,NNE,24,4.0,5.0,94,0.00,,---,0.05,VWS V14.00,2013-04-02 08:36:00,
2013-04-02 03:37:00,62.7,61.0,29.92,NNE,16,6.0,8.0,94,0.00,,---,0.05,VWS V14.00,2013-04-02 08:37:00,
2013-04-02 03:38:00,62.7,61.0,29.92,North,11,5.0,8.0,94,0.00,,---,0.05,VWS V14.00,2013-04-02 08:38:00,
2013-04-02 03:39:00,62.7,61.0,29.92,NNE,20,2.0,8.0,94,0.00,,---,0.06,VWS V14.00,2013-04-02 08:39:00,
2013-04-02 03:40:00,62.7,61.0,29.91,NE,40,2.0,8.0,94,0.00,,---,0.06,VWS V14.00,2013-04-02 08:40:00,
2013-04-02 03:41:00,62.7,61.0,29.91,NE,45,1.0,8.0,94,0.00,,---,0.06,VWS V14.00,2013-04-02 08:41:00,
2013-04-02 03:42:00,62.7,61.0,29.91,NE,46,2.0,8.0,94,0.00,,---,0.06,VWS V14.00,2013-04-02 08:42:00,
2013-04-02 03:43:00,62.7,61.0,29.91,NE,44,4.0,8.0,94,0.00,,---,0.06,VWS V14.00,2013-04-02 08:43:00,
2013-04-02 03:44:00,62.7,61.0,29.91,NNE,16,6.0,8.0,94,0.00,,---,0.06,VWS V14.00,2013-04-02 08:44:00,
2013-04-02 03:45:00,62.7,61.0,29.91,NNE,24,4.0,8.0,94,0.00,,---,0.06,VWS V14.00,2013-04-02 08:45:00,
2013-04-02 03:46:00,62.7,61.0,29.91,NNE,23,4.0,8.0,94,0.00,,---,0.06,VWS V14.00,2013-04-02 08:46:00,
2013-04-02 03:47:00,62.7,61.0,29.92,NE,42,4.0,8.0,94,0.00,,---,0.06,VWS V14.00,2013-04-02 08:47:00,
2013-04-02 03:48:00,62.7,61.0,29.91,NE,43,2.0,8.0,94,0.00,,---,0.06,VWS V14.00,2013-04-02 08:48:00,
2013-04-02 03:49:00,62.7,61.0,29.91,NE,44,3.0,8.0,94,0.00,,---,0.06,VWS V14.00,2013-04-02 08:49:00,
2013-04-02 03:50:00,62.7,61.0,29.91,NE,36,2.0,8.0,94,0.00,,---,0.06,VWS V14.00,2013-04-02 08:50:00,
2013-04-02 03:51:00,62.7,61.0,29.91,NE,42,1.0,8.0,94,0.00,,---,0.06,VWS V14.00,2013-04-02 08:51:00,
2013-04-02 03:53:00,62.7,61.0,29.91,NE,36,2.0,8.0,94,0.00,,---,0.06,VWS V14.00,2013-04-02 08:53:00,
2013-04-02 03:54:00,62.7,61.0,29.91,ENE,59,3.0,8.0,94,0.00,,---,0.06,VWS V14.00,2013-04-02 08:54:00,
2013-04-02 03:55:00,62.7,61.0,29.91,NNE,31,2.0,8.0,94,0.00,,---,0.06,VWS V14.00,2013-04-02 08:55:00,
2013-04-02 03:56:00,62.7,61.0,29.91,NE,49,3.0,8.0,94,0.00,,---,0.06,VWS V14.00,2013-04-02 08:56:00,
2013-04-02 03:57:00,62.7,61.0,29.91,NE,46,2.0,8.0,94,0.00,,---,0.06,VWS V14.00,2013-04-02 08:57:00,
2013-04-02 03:58:00,62.7,61.0,29.92,NE,46,3.0,8.0,94,0.00,,---,0.06,VWS V14.00,2013-04-02 08:58:00,
2013-04-02 04:00:00,62.7,61.0,29.92,NE,51,1.0,8.0,94,0.00,,---,0.06,VWS V14.00,2013-04-02 09:00:00,
2013-04-02 04:01:00,62.7,61.0,29.91,NE,38,3.0,6.0,94,0.00,,---,0.06,VWS V14.00,2013-04-02 09:01:00,
2013-04-02 04:02:00,62.7,61.0,29.91,NNE,26,4.0,6.0,94,0.00,,---,0.06,VWS V14.00,2013-04-02 09:02:00,
2013-04-02 04:03:00,62.7,61.0,29.91,NNE,20,1.0,6.0,94,0.00,,---,0.06,VWS V14.00,2013-04-02 09:03:00,
2013-04-02 04:04:00,62.7,61.0,29.91,NNE,14,5.0,6.0,94,0.00,,---,0.06,VWS V14.00,2013-04-02 09:04:00,
2013-04-02 04:05:00,62.7,61.0,29.91,NNE,24,2.0,6.0,94,0.00,,---,0.06,VWS V14.00,2013-04-02 09:05:00,
2013-04-02 04:06:00,62.7,61.0,29.91,NNE,21,4.0,6.0,94,0.00,,---,0.06,VWS V14.00,2013-04-02 09:06:00,
2013-04-02 04:07:00,62.7,61.0,29.91,NNE,26,5.0,7.0,94,0.00,,---,0.06,VWS V14.00,2013-04-02 09:07:00,
2013-04-02 04:08:00,62.7,61.0,29.91,North,11,4.0,7.0,94,0.00,,---,0.06,VWS V14.00,2013-04-02 09:08:00,
2013-04-02 04:09:00,62.7,61.0,29.91,NE,44,3.0,7.0,94,0.00,,---,0.06,VWS V14.00,2013-04-02 09:09:00,
2013-04-02 04:11:00,62.7,61.0,29.90,NE,45,1.0,7.0,94,0.00,,---,0.06,VWS V14.00,2013-04-02 09:11:00,
2013-04-02 04:14:00,62.7,61.0,29.91,NNE,28,4.0,7.0,94,0.00,,---,0.06,VWS V14.00,2013-04-02 09:14:00,
2013-04-02 04:15:00,62.7,61.0,29.90,NNE,30,2.0,7.0,94,0.00,,---,0.06,VWS V14.00,2013-04-02 09:15:00,
2013-04-02 04:16:00,62.8,61.0,29.90,ENE,59,0.0,7.0,94,0.00,,---,0.06,VWS V14.00,2013-04-02 09:16:00,
2013-04-02 04:17:00,62.7,61.0,29.90,NE,55,0.0,7.0,94,0.00,,---,0.06,VWS V14.00,2013-04-02 09:17:00,
2013-04-02 04:18:00,62.7,61.0,29.90,NE,51,4.0,7.0,94,0.00,,---,0.06,VWS V14.00,2013-04-02 09:18:00,
2013-04-02 04:19:00,62.7,61.0,29.90,NE,51,1.0,7.0,94,0.00,,---,0.06,VWS V14.00,2013-04-02 09:19:00,
2013-04-02 04:20:00,62.7,61.0,29.90,NE,51,3.0,7.0,94,0.00,,---,0.06,VWS V14.00,2013-04-02 09:20:00,
2013-04-02 04:21:00,62.7,61.0,29.90,NE,51,1.0,7.0,94,0.00,,---,0.06,VWS V14.00,2013-04-02 09:21:00,
2013-04-02 04:22:00,62.7,61.0,29.90,NE,55,2.0,7.0,94,0.00,,---,0.06,VWS V14.00,2013-04-02 09:22:00,
2013-04-02 04:23:00,62.7,61.0,29.90,NE,55,1.0,7.0,94,0.00,,---,0.06,VWS V14.00,2013-04-02 09:23:00,
2013-04-02 04:24:00,62.7,61.0,29.90,NE,55,1.0,7.0,94,0.00,,---,0.06,VWS V14.00,2013-04-02 09:24:00,
2013-04-02 04:25:00,62.7,61.0,29.90,NNE,21,5.0,7.0,94,0.00,,---,0.06,VWS V14.00,2013-04-02 09:25:00,
2013-04-02 04:26:00,62.7,61.0,29.90,NNE,23,2.0,7.0,94,0.00,,---,0.06,VWS V14.00,2013-04-02 09:26:00,
2013-04-02 04:27:00,62.7,61.0,29.90,NE,38,3.0,7.0,94,0.00,,---,0.07,VWS V14.00,2013-04-02 09:27:00,
2013-04-02 04:28:00,62.7,61.0,29.90,NE,38,1.0,7.0,94,0.00,,---,0.07,VWS V14.00,2013-04-02 09:28:00,
2013-04-02 04:30:00,62.7,61.0,29.91,NE,38,0.0,7.0,94,0.00,,---,0.07,VWS V14.00,2013-04-02 09:30:00,
2013-04-02 04:31:00,62.7,61.0,29.91,NNE,20,2.0,5.0,94,0.00,,---,0.07,VWS V14.00,2013-04-02 09:31:00,
2013-04-02 04:32:00,62.7,61.0,29.90,NNE,28,3.0,5.0,94,0.00,,---,0.07,VWS V14.00,2013-04-02 09:32:00,
2013-04-02 04:33:00,62.7,61.0,29.90,NE,48,2.0,5.0,94,0.00,,---,0.07,VWS V14.00,2013-04-02 09:33:00,
2013-04-02 04:34:00,62.7,61.0,29.90,NE,40,2.0,5.0,94,0.00,,---,0.07,VWS V14.00,2013-04-02 09:34:00,
2013-04-02 04:35:00,62.7,61.0,29.90,North,5,4.0,6.0,94,0.00,,---,0.07,VWS V14.00,2013-04-02 09:35:00,
2013-04-02 04:36:00,62.7,61.0,29.90,NNE,29,3.0,6.0,94,0.00,,---,0.07,VWS V14.00,2013-04-02 09:36:00,
2013-04-02 04:38:00,62.7,61.0,29.90,NNE,30,4.0,6.0,94,0.00,,---,0.07,VWS V14.00,2013-04-02 09:38:00,
2013-04-02 04:39:00,62.7,61.0,29.90,NNE,30,2.0,6.0,94,0.00,,---,0.07,VWS V14.00,2013-04-02 09:39:00,
2013-04-02 04:40:00,62.7,61.0,29.90,NNE,29,3.0,6.0,94,0.00,,---,0.07,VWS V14.00,2013-04-02 09:40:00,
2013-04-02 04:41:00,62.7,61.0,29.90,NNE,19,5.0,7.0,94,0.00,,---,0.07,VWS V14.00,2013-04-02 09:41:00,
2013-04-02 04:43:00,62.7,61.0,29.90,NNE,27,4.0,7.0,94,0.00,,---,0.07,VWS V14.00,2013-04-02 09:43:00,
2013-04-02 04:44:00,62.7,61.0,29.90,NE,40,3.0,7.0,94,0.00,,---,0.07,VWS V14.00,2013-04-02 09:44:00,
2013-04-02 04:45:00,62.7,61.0,29.90,NNE,24,2.0,7.0,94,0.00,,---,0.07,VWS V14.00,2013-04-02 09:45:00,
2013-04-02 04:46:00,62.7,61.0,29.90,NNE,26,3.0,7.0,94,0.00,,---,0.07,VWS V14.00,2013-04-02 09:46:00,
2013-04-02 04:48:00,62.7,61.0,29.90,NNE,22,5.0,7.0,94,0.00,,---,0.07,VWS V14.00,2013-04-02 09:48:00,
2013-04-02 04:49:00,62.7,61.0,29.90,NNE,18,4.0,7.0,94,0.00,,---,0.07,VWS V14.00,2013-04-02 09:49:00,
2013-04-02 04:50:00,62.7,61.0,29.90,NNE,19,5.0,7.0,94,0.00,,---,0.07,VWS V14.00,2013-04-02 09:50:00,
2013-04-02 04:51:00,62.7,61.0,29.90,NNE,32,1.0,7.0,94,0.00,,---,0.07,VWS V14.00,2013-04-02 09:51:00,
2013-04-02 04:52:00,62.7,61.0,29.90,NNE,31,2.0,7.0,94,0.00,,---,0.07,VWS V14.00,2013-04-02 09:52:00,
2013-04-02 04:53:00,62.7,61.0,29.90,NE,36,2.0,7.0,94,0.00,,---,0.07,VWS V14.00,2013-04-02 09:53:00,
2013-04-02 04:56:00,62.7,61.0,29.90,NNE,19,4.0,7.0,94,0.00,,---,0.07,VWS V14.00,2013-04-02 09:56:00,
2013-04-02 04:57:00,62.6,60.8,29.89,NNE,22,4.0,7.0,94,0.00,,---,0.07,VWS V14.00,2013-04-02 09:57:00,
2013-04-02 04:58:00,62.6,60.8,29.89,NE,39,0.0,7.0,94,0.00,,---,0.07,VWS V14.00,2013-04-02 09:58:00,
2013-04-02 04:59:00,62.6,60.8,29.90,NNE,20,3.0,7.0,94,0.00,,---,0.07,VWS V14.00,2013-04-02 09:59:00,
2013-04-02 05:00:00,62.6,60.8,29.90,NNE,14,2.0,7.0,94,0.00,,---,0.07,VWS V14.00,2013-04-02 10:00:00,
2013-04-02 05:01:00,62.5,60.8,29.89,NNE,14,4.0,6.0,94,0.00,,---,0.07,VWS V14.00,2013-04-02 10:01:00,
2013-04-02 05:02:00,62.5,60.8,29.89,NE,42,4.0,6.0,94,0.00,,---,0.07,VWS V14.00,2013-04-02 10:02:00,
2013-04-02 05:03:00,62.5,60.8,29.89,NNE,16,3.0,6.0,94,0.00,,---,0.07,VWS V14.00,2013-04-02 10:03:00,
2013-04-02 05:04:00,62.5,60.8,29.89,NNE,18,4.0,6.0,94,0.00,,---,0.07,VWS V14.00,2013-04-02 10:04:00,
2013-04-02 05:05:00,62.5,61.0,29.89,NNE,20,1.0,6.0,95,0.00,,---,0.07,VWS V14.00,2013-04-02 10:05:00,
2013-04-02 05:06:00,62.5,61.0,29.89,NNE,25,3.0,6.0,95,0.00,,---,0.07,VWS V14.00,2013-04-02 10:06:00,
2013-04-02 05:07:00,62.5,61.0,29.89,NNE,27,5.0,6.0,95,0.00,,---,0.07,VWS V14.00,2013-04-02 10:07:00,
2013-04-02 05:08:00,62.6,61.2,29.89,NNE,15,5.0,6.0,95,0.00,,---,0.07,VWS V14.00,2013-04-02 10:08:00,
2013-04-02 05:09:00,62.6,61.2,29.89,NNE,14,2.0,6.0,95,0.00,,---,0.07,VWS V14.00,2013-04-02 10:09:00,
2013-04-02 05:10:00,62.5,61.0,29.89,NE,44,0.0,6.0,95,0.00,,---,0.07,VWS V14.00,2013-04-02 10:10:00,
2013-04-02 05:11:00,62.5,61.0,29.89,NNE,19,4.0,6.0,95,0.00,,---,0.07,VWS V14.00,2013-04-02 10:11:00,
2013-04-02 05:12:00,62.6,61.2,29.89,NNE,23,4.0,6.0,95,0.00,,---,0.08,VWS V14.00,2013-04-02 10:12:00,
2013-04-02 05:13:00,62.6,61.2,29.89,NE,42,6.0,6.0,95,0.00,,---,0.08,VWS V14.00,2013-04-02 10:13:00,
2013-04-02 05:14:00,62.5,61.0,29.89,NNE,15,7.0,7.0,95,0.00,,---,0.08,VWS V14.00,2013-04-02 10:14:00,
2013-04-02 05:15:00,62.5,61.0,29.89,NNE,23,3.0,7.0,95,0.00,,---,0.08,VWS V14.00,2013-04-02 10:15:00,
2013-04-02 05:16:00,62.5,61.0,29.89,NNE,22,3.0,7.0,95,0.00,,---,0.08,VWS V14.00,2013-04-02 10:16:00,
2013-04-02 05:17:00,62.5,61.0,29.89,NNE,20,1.0,7.0,95,0.00,,---,0.08,VWS V14.00,2013-04-02 10:17:00,
2013-04-02 05:18:00,62.5,61.0,29.88,NNE,21,2.0,7.0,95,0.00,,---,0.08,VWS V14.00,2013-04-02 10:18:00,
2013-04-02 05:19:00,62.5,61.0,29.88,NNE,17,4.0,7.0,95,0.00,,---,0.08,VWS V14.00,2013-04-02 10:19:00,
2013-04-02 05:20:00,62.5,61.0,29.88,NE,38,3.0,7.0,95,0.00,,---,0.08,VWS V14.00,2013-04-02 10:20:00,
2013-04-02 05:21:00,62.5,61.0,29.88,NNE,28,3.0,7.0,95,0.00,,---,0.08,VWS V14.00,2013-04-02 10:21:00,
2013-04-02 05:22:00,62.5,61.0,29.88,NNE,28,1.0,7.0,95,0.00,,---,0.08,VWS V14.00,2013-04-02 10:22:00,
2013-04-02 05:23:00,62.5,61.0,29.89,NNE,25,1.0,7.0,95,0.00,,---,0.08,VWS V14.00,2013-04-02 10:23:00,
2013-04-02 05:24:00,62.5,61.0,29.89,NNE,25,2.0,7.0,95,0.00,,---,0.08,VWS V14.00,2013-04-02 10:24:00,
2013-04-02 05:25:00,62.5,61.0,29.89,NNE,25,2.0,7.0,95,0.00,,---,0.08,VWS V14.00,2013-04-02 10:25:00,
2013-04-02 05:26:00,62.5,61.0,29.88,NE,38,1.0,7.0,95,0.00,,---,0.08,VWS V14.00,2013-04-02 10:26:00,
2013-04-02 05:28:00,62.5,61.0,29.88,NE,38,3.0,7.0,95,0.00,,---,0.08,VWS V14.00,2013-04-02 10:28:00,
2013-04-02 05:29:00,62.5,61.0,29.88,NE,37,3.0,7.0,95,0.00,,---,0.08,VWS V14.00,2013-04-02 10:29:00,
2013-04-02 05:30:00,62.5,61.0,29.88,NE,37,1.0,7.0,95,0.00,,---,0.08,VWS V14.00,2013-04-02 10:30:00,
2013-04-02 05:31:00,62.5,61.0,29.88,NE,36,2.0,4.0,95,0.00,,---,0.08,VWS V14.00,2013-04-02 10:31:00,
2013-04-02 05:32:00,62.5,61.0,29.88,NE,36,2.0,4.0,95,0.00,,---,0.08,VWS V14.00,2013-04-02 10:32:00,
2013-04-02 05:33:00,62.5,61.0,29.88,NE,38,0.0,4.0,95,0.00,,---,0.08,VWS V14.00,2013-04-02 10:33:00,
2013-04-02 05:34:00,62.5,61.0,29.88,NE,53,2.0,4.0,95,0.00,,---,0.08,VWS V14.00,2013-04-02 10:34:00,
2013-04-02 05:35:00,62.5,61.0,29.88,NE,52,0.0,4.0,95,0.00,,---,0.08,VWS V14.00,2013-04-02 10:35:00,
2013-04-02 05:36:00,62.4,61.0,29.88,NNE,28,3.0,7.0,95,0.00,,---,0.08,VWS V14.00,2013-04-02 10:36:00,
2013-04-02 05:37:00,62.4,61.0,29.88,NE,40,2.0,7.0,95,0.00,,---,0.08,VWS V14.00,2013-04-02 10:37:00,
2013-04-02 05:38:00,62.4,61.0,29.88,NE,47,2.0,7.0,95,0.00,,---,0.08,VWS V14.00,2013-04-02 10:38:00,
2013-04-02 05:39:00,62.4,61.0,29.88,NNE,32,2.0,7.0,95,0.00,,---,0.08,VWS V14.00,2013-04-02 10:39:00,
2013-04-02 05:40:00,62.4,61.0,29.88,NE,40,2.0,7.0,95,0.00,,---,0.08,VWS V14.00,2013-04-02 10:40:00,
2013-04-02 05:41:00,62.4,61.0,29.88,NE,40,4.0,7.0,95,0.00,,---,0.08,VWS V14.00,2013-04-02 10:41:00,
2013-04-02 05:42:00,62.4,61.0,29.88,NE,40,1.0,7.0,95,0.00,,---,0.08,VWS V14.00,2013-04-02 10:42:00,
2013-04-02 05:43:00,62.4,61.0,29.88,NNE,21,2.0,7.0,95,0.00,,---,0.08,VWS V14.00,2013-04-02 10:43:00,
2013-04-02 05:44:00,62.3,60.8,29.88,NNE,23,4.0,7.0,95,0.00,,---,0.08,VWS V14.00,2013-04-02 10:44:00,
2013-04-02 05:45:00,62.3,60.8,29.88,NNE,15,4.0,7.0,95,0.00,,---,0.08,VWS V14.00,2013-04-02 10:45:00,
2013-04-02 05:46:00,62.3,60.8,29.88,NNE,16,3.0,7.0,95,0.00,,---,0.08,VWS V14.00,2013-04-02 10:46:00,
2013-04-02 05:47:00,62.3,60.8,29.88,NNE,14,3.0,7.0,95,0.00,,---,0.08,VWS V14.00,2013-04-02 10:47:00,
2013-04-02 05:48:00,62.3,60.8,29.88,North,10,3.0,7.0,95,0.00,,---,0.08,VWS V14.00,2013-04-02 10:48:00,
2013-04-02 05:49:00,62.2,60.8,29.88,North,11,2.0,7.0,95,0.00,,---,0.08,VWS V14.00,2013-04-02 10:49:00,
2013-04-02 05:50:00,62.2,60.8,29.88,North,9,4.0,7.0,95,0.00,,---,0.08,VWS V14.00,2013-04-02 10:50:00,
2013-04-02 05:53:00,62.2,60.8,29.88,NNE,17,2.0,7.0,95,0.00,,---,0.08,VWS V14.00,2013-04-02 10:53:00,
2013-04-02 05:54:00,62.2,60.8,29.88,NNE,18,3.0,7.0,95,0.00,,---,0.08,VWS V14.00,2013-04-02 10:54:00,
2013-04-02 05:55:00,62.2,60.8,29.87,NNE,22,1.0,7.0,95,0.00,,---,0.08,VWS V14.00,2013-04-02 10:55:00,
2013-04-02 05:56:00,62.2,60.8,29.87,NNE,22,2.0,7.0,95,0.00,,---,0.08,VWS V14.00,2013-04-02 10:56:00,
2013-04-02 05:58:00,62.2,60.8,29.87,NNE,22,1.0,7.0,95,0.00,,---,0.08,VWS V14.00,2013-04-02 10:58:00,
2013-04-02 05:59:00,62.2,60.8,29.87,NNE,22,4.0,7.0,95,0.00,,---,0.08,VWS V14.00,2013-04-02 10:59:00,
2013-04-02 06:00:00,62.1,60.7,29.87,NNE,22,3.0,7.0,95,0.00,,---,0.08,VWS V14.00,2013-04-02 11:00:00,
2013-04-02 06:01:00,62.1,60.7,29.87,NNE,22,6.0,6.0,95,0.00,,---,0.08,VWS V14.00,2013-04-02 11:01:00,
2013-04-02 06:02:00,62.1,60.7,29.87,NNE,22,4.0,6.0,95,0.00,,---,0.08,VWS V14.00,2013-04-02 11:02:00,
2013-04-02 06:03:00,62.0,60.6,29.87,NNE,22,0.0,6.0,95,0.00,,---,0.08,VWS V14.00,2013-04-02 11:03:00,
2013-04-02 06:04:00,62.0,60.6,29.88,NNE,22,2.0,6.0,95,0.00,,---,0.08,VWS V14.00,2013-04-02 11:04:00,
2013-04-02 06:05:00,62.0,60.6,29.87,NNE,22,0.0,6.0,95,0.00,,---,0.09,VWS V14.00,2013-04-02 11:05:00,
2013-04-02 06:06:00,62.0,60.6,29.87,NNE,22,3.0,6.0,95,0.00,,---,0.09,VWS V14.00,2013-04-02 11:06:00,
2013-04-02 06:07:00,62.0,60.6,29.87,NNE,22,1.0,6.0,95,0.00,,---,0.09,VWS V14.00,2013-04-02 11:07:00,
2013-04-02 06:08:00,61.9,60.5,29.87,NNE,22,0.0,6.0,95,0.00,,---,0.09,VWS V14.00,2013-04-02 11:08:00,
2013-04-02 06:09:00,61.9,60.5,29.88,NNE,22,0.0,6.0,95,0.00,,---,0.09,VWS V14.00,2013-04-02 11:09:00,
2013-04-02 06:10:00,61.9,60.8,29.88,NNE,22,0.0,6.0,96,0.00,,---,0.09,VWS V14.00,2013-04-02 11:10:00,
2013-04-02 06:11:00,61.9,60.8,29.88,NNE,22,0.0,6.0,96,0.00,,---,0.09,VWS V14.00,2013-04-02 11:11:00,
2013-04-02 06:12:00,61.8,60.7,29.88,NNE,22,0.0,6.0,96,0.00,,---,0.09,VWS V14.00,2013-04-02 11:12:00,
2013-04-02 06:13:00,61.8,60.7,29.88,NNE,22,3.0,6.0,96,0.00,,---,0.09,VWS V14.00,2013-04-02 11:13:00,
2013-04-02 06:14:00,61.8,60.7,29.88,NNE,21,0.0,6.0,96,0.00,,---,0.09,VWS V14.00,2013-04-02 11:14:00,
2013-04-02 06:15:00,61.8,60.7,29.88,NNE,22,1.0,6.0,96,0.00,,---,0.09,VWS V14.00,2013-04-02 11:15:00,
2013-04-02 06:16:00,61.8,60.7,29.88,NNE,22,1.0,6.0,96,0.00,,---,0.09,VWS V14.00,2013-04-02 11:16:00,
2013-04-02 06:17:00,61.8,60.7,29.88,NNE,22,3.0,6.0,96,0.00,,---,0.09,VWS V14.00,2013-04-02 11:17:00,
2013-04-02 06:18:00,61.8,60.7,29.88,NNE,22,2.0,6.0,96,0.00,,---,0.09,VWS V14.00,2013-04-02 11:18:00,
2013-04-02 06:19:00,61.8,60.7,29.88,NNE,21,5.0,6.0,96,0.00,,---,0.09,VWS V14.00,2013-04-02 11:19:00,
2013-04-02 06:20:00,61.8,60.7,29.87,NNE,21,3.0,6.0,96,0.00,,---,0.09,VWS V14.00,2013-04-02 11:20:00,
2013-04-02 06:22:00,61.8,60.7,29.87,NNE,17,3.0,6.0,96,0.00,,---,0.09,VWS V14.00,2013-04-02 11:22:00,
2013-04-02 06:26:00,61.8,60.7,29.87,NNE,22,1.0,6.0,96,0.00,,---,0.09,VWS V14.00,2013-04-02 11:26:00,
2013-04-02 06:27:00,61.7,60.5,29.87,NNE,22,2.0,6.0,96,0.00,,---,0.09,VWS V14.00,2013-04-02 11:27:00,
2013-04-02 06:28:00,61.8,60.7,29.87,NNE,22,2.0,6.0,96,0.00,,---,0.09,VWS V14.00,2013-04-02 11:28:00,
2013-04-02 06:29:00,61.8,60.7,29.87,NNE,22,2.0,6.0,96,0.00,,---,0.09,VWS V14.00,2013-04-02 11:29:00,
2013-04-02 06:30:00,61.8,60.7,29.87,NNE,22,0.0,6.0,96,0.00,,---,0.09,VWS V14.00,2013-04-02 11:30:00,
2013-04-02 06:31:00,61.8,60.7,29.87,NE,34,1.0,3.0,96,0.00,,---,0.09,VWS V14.00,2013-04-02 11:31:00,
2013-04-02 06:32:00,61.8,60.7,29.86,NE,34,1.0,3.0,96,0.00,,---,0.09,VWS V14.00,2013-04-02 11:32:00,
2013-04-02 06:33:00,61.8,60.7,29.86,NE,34,2.0,3.0,96,0.00,,---,0.09,VWS V14.00,2013-04-02 11:33:00,
2013-04-02 06:34:00,61.7,60.5,29.86,NE,34,0.0,3.0,96,0.00,,---,0.09,VWS V14.00,2013-04-02 11:34:00,
2013-04-02 06:35:00,61.7,60.5,29.86,NE,34,0.0,3.0,96,0.00,,---,0.09,VWS V14.00,2013-04-02 11:35:00,
2013-04-02 06:36:00,61.7,60.5,29.86,NE,34,2.0,3.0,96,0.00,,---,0.09,VWS V14.00,2013-04-02 11:36:00,
2013-04-02 06:37:00,61.7,60.5,29.86,NNE,32,4.0,4.0,96,0.00,,---,0.09,VWS V14.00,2013-04-02 11:37:00,
2013-04-02 06:38:00,61.7,60.5,29.86,NNE,24,4.0,6.0,96,0.00,,---,0.09,VWS V14.00,2013-04-02 11:38:00,
2013-04-02 06:39:00,61.7,60.5,29.86,NNE,22,1.0,6.0,96,0.00,,---,0.09,VWS V14.00,2013-04-02 11:39:00,
2013-04-02 06:40:00,61.6,60.5,29.86,NNE,26,2.0,6.0,96,0.00,,---,0.09,VWS V14.00,2013-04-02 11:40:00,
2013-04-02 06:41:00,61.7,60.5,29.85,NNE,25,3.0,6.0,96,0.00,,---,0.09,VWS V14.00,2013-04-02 11:41:00,
2013-04-02 06:43:00,61.6,60.5,29.85,NNE,25,1.0,6.0,96,0.00,,---,0.09,VWS V14.00,2013-04-02 11:43:00,
2013-04-02 06:44:00,61.6,60.5,29.85,NNE,30,2.0,6.0,96,0.00,,---,0.09,VWS V14.00,2013-04-02 11:44:00,
2013-04-02 06:45:00,61.6,60.5,29.85,NNE,16,6.0,6.0,96,0.00,,---,0.09,VWS V14.00,2013-04-02 11:45:00,
2013-04-02 06:46:00,61.7,60.5,29.85,NE,40,5.0,7.0,96,0.00,,---,0.09,VWS V14.00,2013-04-02 11:46:00,
2013-04-02 06:47:00,61.7,60.5,29.85,NNE,22,3.0,7.0,96,0.00,,---,0.09,VWS V14.00,2013-04-02 11:47:00,
2013-04-02 06:48:00,61.7,60.5,29.85,NNE,32,3.0,7.0,96,0.00,,---,0.09,VWS V14.00,2013-04-02 11:48:00,
2013-04-02 06:49:00,61.6,60.5,29.84,NNE,33,2.0,7.0,96,0.00,,---,0.09,VWS V14.00,2013-04-02 11:49:00,
2013-04-02 06:52:00,61.6,60.5,29.84,NNE,14,5.0,8.0,96,0.00,,---,0.09,VWS V14.00,2013-04-02 11:52:00,
2013-04-02 06:53:00,61.6,60.5,29.84,NE,42,2.0,8.0,96,0.00,,---,0.09,VWS V14.00,2013-04-02 11:53:00,
2013-04-02 06:54:00,61.6,60.5,29.84,North,10,5.0,8.0,96,0.00,,---,0.10,VWS V14.00,2013-04-02 11:54:00,
2013-04-02 06:55:00,61.6,60.5,29.85,NNE,25,2.0,8.0,96,0.00,,---,0.10,VWS V14.00,2013-04-02 11:55:00,
2013-04-02 06:56:00,61.6,60.5,29.85,NNE,24,4.0,8.0,96,0.00,,---,0.10,VWS V14.00,2013-04-02 11:56:00,
2013-04-02 06:58:00,61.6,60.5,29.85,North,5,1.0,8.0,96,0.00,,---,0.10,VWS V14.00,2013-04-02 11:58:00,
2013-04-02 06:59:00,61.6,60.5,29.85,North,5,0.0,8.0,96,0.00,,---,0.10,VWS V14.00,2013-04-02 11:59:00,
2013-04-02 07:00:00,61.6,60.5,29.85,North,5,3.0,8.0,96,0.00,,---,0.10,VWS V14.00,2013-04-02 12:00:00,
2013-04-02 07:01:00,61.6,60.5,29.85,NNE,22,3.0,5.0,96,0.00,,---,0.10,VWS V14.00,2013-04-02 12:01:00,
2013-04-02 07:02:00,61.6,60.5,29.85,NNE,17,5.0,5.0,96,0.00,,---,0.10,VWS V14.00,2013-04-02 12:02:00,
2013-04-02 07:03:00,61.6,60.5,29.85,NNE,16,2.0,5.0,96,0.00,,---,0.10,VWS V14.00,2013-04-02 12:03:00,
2013-04-02 07:04:00,61.6,60.5,29.85,NNE,17,3.0,5.0,96,0.00,,---,0.10,VWS V14.00,2013-04-02 12:04:00,
2013-04-02 07:05:00,61.6,60.5,29.85,NE,42,3.0,5.0,96,0.00,,---,0.10,VWS V14.00,2013-04-02 12:05:00,
2013-04-02 07:06:00,61.6,60.5,29.85,NE,35,3.0,5.0,96,0.00,,---,0.10,VWS V14.00,2013-04-02 12:06:00,
2013-04-02 07:07:00,61.6,60.5,29.85,NNE,13,4.0,6.0,96,0.00,,---,0.10,VWS V14.00,2013-04-02 12:07:00,
2013-04-02 07:08:00,61.6,60.5,29.85,NNE,26,2.0,6.0,96,0.00,,---,0.10,VWS V14.00,2013-04-02 12:08:00,
2013-04-02 07:09:00,61.5,60.3,29.85,NNE,26,3.0,6.0,96,0.00,,---,0.10,VWS V14.00,2013-04-02 12:09:00,
2013-04-02 07:10:00,61.6,60.5,29.85,NNE,27,2.0,6.0,96,0.00,,---,0.10,VWS V14.00,2013-04-02 12:10:00,
2013-04-02 07:11:00,61.5,60.3,29.85,NNE,28,0.0,6.0,96,0.00,,---,0.10,VWS V14.00,2013-04-02 12:11:00,
2013-04-02 07:12:00,61.5,60.3,29.85,NNE,28,0.0,6.0,96,0.00,,---,0.10,VWS V14.00,2013-04-02 12:12:00,
2013-04-02 07:13:00,61.5,60.3,29.85,NNE,30,2.0,6.0,96,0.00,,---,0.10,VWS V14.00,2013-04-02 12:13:00,
2013-04-02 07:14:00,61.5,60.3,29.86,NNE,28,2.0,6.0,96,0.00,,---,0.10,VWS V14.00,2013-04-02 12:14:00,
2013-04-02 07:15:00,61.5,60.3,29.86,NNE,28,2.0,6.0,96,0.00,,---,0.10,VWS V14.00,2013-04-02 12:15:00,
2013-04-02 07:16:00,61.5,60.3,29.86,NNE,28,3.0,6.0,96,0.00,,---,0.10,VWS V14.00,2013-04-02 12:16:00,
2013-04-02 07:17:00,61.5,60.6,29.86,NNE,28,3.0,6.0,97,0.00,,---,0.10,VWS V14.00,2013-04-02 12:17:00,
2013-04-02 07:19:00,61.6,60.7,29.86,NNE,28,1.0,6.0,97,0.00,,---,0.10,VWS V14.00,2013-04-02 12:19:00,
2013-04-02 07:21:00,61.6,60.7,29.85,NNE,28,1.0,6.0,97,0.00,,---,0.10,VWS V14.00,2013-04-02 12:21:00,
2013-04-02 07:22:00,61.6,60.7,29.85,NNE,28,2.0,6.0,97,0.00,,---,0.10,VWS V14.00,2013-04-02 12:22:00,
2013-04-02 07:23:00,55.7,54.0,30.07,North,360,0.0,1.0,94,0.00,,---,0.00,VWS V14.00,2013-04-02 12:23:00,
2013-04-02 07:30:00,61.6,60.7,29.85,NNE,26,0.0,6.0,97,0.00,,---,0.10,VWS V14.00,2013-04-02 12:30:00,
2013-04-02 07:33:00,61.6,60.7,29.85,NNE,26,0.0,2.0,97,0.00,,---,0.10,VWS V14.00,2013-04-02 12:33:00,
2013-04-02 07:34:00,61.6,60.7,29.85,NNE,26,2.0,3.0,97,0.00,,---,0.10,VWS V14.00,2013-04-02 12:34:00,
2013-04-02 07:35:00,61.6,60.7,29.85,NNE,26,0.0,3.0,97,0.00,,---,0.10,VWS V14.00,2013-04-02 12:35:00,
2013-04-02 07:36:00,61.6,60.7,29.85,NNE,26,1.0,3.0,97,0.00,,---,0.10,VWS V14.00,2013-04-02 12:36:00,
2013-04-02 07:37:00,61.6,60.7,29.85,NNE,25,2.0,3.0,97,0.00,,---,0.10,VWS V14.00,2013-04-02 12:37:00,
2013-04-02 07:38:00,61.6,60.7,29.85,NNE,26,0.0,3.0,97,0.00,,---,0.10,VWS V14.00,2013-04-02 12:38:00,
2013-04-02 07:39:00,61.6,60.7,29.85,NNE,26,0.0,3.0,97,0.00,,---,0.10,VWS V14.00,2013-04-02 12:39:00,
2013-04-02 07:40:00,61.6,60.7,29.85,NNE,26,0.0,3.0,97,0.00,,---,0.10,VWS V14.00,2013-04-02 12:40:00,
2013-04-02 07:41:00,61.6,60.7,29.85,NNE,26,0.0,3.0,97,0.00,,---,0.10,VWS V14.00,2013-04-02 12:41:00,
2013-04-02 07:43:00,61.5,60.6,29.85,NNE,26,1.0,3.0,97,0.00,,---,0.10,VWS V14.00,2013-04-02 12:43:00,
2013-04-02 07:44:00,61.5,60.6,29.85,NNE,25,0.0,3.0,97,0.00,,---,0.10,VWS V14.00,2013-04-02 12:44:00,
2013-04-02 07:45:00,61.5,60.6,29.85,NNE,27,2.0,3.0,97,0.00,,---,0.10,VWS V14.00,2013-04-02 12:45:00,
2013-04-02 07:46:00,61.5,60.6,29.85,NNE,27,1.0,3.0,97,0.00,,---,0.10,VWS V14.00,2013-04-02 12:46:00,
2013-04-02 07:47:00,61.5,60.6,29.85,NNE,28,2.0,3.0,97,0.00,,---,0.10,VWS V14.00,2013-04-02 12:47:00,
2013-04-02 07:48:00,61.5,60.6,29.85,NNE,28,0.0,3.0,97,0.00,,---,0.10,VWS V14.00,2013-04-02 12:48:00,
2013-04-02 07:49:00,61.5,60.6,29.85,NNE,28,2.0,3.0,97,0.00,,---,0.10,VWS V14.00,2013-04-02 12:49:00,
2013-04-02 07:50:00,61.6,60.7,29.85,NNE,28,2.0,3.0,97,0.00,,---,0.10,VWS V14.00,2013-04-02 12:50:00,
2013-04-02 07:51:00,61.5,60.6,29.85,NNE,28,0.0,3.0,97,0.00,,---,0.10,VWS V14.00,2013-04-02 12:51:00,
2013-04-02 07:52:00,61.5,60.6,29.85,NNE,28,0.0,3.0,97,0.00,,---,0.10,VWS V14.00,2013-04-02 12:52:00,
2013-04-02 07:53:00,61.5,60.6,29.85,NNE,28,0.0,3.0,97,0.00,,---,0.10,VWS V14.00,2013-04-02 12:53:00,
2013-04-02 07:54:00,61.5,60.6,29.85,NNE,28,0.0,3.0,97,0.00,,---,0.10,VWS V14.00,2013-04-02 12:54:00,
2013-04-02 07:55:00,61.5,60.6,29.85,NNE,28,0.0,3.0,97,0.00,,---,0.11,VWS V14.00,2013-04-02 12:55:00,
2013-04-02 07:56:00,61.5,60.6,29.85,NNE,28,2.0,3.0,97,0.00,,---,0.11,VWS V14.00,2013-04-02 12:56:00,
2013-04-02 07:57:00,61.5,60.6,29.85,NNE,28,0.0,3.0,97,0.00,,---,0.11,VWS V14.00,2013-04-02 12:57:00,
2013-04-02 07:58:00,61.5,60.6,29.85,NNE,28,3.0,3.0,97,0.00,,---,0.11,VWS V14.00,2013-04-02 12:58:00,
2013-04-02 08:00:00,61.5,60.6,29.85,NNE,28,0.0,3.0,97,0.00,,---,0.11,VWS V14.00,2013-04-02 13:00:00,
2013-04-02 08:01:00,61.5,60.6,29.85,NNE,28,1.0,1.0,97,0.00,,---,0.11,VWS V14.00,2013-04-02 13:01:00,
2013-04-02 08:02:00,61.5,60.6,29.85,NNE,28,1.0,1.0,97,0.00,,---,0.11,VWS V14.00,2013-04-02 13:02:00,
2013-04-02 08:03:00,61.5,60.6,29.85,NNE,33,2.0,4.0,97,0.00,,---,0.11,VWS V14.00,2013-04-02 13:03:00,
2013-04-02 08:04:00,61.5,60.6,29.85,NNE,33,0.0,4.0,97,0.00,,---,0.11,VWS V14.00,2013-04-02 13:04:00,
2013-04-02 08:05:00,61.5,60.6,29.85,NNE,33,0.0,4.0,97,0.00,,---,0.11,VWS V14.00,2013-04-02 13:05:00,
2013-04-02 08:06:00,61.5,60.6,29.85,NNE,33,0.0,4.0,97,0.00,,---,0.11,VWS V14.00,2013-04-02 13:06:00,
2013-04-02 08:07:00,61.5,60.6,29.85,NNE,33,0.0,4.0,97,0.00,,---,0.11,VWS V14.00,2013-04-02 13:07:00,
2013-04-02 08:08:00,61.5,60.6,29.85,NNE,33,0.0,4.0,97,0.00,,---,0.11,VWS V14.00,2013-04-02 13:08:00,
2013-04-02 08:09:00,61.5,60.6,29.85,NNE,33,3.0,4.0,97,0.00,,---,0.11,VWS V14.00,2013-04-02 13:09:00,
2013-04-02 08:10:00,61.5,60.6,29.85,NNE,33,0.0,4.0,97,0.00,,---,0.11,VWS V14.00,2013-04-02 13:10:00,
2013-04-02 08:11:00,61.5,60.6,29.84,NNE,33,1.0,4.0,97,0.00,,---,0.11,VWS V14.00,2013-04-02 13:11:00,
2013-04-02 08:12:00,61.5,60.6,29.85,NNE,33,1.0,4.0,97,0.00,,---,0.11,VWS V14.00,2013-04-02 13:12:00,
2013-04-02 08:13:00,61.5,60.6,29.84,NNE,33,0.0,4.0,97,0.00,,---,0.11,VWS V14.00,2013-04-02 13:13:00,
2013-04-02 08:14:00,61.5,60.6,29.85,NNE,33,0.0,4.0,97,0.00,,---,0.11,VWS V14.00,2013-04-02 13:14:00,
2013-04-02 08:15:00,61.6,60.7,29.85,NNE,33,1.0,4.0,97,0.00,,---,0.11,VWS V14.00,2013-04-02 13:15:00,
2013-04-02 08:17:00,61.6,60.7,29.85,NNE,33,0.0,4.0,97,0.00,,---,0.11,VWS V14.00,2013-04-02 13:17:00,
2013-04-02 08:18:00,61.6,60.7,29.85,NNE,33,0.0,4.0,97,0.00,,---,0.11,VWS V14.00,2013-04-02 13:18:00,
2013-04-02 08:19:00,61.6,60.7,29.85,NNE,33,1.0,4.0,97,0.00,,---,0.11,VWS V14.00,2013-04-02 13:19:00,
2013-04-02 08:20:00,61.6,60.7,29.84,NNE,33,0.0,4.0,97,0.00,,---,0.11,VWS V14.00,2013-04-02 13:20:00,
2013-04-02 08:21:00,61.6,60.7,29.84,NNE,33,0.0,4.0,97,0.00,,---,0.11,VWS V14.00,2013-04-02 13:21:00,
2013-04-02 08:22:00,61.6,60.7,29.84,NNE,33,0.0,4.0,97,0.00,,---,0.11,VWS V14.00,2013-04-02 13:22:00,
2013-04-02 08:23:00,61.6,60.7,29.84,NNE,33,0.0,4.0,97,0.00,,---,0.11,VWS V14.00,2013-04-02 13:23:00,
2013-04-02 08:24:00,61.6,60.7,29.84,NNE,33,0.0,4.0,97,0.00,,---,0.11,VWS V14.00,2013-04-02 13:24:00,
2013-04-02 08:25:00,61.7,60.8,29.85,NNE,33,0.0,4.0,97,0.00,,---,0.11,VWS V14.00,2013-04-02 13:25:00,
2013-04-02 08:26:00,61.7,60.8,29.84,NNE,33,0.0,4.0,97,0.00,,---,0.11,VWS V14.00,2013-04-02 13:26:00,
2013-04-02 08:27:00,61.7,60.8,29.84,NNE,33,1.0,4.0,97,0.00,,---,0.11,VWS V14.00,2013-04-02 13:27:00,
2013-04-02 08:28:00,61.7,60.8,29.84,NNE,33,0.0,4.0,97,0.00,,---,0.11,VWS V14.00,2013-04-02 13:28:00,
2013-04-02 08:29:00,61.7,60.8,29.84,NNE,33,0.0,4.0,97,0.00,,---,0.11,VWS V14.00,2013-04-02 13:29:00,
2013-04-02 08:30:00,61.7,60.8,29.84,NNE,33,0.0,4.0,97,0.00,,---,0.11,VWS V14.00,2013-04-02 13:30:00,
2013-04-02 08:31:00,61.8,60.9,29.84,NNE,33,0.0,2.0,97,0.00,,---,0.11,VWS V14.00,2013-04-02 13:31:00,
2013-04-02 08:32:00,61.8,60.9,29.84,NE,35,1.0,2.0,97,0.00,,---,0.11,VWS V14.00,2013-04-02 13:32:00,
2013-04-02 08:33:00,61.8,60.9,29.84,NE,35,0.0,2.0,97,0.00,,---,0.11,VWS V14.00,2013-04-02 13:33:00,
2013-04-02 08:34:00,61.8,60.9,29.85,NE,35,0.0,2.0,97,0.00,,---,0.11,VWS V14.00,2013-04-02 13:34:00,
2013-04-02 08:35:00,61.9,61.0,29.85,NE,35,0.0,2.0,97,0.00,,---,0.11,VWS V14.00,2013-04-02 13:35:00,
2013-04-02 08:36:00,61.9,61.0,29.85,NE,35,0.0,2.0,97,0.00,,---,0.11,VWS V14.00,2013-04-02 13:36:00,
2013-04-02 08:37:00,61.9,61.0,29.85,NE,35,0.0,2.0,97,0.00,,---,0.11,VWS V14.00,2013-04-02 13:37:00,
2013-04-02 08:39:00,61.9,61.0,29.85,NE,35,0.0,2.0,97,0.00,,---,0.11,VWS V14.00,2013-04-02 13:39:00,
2013-04-02 08:41:00,62.0,61.1,29.85,NE,35,0.0,2.0,97,0.00,,---,0.11,VWS V14.00,2013-04-02 13:41:00,
2013-04-02 08:42:00,62.0,61.1,29.85,NE,35,0.0,2.0,97,0.00,,---,0.11,VWS V14.00,2013-04-02 13:42:00,
2013-04-02 08:43:00,62.0,61.1,29.85,NE,35,0.0,2.0,97,0.00,,---,0.11,VWS V14.00,2013-04-02 13:43:00,
2013-04-02 08:44:00,62.0,61.1,29.85,NE,36,1.0,2.0,97,0.00,,---,0.11,VWS V14.00,2013-04-02 13:44:00,
2013-04-02 08:45:00,62.0,61.1,29.85,NE,36,0.0,2.0,97,0.00,,---,0.11,VWS V14.00,2013-04-02 13:45:00,
2013-04-02 08:46:00,62.0,61.1,29.84,NE,36,0.0,2.0,97,0.00,,---,0.11,VWS V14.00,2013-04-02 13:46:00,
2013-04-02 08:47:00,62.0,61.1,29.84,NE,36,0.0,2.0,97,0.00,,---,0.11,VWS V14.00,2013-04-02 13:47:00,
2013-04-02 08:48:00,62.0,61.1,29.84,NE,36,0.0,2.0,97,0.00,,---,0.11,VWS V14.00,2013-04-02 13:48:00,
2013-04-02 08:49:00,62.1,61.2,29.84,ENE,63,1.0,3.0,97,0.00,,---,0.11,VWS V14.00,2013-04-02 13:49:00,
2013-04-02 08:51:00,62.1,61.2,29.84,ENE,63,0.0,3.0,97,0.00,,---,0.12,VWS V14.00,2013-04-02 13:51:00,
2013-04-02 08:52:00,62.1,61.2,29.84,ENE,63,0.0,3.0,97,0.00,,---,0.12,VWS V14.00,2013-04-02 13:52:00,
2013-04-02 08:53:00,62.1,61.2,29.84,ENE,63,2.0,3.0,97,0.00,,---,0.12,VWS V14.00,2013-04-02 13:53:00,
2013-04-02 08:54:00,62.1,61.2,29.84,ENE,63,0.0,3.0,97,0.00,,---,0.12,VWS V14.00,2013-04-02 13:54:00,
2013-04-02 08:55:00,62.2,61.3,29.84,ENE,63,1.0,3.0,97,0.00,,---,0.12,VWS V14.00,2013-04-02 13:55:00,
2013-04-02 08:56:00,62.2,61.3,29.84,ENE,63,0.0,3.0,97,0.00,,---,0.12,VWS V14.00,2013-04-02 13:56:00,
2013-04-02 08:58:00,62.2,61.3,29.84,ENE,63,0.0,3.0,97,0.00,,---,0.12,VWS V14.00,2013-04-02 13:58:00,
2013-04-02 08:59:00,62.2,61.3,29.84,ENE,63,0.0,3.0,97,0.00,,---,0.12,VWS V14.00,2013-04-02 13:59:00,
2013-04-02 09:00:00,62.2,61.3,29.84,ENE,63,0.0,3.0,97,0.00,,---,0.12,VWS V14.00,2013-04-02 14:00:00,
2013-04-02 09:01:00,62.2,61.3,29.85,ENE,63,0.0,0.0,97,0.00,,---,0.12,VWS V14.00,2013-04-02 14:01:00,
2013-04-02 09:02:00,62.2,61.3,29.85,ENE,63,0.0,1.0,97,0.00,,---,0.12,VWS V14.00,2013-04-02 14:02:00,
2013-04-02 09:03:00,62.2,61.3,29.85,ENE,63,0.0,1.0,97,0.00,,---,0.12,VWS V14.00,2013-04-02 14:03:00,
2013-04-02 09:04:00,62.2,61.3,29.85,ENE,63,0.0,1.0,97,0.00,,---,0.12,VWS V14.00,2013-04-02 14:04:00,
2013-04-02 09:06:00,62.2,61.3,29.85,ENE,63,0.0,1.0,97,0.00,,---,0.12,VWS V14.00,2013-04-02 14:06:00,
2013-04-02 09:07:00,62.2,61.3,29.85,ENE,63,0.0,1.0,97,0.00,,---,0.12,VWS V14.00,2013-04-02 14:07:00,
2013-04-02 09:08:00,62.2,61.3,29.86,ENE,63,0.0,1.0,97,0.00,,---,0.12,VWS V14.00,2013-04-02 14:08:00,
2013-04-02 09:11:00,62.2,61.3,29.85,ENE,63,0.0,1.0,97,0.00,,---,0.12,VWS V14.00,2013-04-02 14:11:00,
2013-04-02 09:12:00,62.2,61.3,29.86,ENE,63,0.0,1.0,97,0.00,,---,0.12,VWS V14.00,2013-04-02 14:12:00,
2013-04-02 09:13:00,62.2,61.3,29.86,ENE,63,0.0,1.0,97,0.00,,---,0.12,VWS V14.00,2013-04-02 14:13:00,
2013-04-02 09:14:00,62.2,61.3,29.86,ENE,63,0.0,1.0,97,0.00,,---,0.12,VWS V14.00,2013-04-02 14:14:00,
2013-04-02 09:15:00,62.2,61.3,29.86,ENE,63,0.0,1.0,97,0.00,,---,0.12,VWS V14.00,2013-04-02 14:15:00,
2013-04-02 09:16:00,62.2,61.3,29.86,ENE,63,0.0,1.0,97,0.00,,---,0.12,VWS V14.00,2013-04-02 14:16:00,
2013-04-02 09:17:00,62.2,61.3,29.86,ENE,63,1.0,1.0,97,0.00,,---,0.12,VWS V14.00,2013-04-02 14:17:00,
2013-04-02 09:18:00,62.2,61.3,29.86,ENE,63,1.0,2.0,97,0.00,,---,0.12,VWS V14.00,2013-04-02 14:18:00,
2013-04-02 09:19:00,62.3,61.4,29.86,ENE,63,0.0,2.0,97,0.00,,---,0.12,VWS V14.00,2013-04-02 14:19:00,
2013-04-02 09:21:00,62.3,61.4,29.86,ENE,63,0.0,2.0,97,0.00,,---,0.12,VWS V14.00,2013-04-02 14:21:00,
2013-04-02 09:22:00,62.3,61.4,29.86,ENE,63,0.0,2.0,97,0.00,,---,0.12,VWS V14.00,2013-04-02 14:22:00,
2013-04-02 09:23:00,62.3,61.4,29.86,ENE,63,0.0,2.0,97,0.00,,---,0.12,VWS V14.00,2013-04-02 14:23:00,
2013-04-02 09:24:00,62.3,61.4,29.86,ENE,63,0.0,2.0,97,0.00,,---,0.12,VWS V14.00,2013-04-02 14:24:00,
2013-04-02 09:25:00,62.3,61.4,29.86,ENE,63,0.0,2.0,97,0.00,,---,0.12,VWS V14.00,2013-04-02 14:25:00,
2013-04-02 09:26:00,62.3,61.4,29.86,ENE,63,0.0,2.0,97,0.00,,---,0.12,VWS V14.00,2013-04-02 14:26:00,
2013-04-02 09:27:00,62.3,61.4,29.86,ENE,63,0.0,2.0,97,0.00,,---,0.12,VWS V14.00,2013-04-02 14:27:00,
2013-04-02 09:28:00,62.3,61.4,29.86,ENE,63,0.0,2.0,97,0.00,,---,0.12,VWS V14.00,2013-04-02 14:28:00,
2013-04-02 09:29:00,62.3,61.4,29.86,ENE,63,0.0,2.0,97,0.00,,---,0.12,VWS V14.00,2013-04-02 14:29:00,
2013-04-02 09:30:00,62.3,61.4,29.86,ENE,63,0.0,2.0,97,0.00,,---,0.12,VWS V14.00,2013-04-02 14:30:00,
2013-04-02 09:31:00,62.3,61.4,29.86,ENE,63,0.0,1.0,97,0.00,,---,0.12,VWS V14.00,2013-04-02 14:31:00,
2013-04-02 09:32:00,62.3,61.4,29.86,ENE,63,0.0,1.0,97,0.00,,---,0.12,VWS V14.00,2013-04-02 14:32:00,
2013-04-02 09:33:00,62.3,61.4,29.86,ENE,63,0.0,1.0,97,0.00,,---,0.12,VWS V14.00,2013-04-02 14:33:00,
2013-04-02 09:34:00,62.3,61.4,29.86,ENE,63,0.0,1.0,97,0.00,,---,0.12,VWS V14.00,2013-04-02 14:34:00,
2013-04-02 09:35:00,62.3,61.4,29.86,ENE,63,0.0,1.0,97,0.00,,---,0.12,VWS V14.00,2013-04-02 14:35:00,
2013-04-02 09:36:00,62.3,61.4,29.86,ENE,63,0.0,1.0,97,0.00,,---,0.12,VWS V14.00,2013-04-02 14:36:00,
2013-04-02 09:37:00,62.3,61.4,29.86,ENE,63,0.0,1.0,97,0.00,,---,0.12,VWS V14.00,2013-04-02 14:37:00,
2013-04-02 09:38:00,62.3,61.4,29.86,ENE,63,1.0,1.0,97,0.00,,---,0.12,VWS V14.00,2013-04-02 14:38:00,
2013-04-02 09:41:00,62.3,61.4,29.86,ENE,63,0.0,1.0,97,0.00,,---,0.12,VWS V14.00,2013-04-02 14:41:00,
2013-04-02 09:42:00,62.3,61.4,29.86,ENE,63,0.0,1.0,97,0.00,,---,0.12,VWS V14.00,2013-04-02 14:42:00,
2013-04-02 09:43:00,62.3,61.4,29.86,ENE,63,0.0,1.0,97,0.00,,---,0.12,VWS V14.00,2013-04-02 14:43:00,
2013-04-02 09:44:00,62.3,61.4,29.86,ENE,63,0.0,1.0,97,0.00,,---,0.12,VWS V14.00,2013-04-02 14:44:00,
2013-04-02 09:46:00,62.3,61.4,29.86,ENE,63,0.0,1.0,97,0.00,,---,0.12,VWS V14.00,2013-04-02 14:46:00,
2013-04-02 09:47:00,62.3,61.4,29.86,ENE,63,0.0,1.0,97,0.00,,---,0.12,VWS V14.00,2013-04-02 14:47:00,
2013-04-02 09:48:00,62.3,61.4,29.86,ENE,63,0.0,1.0,97,0.00,,---,0.12,VWS V14.00,2013-04-02 14:48:00,
2013-04-02 09:49:00,62.3,61.4,29.86,ENE,63,0.0,1.0,97,0.00,,---,0.12,VWS V14.00,2013-04-02 14:49:00,
2013-04-02 09:50:00,62.3,61.4,29.86,ENE,63,0.0,1.0,97,0.00,,---,0.12,VWS V14.00,2013-04-02 14:50:00,
2013-04-02 09:51:00,62.3,61.4,29.86,ENE,63,0.0,1.0,97,0.00,,---,0.12,VWS V14.00,2013-04-02 14:51:00,
2013-04-02 09:53:00,62.3,61.4,29.86,ENE,63,0.0,1.0,97,0.00,,---,0.12,VWS V14.00,2013-04-02 14:53:00,
2013-04-02 09:54:00,62.3,61.4,29.87,ENE,63,0.0,1.0,97,0.00,,---,0.12,VWS V14.00,2013-04-02 14:54:00,
2013-04-02 09:55:00,62.3,61.4,29.87,ENE,63,0.0,1.0,97,0.00,,---,0.12,VWS V14.00,2013-04-02 14:55:00,
2013-04-02 09:56:00,62.3,61.4,29.87,ENE,63,0.0,1.0,97,0.00,,---,0.12,VWS V14.00,2013-04-02 14:56:00,
2013-04-02 09:57:00,62.3,61.4,29.87,ENE,63,0.0,1.0,97,0.00,,---,0.12,VWS V14.00,2013-04-02 14:57:00,
2013-04-02 09:58:00,62.3,61.4,29.87,ENE,63,0.0,1.0,97,0.00,,---,0.12,VWS V14.00,2013-04-02 14:58:00,
2013-04-02 09:59:00,62.3,61.4,29.87,ENE,63,0.0,1.0,97,0.00,,---,0.12,VWS V14.00,2013-04-02 14:59:00,
2013-04-02 10:00:00,62.3,61.4,29.87,ENE,63,0.0,1.0,97,0.00,,---,0.13,VWS V14.00,2013-04-02 15:00:00,
2013-04-02 10:01:00,62.3,61.4,29.87,ENE,63,0.0,0.0,97,0.00,,---,0.13,VWS V14.00,2013-04-02 15:01:00,
2013-04-02 10:02:00,62.3,61.4,29.87,ENE,63,0.0,0.0,97,0.00,,---,0.13,VWS V14.00,2013-04-02 15:02:00,
2013-04-02 10:03:00,62.2,61.3,29.88,ENE,63,0.0,0.0,97,0.00,,---,0.13,VWS V14.00,2013-04-02 15:03:00,
2013-04-02 10:04:00,62.2,61.3,29.88,ENE,63,0.0,0.0,97,0.00,,---,0.13,VWS V14.00,2013-04-02 15:04:00,
2013-04-02 10:07:00,62.3,61.4,29.88,ENE,63,0.0,0.0,97,0.00,,---,0.13,VWS V14.00,2013-04-02 15:07:00,
2013-04-02 10:08:00,62.2,61.3,29.88,ENE,63,0.0,0.0,97,0.00,,---,0.13,VWS V14.00,2013-04-02 15:08:00,
2013-04-02 10:09:00,62.2,61.3,29.88,ENE,63,0.0,0.0,97,0.00,,---,0.13,VWS V14.00,2013-04-02 15:09:00,
2013-04-02 10:10:00,62.2,61.3,29.89,ENE,63,0.0,0.0,97,0.00,,---,0.13,VWS V14.00,2013-04-02 15:10:00,
2013-04-02 10:11:00,62.2,61.3,29.89,ENE,63,0.0,0.0,97,0.00,,---,0.13,VWS V14.00,2013-04-02 15:11:00,
2013-04-02 10:12:00,62.2,61.3,29.89,ENE,63,0.0,0.0,97,0.00,,---,0.13,VWS V14.00,2013-04-02 15:12:00,
2013-04-02 10:13:00,62.2,61.3,29.89,ENE,63,0.0,0.0,97,0.00,,---,0.13,VWS V14.00,2013-04-02 15:13:00,
2013-04-02 10:14:00,62.2,61.3,29.89,ENE,63,0.0,0.0,97,0.00,,---,0.13,VWS V14.00,2013-04-02 15:14:00,
2013-04-02 10:15:00,62.2,61.3,29.89,ENE,63,0.0,0.0,97,0.00,,---,0.13,VWS V14.00,2013-04-02 15:15:00,
2013-04-02 10:16:00,62.2,61.3,29.89,ENE,63,0.0,0.0,97,0.00,,---,0.13,VWS V14.00,2013-04-02 15:16:00,
2013-04-02 10:17:00,62.2,61.3,29.89,ENE,63,0.0,0.0,97,0.00,,---,0.13,VWS V14.00,2013-04-02 15:17:00,
2013-04-02 10:18:00,62.2,61.3,29.89,ENE,63,0.0,0.0,97,0.00,,---,0.13,VWS V14.00,2013-04-02 15:18:00,
2013-04-02 10:19:00,62.2,61.3,29.89,ENE,63,0.0,0.0,97,0.00,,---,0.13,VWS V14.00,2013-04-02 15:19:00,
2013-04-02 10:20:00,62.2,61.3,29.89,ENE,63,0.0,0.0,97,0.00,,---,0.13,VWS V14.00,2013-04-02 15:20:00,
2013-04-02 10:21:00,62.2,61.3,29.89,ENE,63,0.0,0.0,97,0.00,,---,0.13,VWS V14.00,2013-04-02 15:21:00,
2013-04-02 10:22:00,62.2,61.3,29.89,ENE,63,0.0,0.0,97,0.00,,---,0.13,VWS V14.00,2013-04-02 15:22:00,
2013-04-02 10:23:00,62.2,61.3,29.89,ENE,63,0.0,0.0,97,0.00,,---,0.13,VWS V14.00,2013-04-02 15:23:00,
2013-04-02 10:24:00,62.2,61.3,29.89,ENE,63,0.0,0.0,97,0.00,,---,0.13,VWS V14.00,2013-04-02 15:24:00,
2013-04-02 10:25:00,62.3,61.4,29.89,ENE,63,0.0,0.0,97,0.00,,---,0.13,VWS V14.00,2013-04-02 15:25:00,
2013-04-02 10:26:00,62.2,61.3,29.89,ENE,63,0.0,0.0,97,0.00,,---,0.13,VWS V14.00,2013-04-02 15:26:00,
2013-04-02 10:27:00,62.2,61.3,29.89,ENE,63,0.0,0.0,97,0.00,,---,0.13,VWS V14.00,2013-04-02 15:27:00,
2013-04-02 10:28:00,62.2,61.3,29.89,ENE,63,0.0,0.0,97,0.00,,---,0.13,VWS V14.00,2013-04-02 15:28:00,
2013-04-02 10:29:00,62.2,61.3,29.89,ENE,63,0.0,0.0,97,0.00,,---,0.13,VWS V14.00,2013-04-02 15:29:00,
2013-04-02 10:30:00,62.2,61.3,29.89,ENE,63,0.0,0.0,97,0.00,,---,0.13,VWS V14.00,2013-04-02 15:30:00,
2013-04-02 10:31:00,62.2,61.3,29.89,ENE,63,0.0,0.0,97,0.00,,---,0.13,VWS V14.00,2013-04-02 15:31:00,
2013-04-02 10:32:00,62.2,61.3,29.89,ENE,63,0.0,0.0,97,0.00,,---,0.13,VWS V14.00,2013-04-02 15:32:00,
2013-04-02 10:33:00,62.2,61.3,29.90,ENE,63,0.0,0.0,97,0.00,,---,0.13,VWS V14.00,2013-04-02 15:33:00,
2013-04-02 10:34:00,62.2,61.3,29.89,ENE,63,0.0,0.0,97,0.00,,---,0.13,VWS V14.00,2013-04-02 15:34:00,
2013-04-02 10:35:00,62.2,61.3,29.89,ENE,63,0.0,0.0,97,0.00,,---,0.13,VWS V14.00,2013-04-02 15:35:00,
2013-04-02 10:36:00,62.2,61.3,29.89,ENE,63,0.0,0.0,97,0.00,,---,0.13,VWS V14.00,2013-04-02 15:36:00,
2013-04-02 10:39:00,62.2,61.3,29.89,ENE,63,0.0,0.0,97,0.00,,---,0.13,VWS V14.00,2013-04-02 15:39:00,
2013-04-02 10:40:00,62.2,61.3,29.90,ENE,63,0.0,0.0,97,0.00,,---,0.13,VWS V14.00,2013-04-02 15:40:00,
2013-04-02 10:41:00,62.2,61.3,29.89,ENE,63,0.0,0.0,97,0.00,,---,0.13,VWS V14.00,2013-04-02 15:41:00,
2013-04-02 10:42:00,62.2,61.3,29.90,ENE,63,0.0,0.0,97,0.00,,---,0.13,VWS V14.00,2013-04-02 15:42:00,
2013-04-02 10:43:00,62.2,61.3,29.90,ENE,63,0.0,0.0,97,0.00,,---,0.13,VWS V14.00,2013-04-02 15:43:00,
2013-04-02 10:44:00,62.2,61.3,29.90,ENE,63,0.0,0.0,97,0.00,,---,0.13,VWS V14.00,2013-04-02 15:44:00,
2013-04-02 10:45:00,62.2,61.3,29.90,ENE,63,0.0,0.0,97,0.00,,---,0.13,VWS V14.00,2013-04-02 15:45:00,
2013-04-02 10:46:00,62.2,61.3,29.90,ENE,63,0.0,0.0,97,0.00,,---,0.13,VWS V14.00,2013-04-02 15:46:00,
2013-04-02 10:47:00,62.3,61.4,29.90,ENE,63,0.0,0.0,97,0.00,,---,0.13,VWS V14.00,2013-04-02 15:47:00,
2013-04-02 10:48:00,62.3,61.4,29.90,ENE,63,0.0,0.0,97,0.00,,---,0.13,VWS V14.00,2013-04-02 15:48:00,
2013-04-02 10:49:00,62.3,61.4,29.90,ENE,63,0.0,0.0,97,0.00,,---,0.13,VWS V14.00,2013-04-02 15:49:00,
2013-04-02 10:50:00,62.3,61.7,29.90,ENE,63,0.0,0.0,98,0.00,,---,0.13,VWS V14.00,2013-04-02 15:50:00,
2013-04-02 10:51:00,62.3,61.7,29.90,ENE,63,0.0,0.0,98,0.00,,---,0.13,VWS V14.00,2013-04-02 15:51:00,
2013-04-02 10:52:00,62.3,61.7,29.90,ENE,63,0.0,0.0,98,0.00,,---,0.13,VWS V14.00,2013-04-02 15:52:00,
2013-04-02 10:53:00,62.3,61.7,29.90,ENE,63,0.0,0.0,98,0.00,,---,0.13,VWS V14.00,2013-04-02 15:53:00,
2013-04-02 10:54:00,62.3,61.4,29.90,ENE,63,0.0,1.0,97,0.00,,---,0.13,VWS V14.00,2013-04-02 15:54:00,
2013-04-02 10:55:00,62.4,61.5,29.90,ENE,63,1.0,1.0,97,0.00,,---,0.13,VWS V14.00,2013-04-02 15:55:00,
2013-04-02 10:56:00,62.4,61.5,29.90,ENE,63,2.0,2.0,97,0.00,,---,0.13,VWS V14.00,2013-04-02 15:56:00,
2013-04-02 10:57:00,62.4,61.8,29.90,ENE,63,1.0,3.0,98,0.00,,---,0.13,VWS V14.00,2013-04-02 15:57:00,
2013-04-02 10:58:00,62.4,61.8,29.90,ENE,63,0.0,3.0,98,0.00,,---,0.13,VWS V14.00,2013-04-02 15:58:00,
2013-04-02 10:59:00,62.4,61.8,29.90,ENE,63,1.0,3.0,98,0.00,,---,0.14,VWS V14.00,2013-04-02 15:59:00,
2013-04-02 11:00:00,62.5,61.9,29.90,ENE,63,0.0,1.0,98,0.00,,---,0.14,VWS V14.00,2013-04-02 16:00:00,
2013-04-02 11:01:00,62.5,61.9,29.90,ENE,63,0.0,1.0,98,0.00,,---,0.14,VWS V14.00,2013-04-02 16:01:00,
2013-04-02 11:02:00,62.5,61.9,29.90,ENE,63,0.0,1.0,98,0.00,,---,0.14,VWS V14.00,2013-04-02 16:02:00,
2013-04-02 11:03:00,62.5,61.9,29.90,ENE,63,1.0,2.0,98,0.00,,---,0.14,VWS V14.00,2013-04-02 16:03:00,
2013-04-02 11:04:00,62.5,61.9,29.90,ENE,63,1.0,2.0,98,0.00,,---,0.14,VWS V14.00,2013-04-02 16:04:00,
2013-04-02 11:05:00,62.5,61.9,29.90,ENE,63,0.0,2.0,98,0.00,,---,0.14,VWS V14.00,2013-04-02 16:05:00,
2013-04-02 11:06:00,62.5,61.6,29.90,ENE,63,0.0,2.0,97,0.00,,---,0.14,VWS V14.00,2013-04-02 16:06:00,
2013-04-02 11:09:00,62.6,61.7,29.90,ENE,63,1.0,2.0,97,0.00,,---,0.14,VWS V14.00,2013-04-02 16:09:00,
2013-04-02 11:11:00,62.6,61.7,29.90,ENE,63,0.0,2.0,97,0.00,,---,0.14,VWS V14.00,2013-04-02 16:11:00,
2013-04-02 11:12:00,62.6,61.7,29.90,ENE,63,1.0,2.0,97,0.00,,---,0.14,VWS V14.00,2013-04-02 16:12:00,
2013-04-02 11:13:00,62.6,61.7,29.90,ENE,63,2.0,2.0,97,0.00,,---,0.14,VWS V14.00,2013-04-02 16:13:00,
2013-04-02 11:14:00,62.6,61.7,29.90,ENE,63,0.0,2.0,97,0.00,,---,0.14,VWS V14.00,2013-04-02 16:14:00,
2013-04-02 11:15:00,62.6,61.7,29.90,ENE,63,0.0,2.0,97,0.00,,---,0.14,VWS V14.00,2013-04-02 16:15:00,
2013-04-02 11:16:00,62.6,61.7,29.90,ENE,63,0.0,2.0,97,0.00,,---,0.14,VWS V14.00,2013-04-02 16:16:00,
2013-04-02 11:17:00,62.7,61.8,29.90,ENE,63,0.0,2.0,97,0.00,,---,0.14,VWS V14.00,2013-04-02 16:17:00,
2013-04-02 11:18:00,62.7,61.8,29.90,ENE,63,0.0,2.0,97,0.00,,---,0.14,VWS V14.00,2013-04-02 16:18:00,
2013-04-02 11:19:00,62.7,62.1,29.90,ENE,63,2.0,2.0,98,0.00,,---,0.14,VWS V14.00,2013-04-02 16:19:00,
2013-04-02 11:20:00,62.7,62.1,29.90,ENE,63,1.0,2.0,98,0.00,,---,0.14,VWS V14.00,2013-04-02 16:20:00,
2013-04-02 11:21:00,62.7,62.1,29.90,ENE,63,0.0,2.0,98,0.00,,---,0.14,VWS V14.00,2013-04-02 16:21:00,
2013-04-02 11:22:00,62.7,62.1,29.90,ENE,63,2.0,3.0,98,0.00,,---,0.14,VWS V14.00,2013-04-02 16:22:00,
2013-04-02 11:23:00,62.7,62.1,29.90,ENE,63,0.0,3.0,98,0.00,,---,0.14,VWS V14.00,2013-04-02 16:23:00,
2013-04-02 11:24:00,62.7,62.1,29.90,ENE,63,0.0,3.0,98,0.00,,---,0.14,VWS V14.00,2013-04-02 16:24:00,
2013-04-02 11:26:00,62.8,62.2,29.90,ENE,63,0.0,3.0,98,0.00,,---,0.14,VWS V14.00,2013-04-02 16:26:00,
2013-04-02 11:28:00,62.8,62.2,29.90,ENE,63,0.0,3.0,98,0.00,,---,0.14,VWS V14.00,2013-04-02 16:28:00,
2013-04-02 11:29:00,62.8,62.2,29.90,ENE,63,0.0,3.0,98,0.00,,---,0.14,VWS V14.00,2013-04-02 16:29:00,
2013-04-02 11:30:00,62.8,62.2,29.90,ENE,63,0.0,0.0,98,0.00,,---,0.14,VWS V14.00,2013-04-02 16:30:00,
2013-04-02 11:32:00,62.8,62.2,29.90,ENE,63,0.0,0.0,98,0.00,,---,0.14,VWS V14.00,2013-04-02 16:32:00,
2013-04-02 11:33:00,62.8,62.2,29.90,ENE,63,0.0,0.0,98,0.00,,---,0.14,VWS V14.00,2013-04-02 16:33:00,
2013-04-02 11:34:00,62.8,62.2,29.90,ENE,63,1.0,2.0,98,0.00,,---,0.14,VWS V14.00,2013-04-02 16:34:00,
2013-04-02 11:36:00,62.9,62.3,29.90,ENE,63,2.0,3.0,98,0.00,,---,0.14,VWS V14.00,2013-04-02 16:36:00,
2013-04-02 11:37:00,62.9,62.3,29.89,ENE,63,1.0,3.0,98,0.00,,---,0.14,VWS V14.00,2013-04-02 16:37:00,
2013-04-02 11:38:00,62.9,62.3,29.89,ENE,63,2.0,3.0,98,0.00,,---,0.14,VWS V14.00,2013-04-02 16:38:00,
2013-04-02 11:39:00,62.9,62.3,29.89,ENE,63,2.0,3.0,98,0.00,,---,0.14,VWS V14.00,2013-04-02 16:39:00,
2013-04-02 11:41:00,63.0,62.4,29.89,ENE,63,3.0,4.0,98,0.00,,---,0.14,VWS V14.00,2013-04-02 16:41:00,
2013-04-02 11:42:00,63.0,62.4,29.89,ENE,63,1.0,4.0,98,0.00,,---,0.14,VWS V14.00,2013-04-02 16:42:00,
2013-04-02 11:43:00,63.0,62.4,29.89,ENE,63,0.0,4.0,98,0.00,,---,0.14,VWS V14.00,2013-04-02 16:43:00,
2013-04-02 11:44:00,63.0,62.4,29.89,ENE,63,1.0,4.0,98,0.00,,---,0.14,VWS V14.00,2013-04-02 16:44:00,
2013-04-02 11:46:00,63.0,62.4,29.89,NE,52,2.0,4.0,98,0.00,,---,0.14,VWS V14.00,2013-04-02 16:46:00,
2013-04-02 11:47:00,63.0,62.4,29.89,NE,52,2.0,4.0,98,0.00,,---,0.14,VWS V14.00,2013-04-02 16:47:00,
2013-04-02 11:48:00,63.1,62.5,29.89,NE,51,1.0,4.0,98,0.00,,---,0.14,VWS V14.00,2013-04-02 16:48:00,
2013-04-02 11:49:00,63.0,62.4,29.89,NE,51,0.0,4.0,98,0.00,,---,0.14,VWS V14.00,2013-04-02 16:49:00,
2013-04-02 11:50:00,63.0,62.1,29.89,NE,51,2.0,4.0,97,0.00,,---,0.14,VWS V14.00,2013-04-02 16:50:00,
2013-04-02 11:51:00,63.0,62.4,29.89,NE,51,0.0,4.0,98,0.00,,---,0.14,VWS V14.00,2013-04-02 16:51:00,
2013-04-02 11:52:00,63.0,62.1,29.89,NE,51,1.0,4.0,97,0.00,,---,0.14,VWS V14.00,2013-04-02 16:52:00,
2013-04-02 11:53:00,63.0,62.1,29.89,NE,51,0.0,4.0,97,0.00,,---,0.14,VWS V14.00,2013-04-02 16:53:00,
2013-04-02 11:56:00,63.0,62.4,29.89,NE,51,0.0,4.0,98,0.00,,---,0.14,VWS V14.00,2013-04-02 16:56:00,
2013-04-02 11:57:00,63.1,62.5,29.89,NE,51,0.0,4.0,98,0.00,,---,0.14,VWS V14.00,2013-04-02 16:57:00,
2013-04-02 11:58:00,63.1,62.5,29.89,NE,51,0.0,4.0,98,0.00,,---,0.14,VWS V14.00,2013-04-02 16:58:00,
2013-04-02 11:59:00,63.1,62.5,29.89,NE,51,3.0,4.0,98,0.00,,---,0.14,VWS V14.00,2013-04-02 16:59:00,
2013-04-02 12:00:00,63.1,62.5,29.89,NE,51,3.0,4.0,98,0.00,,---,0.14,VWS V14.00,2013-04-02 17:00:00,
2013-04-02 12:01:00,63.1,62.5,29.89,NE,51,0.0,3.0,98,0.00,,---,0.14,VWS V14.00,2013-04-02 17:01:00,
2013-04-02 12:02:00,63.1,62.5,29.89,NE,51,2.0,3.0,98,0.00,,---,0.14,VWS V14.00,2013-04-02 17:02:00,
2013-04-02 12:03:00,63.1,62.5,29.89,NE,51,0.0,3.0,98,0.00,,---,0.14,VWS V14.00,2013-04-02 17:03:00,
2013-04-02 12:04:00,63.1,62.5,29.89,NE,51,2.0,3.0,98,0.00,,---,0.14,VWS V14.00,2013-04-02 17:04:00,
2013-04-02 12:05:00,63.1,62.5,29.89,NE,47,4.0,4.0,98,0.00,,---,0.14,VWS V14.00,2013-04-02 17:05:00,
2013-04-02 12:06:00,63.1,62.5,29.89,NE,47,1.0,4.0,98,0.00,,---,0.14,VWS V14.00,2013-04-02 17:06:00,
2013-04-02 12:07:00,63.1,62.5,29.89,NNE,33,1.0,4.0,98,0.00,,---,0.14,VWS V14.00,2013-04-02 17:07:00,
2013-04-02 12:08:00,63.1,62.5,29.89,NNE,33,1.0,4.0,98,0.00,,---,0.14,VWS V14.00,2013-04-02 17:08:00,
2013-04-02 12:09:00,63.2,62.6,29.89,NNE,33,0.0,4.0,98,0.00,,---,0.14,VWS V14.00,2013-04-02 17:09:00,
2013-04-02 12:10:00,63.2,62.6,29.89,NNE,33,1.0,4.0,98,0.00,,---,0.14,VWS V14.00,2013-04-02 17:10:00,
2013-04-02 12:11:00,63.2,62.6,29.89,NNE,33,0.0,4.0,98,0.00,,---,0.15,VWS V14.00,2013-04-02 17:11:00,
2013-04-02 12:13:00,63.2,62.6,29.89,NNE,33,2.0,4.0,98,0.00,,---,0.15,VWS V14.00,2013-04-02 17:13:00,
2013-04-02 12:14:00,63.2,62.6,29.89,NNE,33,2.0,4.0,98,0.00,,---,0.15,VWS V14.00,2013-04-02 17:14:00,
2013-04-02 12:15:00,63.2,62.6,29.89,NNE,33,0.0,4.0,98,0.00,,---,0.15,VWS V14.00,2013-04-02 17:15:00,
2013-04-02 12:16:00,63.2,62.6,29.90,NNE,33,0.0,4.0,98,0.00,,---,0.15,VWS V14.00,2013-04-02 17:16:00,
2013-04-02 12:17:00,63.2,62.6,29.90,NNE,33,0.0,4.0,98,0.00,,---,0.15,VWS V14.00,2013-04-02 17:17:00,
2013-04-02 12:18:00,63.3,62.7,29.90,NNE,33,0.0,4.0,98,0.00,,---,0.15,VWS V14.00,2013-04-02 17:18:00,
2013-04-02 12:19:00,63.3,62.7,29.90,NNE,33,0.0,4.0,98,0.00,,---,0.15,VWS V14.00,2013-04-02 17:19:00,
2013-04-02 12:20:00,63.3,62.7,29.90,NNE,33,0.0,4.0,98,0.00,,---,0.15,VWS V14.00,2013-04-02 17:20:00,
2013-04-02 12:21:00,63.3,62.7,29.90,NNE,33,0.0,4.0,98,0.00,,---,0.15,VWS V14.00,2013-04-02 17:21:00,
2013-04-02 12:22:00,63.4,62.8,29.90,NNE,33,0.0,4.0,98,0.00,,---,0.15,VWS V14.00,2013-04-02 17:22:00,
2013-04-02 12:24:00,63.4,62.8,29.90,NNE,33,0.0,4.0,98,0.00,,---,0.15,VWS V14.00,2013-04-02 17:24:00,
2013-04-02 12:25:00,63.4,62.8,29.90,NNE,33,0.0,4.0,98,0.00,,---,0.15,VWS V14.00,2013-04-02 17:25:00,
2013-04-02 12:26:00,63.5,62.9,29.90,NNE,33,0.0,4.0,98,0.00,,---,0.15,VWS V14.00,2013-04-02 17:26:00,
2013-04-02 12:27:00,63.5,62.9,29.90,NNE,33,2.0,4.0,98,0.00,,---,0.15,VWS V14.00,2013-04-02 17:27:00,
2013-04-02 12:28:00,63.5,62.9,29.90,NNE,33,2.0,4.0,98,0.00,,---,0.15,VWS V14.00,2013-04-02 17:28:00,
2013-04-02 12:29:00,63.6,63.0,29.90,NNE,33,0.0,4.0,98,0.00,,---,0.15,VWS V14.00,2013-04-02 17:29:00,
2013-04-02 12:30:00,63.6,63.0,29.90,NE,36,0.0,4.0,98,0.00,,---,0.15,VWS V14.00,2013-04-02 17:30:00,
2013-04-02 12:31:00,63.6,63.0,29.90,NE,36,0.0,0.0,98,0.00,,---,0.15,VWS V14.00,2013-04-02 17:31:00,
2013-04-02 12:33:00,63.6,63.0,29.90,NE,49,0.0,0.0,98,0.00,,---,0.15,VWS V14.00,2013-04-02 17:33:00,
2013-04-02 12:34:00,63.7,63.1,29.90,NE,49,0.0,0.0,98,0.00,,---,0.15,VWS V14.00,2013-04-02 17:34:00,
2013-04-02 12:35:00,63.7,63.1,29.90,NE,49,0.0,0.0,98,0.00,,---,0.15,VWS V14.00,2013-04-02 17:35:00,
2013-04-02 12:36:00,63.7,63.1,29.90,NE,49,0.0,0.0,98,0.00,,---,0.15,VWS V14.00,2013-04-02 17:36:00,
2013-04-02 12:37:00,63.8,63.2,29.90,NE,49,0.0,0.0,98,0.00,,---,0.15,VWS V14.00,2013-04-02 17:37:00,
2013-04-02 12:38:00,63.8,63.2,29.90,NE,49,0.0,0.0,98,0.00,,---,0.15,VWS V14.00,2013-04-02 17:38:00,
2013-04-02 12:39:00,63.8,63.2,29.90,NE,49,0.0,0.0,98,0.00,,---,0.15,VWS V14.00,2013-04-02 17:39:00,
2013-04-02 12:40:00,63.8,63.2,29.90,NE,49,0.0,0.0,98,0.00,,---,0.15,VWS V14.00,2013-04-02 17:40:00,
2013-04-02 12:41:00,63.9,63.3,29.90,NE,49,0.0,0.0,98,0.00,,---,0.15,VWS V14.00,2013-04-02 17:41:00,
2013-04-02 12:42:00,64.0,63.4,29.90,NE,49,0.0,0.0,98,0.00,,---,0.15,VWS V14.00,2013-04-02 17:42:00,
2013-04-02 12:43:00,64.0,63.4,29.90,NE,49,0.0,0.0,98,0.00,,---,0.15,VWS V14.00,2013-04-02 17:43:00,
2013-04-02 12:44:00,64.0,63.4,29.90,NE,49,2.0,3.0,98,0.00,,---,0.15,VWS V14.00,2013-04-02 17:44:00,
2013-04-02 12:45:00,64.1,63.5,29.90,NE,49,0.0,3.0,98,0.00,,---,0.15,VWS V14.00,2013-04-02 17:45:00,
2013-04-02 12:46:00,64.1,63.5,29.90,NE,49,0.0,3.0,98,0.00,,---,0.15,VWS V14.00,2013-04-02 17:46:00,
2013-04-02 12:47:00,64.1,63.5,29.90,NE,49,2.0,3.0,98,0.00,,---,0.15,VWS V14.00,2013-04-02 17:47:00,
2013-04-02 12:48:00,64.1,63.5,29.90,NE,49,2.0,3.0,98,0.00,,---,0.15,VWS V14.00,2013-04-02 17:48:00,
2013-04-02 12:49:00,64.2,63.6,29.90,NE,49,0.0,3.0,98,0.00,,---,0.15,VWS V14.00,2013-04-02 17:49:00,
2013-04-02 12:50:00,64.2,63.6,29.90,NE,49,0.0,3.0,98,0.00,,---,0.15,VWS V14.00,2013-04-02 17:50:00,
2013-04-02 12:51:00,64.3,63.7,29.90,NE,49,0.0,3.0,98,0.00,,---,0.15,VWS V14.00,2013-04-02 17:51:00,
2013-04-02 12:54:00,64.3,63.7,29.90,NE,49,0.0,3.0,98,0.00,,---,0.15,VWS V14.00,2013-04-02 17:54:00,
2013-04-02 12:55:00,64.3,63.7,29.90,NE,49,0.0,3.0,98,0.00,,---,0.15,VWS V14.00,2013-04-02 17:55:00,
2013-04-02 12:56:00,64.3,63.7,29.90,NE,49,0.0,3.0,98,0.00,,---,0.15,VWS V14.00,2013-04-02 17:56:00,
2013-04-02 12:57:00,64.4,63.8,29.90,NE,49,0.0,3.0,98,0.00,,---,0.15,VWS V14.00,2013-04-02 17:57:00,
2013-04-02 12:58:00,64.5,63.9,29.90,NE,49,1.0,3.0,98,0.00,,---,0.15,VWS V14.00,2013-04-02 17:58:00,
2013-04-02 12:59:00,64.5,63.9,29.90,NE,49,0.0,3.0,98,0.00,,---,0.15,VWS V14.00,2013-04-02 17:59:00,
2013-04-02 13:00:00,64.6,64.0,29.91,NE,49,0.0,0.0,98,0.00,,---,0.15,VWS V14.00,2013-04-02 18:00:00,
2013-04-02 13:01:00,64.7,64.1,29.91,NE,49,0.0,1.0,98,0.00,,---,0.15,VWS V14.00,2013-04-02 18:01:00,
2013-04-02 13:02:00,64.8,64.2,29.91,NE,49,0.0,1.0,98,0.00,,---,0.15,VWS V14.00,2013-04-02 18:02:00,
2013-04-02 13:03:00,64.9,64.3,29.90,NE,49,0.0,1.0,98,0.00,,---,0.15,VWS V14.00,2013-04-02 18:03:00,
2013-04-02 13:04:00,64.9,64.3,29.91,NE,49,0.0,1.0,98,0.00,,---,0.15,VWS V14.00,2013-04-02 18:04:00,
2013-04-02 13:05:00,65.0,64.4,29.90,NE,49,0.0,1.0,98,0.00,,---,0.15,VWS V14.00,2013-04-02 18:05:00,
2013-04-02 13:06:00,65.1,64.5,29.90,NE,49,1.0,2.0,98,0.00,,---,0.15,VWS V14.00,2013-04-02 18:06:00,
2013-04-02 13:07:00,65.2,64.6,29.90,NE,49,0.0,2.0,98,0.00,,---,0.15,VWS V14.00,2013-04-02 18:07:00,
2013-04-02 13:08:00,65.2,64.6,29.90,NE,49,0.0,2.0,98,0.00,,---,0.15,VWS V14.00,2013-04-02 18:08:00,
2013-04-02 13:09:00,65.3,64.7,29.90,NE,49,2.0,2.0,98,0.00,,---,0.15,VWS V14.00,2013-04-02 18:09:00,
2013-04-02 13:10:00,65.3,64.7,29.91,NE,49,2.0,3.0,98,0.00,,---,0.15,VWS V14.00,2013-04-02 18:10:00,
2013-04-02 13:12:00,65.4,64.8,29.91,NE,49,1.0,3.0,98,0.00,,---,0.15,VWS V14.00,2013-04-02 18:12:00,
2013-04-02 13:13:00,65.5,64.9,29.90,NE,49,0.0,3.0,98,0.00,,---,0.15,VWS V14.00,2013-04-02 18:13:00,
2013-04-02 13:14:00,65.5,64.9,29.91,NE,49,0.0,3.0,98,0.00,,---,0.15,VWS V14.00,2013-04-02 18:14:00,
2013-04-02 13:15:00,65.5,64.9,29.91,NE,49,0.0,3.0,98,0.00,,---,0.15,VWS V14.00,2013-04-02 18:15:00,
2013-04-02 13:16:00,65.5,64.9,29.91,NE,49,1.0,3.0,98,0.00,,---,0.15,VWS V14.00,2013-04-02 18:16:00,
2013-04-02 13:17:00,65.5,64.6,29.91,NE,49,0.0,3.0,97,0.00,,---,0.15,VWS V14.00,2013-04-02 18:17:00,
2013-04-02 13:19:00,65.6,64.7,29.91,NE,49,0.0,3.0,97,0.00,,---,0.15,VWS V14.00,2013-04-02 18:19:00,
2013-04-02 13:20:00,65.6,64.7,29.90,NE,49,0.0,3.0,97,0.00,,---,0.15,VWS V14.00,2013-04-02 18:20:00,
2013-04-02 13:21:00,65.6,64.7,29.90,NE,49,0.0,3.0,97,0.00,,---,0.15,VWS V14.00,2013-04-02 18:21:00,
2013-04-02 13:22:00,65.6,64.7,29.90,NE,49,0.0,3.0,97,0.00,,---,0.15,VWS V14.00,2013-04-02 18:22:00,
2013-04-02 13:23:00,65.7,64.8,29.90,NE,49,0.0,3.0,97,0.00,,---,0.15,VWS V14.00,2013-04-02 18:23:00,
2013-04-02 13:24:00,65.7,64.8,29.90,NE,49,0.0,3.0,97,0.00,,---,0.15,VWS V14.00,2013-04-02 18:24:00,
2013-04-02 13:26:00,65.9,65.0,29.91,NE,49,0.0,3.0,97,0.00,,---,0.15,VWS V14.00,2013-04-02 18:26:00,
2013-04-02 13:27:00,65.9,65.0,29.91,NE,49,0.0,3.0,97,0.00,,---,0.15,VWS V14.00,2013-04-02 18:27:00,
2013-04-02 13:28:00,65.9,65.0,29.91,NE,49,0.0,3.0,97,0.00,,---,0.15,VWS V14.00,2013-04-02 18:28:00,
2013-04-02 13:29:00,66.0,65.1,29.91,NE,49,0.0,3.0,97,0.00,,---,0.15,VWS V14.00,2013-04-02 18:29:00,
2013-04-02 13:30:00,66.0,65.1,29.91,NE,49,0.0,0.0,97,0.00,,---,0.15,VWS V14.00,2013-04-02 18:30:00,
2013-04-02 13:31:00,66.1,65.2,29.91,NE,49,0.0,1.0,97,0.00,,---,0.15,VWS V14.00,2013-04-02 18:31:00,
2013-04-02 13:33:00,66.1,65.2,29.91,NE,49,0.0,1.0,97,0.00,,---,0.15,VWS V14.00,2013-04-02 18:33:00,
2013-04-02 13:34:00,66.1,65.2,29.91,NE,49,0.0,1.0,97,0.00,,---,0.15,VWS V14.00,2013-04-02 18:34:00,
2013-04-02 13:35:00,66.1,65.2,29.91,NE,49,0.0,1.0,97,0.00,,---,0.15,VWS V14.00,2013-04-02 18:35:00,
2013-04-02 13:36:00,66.2,65.3,29.91,NE,49,0.0,1.0,97,0.00,,---,0.15,VWS V14.00,2013-04-02 18:36:00,
2013-04-02 13:37:00,66.2,65.3,29.91,NE,49,0.0,1.0,97,0.00,,---,0.15,VWS V14.00,2013-04-02 18:37:00,
2013-04-02 13:38:00,66.2,65.3,29.91,NE,49,0.0,1.0,97,0.00,,---,0.15,VWS V14.00,2013-04-02 18:38:00,
2013-04-02 13:39:00,66.3,65.4,29.91,NE,49,0.0,1.0,97,0.00,,---,0.15,VWS V14.00,2013-04-02 18:39:00,
2013-04-02 13:40:00,66.4,65.5,29.91,NE,49,0.0,1.0,97,0.00,,---,0.15,VWS V14.00,2013-04-02 18:40:00,
2013-04-02 13:41:00,66.5,65.6,29.91,NE,49,0.0,1.0,97,0.00,,---,0.15,VWS V14.00,2013-04-02 18:41:00,
2013-04-02 13:42:00,66.5,65.6,29.91,NE,49,0.0,1.0,97,0.00,,---,0.15,VWS V14.00,2013-04-02 18:42:00,
2013-04-02 13:43:00,66.6,65.7,29.91,NE,49,0.0,1.0,97,0.00,,---,0.15,VWS V14.00,2013-04-02 18:43:00,
2013-04-02 13:44:00,66.6,65.7,29.92,NE,49,0.0,1.0,97,0.00,,---,0.15,VWS V14.00,2013-04-02 18:44:00,
2013-04-02 13:45:00,66.6,65.7,29.92,NE,49,0.0,1.0,97,0.00,,---,0.15,VWS V14.00,2013-04-02 18:45:00,
2013-04-02 13:46:00,66.7,65.8,29.92,NE,49,0.0,1.0,97,0.00,,---,0.15,VWS V14.00,2013-04-02 18:46:00,
2013-04-02 13:47:00,66.7,65.5,29.92,NE,49,0.0,1.0,96,0.00,,---,0.15,VWS V14.00,2013-04-02 18:47:00,
2013-04-02 13:49:00,66.7,65.5,29.92,NE,49,0.0,1.0,96,0.00,,---,0.15,VWS V14.00,2013-04-02 18:49:00,
2013-04-02 13:50:00,66.8,65.6,29.92,NE,49,0.0,1.0,96,0.00,,---,0.16,VWS V14.00,2013-04-02 18:50:00,
2013-04-02 13:51:00,66.8,65.6,29.92,NE,49,0.0,1.0,96,0.00,,---,0.16,VWS V14.00,2013-04-02 18:51:00,
2013-04-02 13:52:00,66.8,65.6,29.92,NE,49,0.0,1.0,96,0.00,,---,0.16,VWS V14.00,2013-04-02 18:52:00,
2013-04-02 13:53:00,66.8,65.6,29.92,NE,49,0.0,1.0,96,0.00,,---,0.16,VWS V14.00,2013-04-02 18:53:00,
2013-04-02 13:54:00,66.9,65.7,29.92,NE,49,0.0,1.0,96,0.00,,---,0.16,VWS V14.00,2013-04-02 18:54:00,
2013-04-02 13:55:00,66.9,65.7,29.92,NNE,16,2.0,3.0,96,0.00,,---,0.16,VWS V14.00,2013-04-02 18:55:00,
2013-04-02 13:56:00,67.0,65.8,29.92,NNE,16,0.0,3.0,96,0.00,,---,0.16,VWS V14.00,2013-04-02 18:56:00,
2013-04-02 13:57:00,67.0,65.8,29.92,NNE,16,0.0,3.0,96,0.00,,---,0.16,VWS V14.00,2013-04-02 18:57:00,
2013-04-02 13:58:00,67.0,65.5,29.92,NNE,16,0.0,3.0,95,0.00,,---,0.16,VWS V14.00,2013-04-02 18:58:00,
2013-04-02 13:59:00,67.0,65.5,29.92,NNE,16,0.0,3.0,95,0.00,,---,0.16,VWS V14.00,2013-04-02 18:59:00,
2013-04-02 14:00:00,67.1,65.6,29.92,NNE,16,0.0,0.0,95,0.00,,---,0.16,VWS V14.00,2013-04-02 19:00:00,
2013-04-02 14:01:00,67.1,65.6,29.92,NNE,16,0.0,0.0,95,0.00,,---,0.16,VWS V14.00,2013-04-02 19:01:00,
2013-04-02 14:03:00,67.2,65.7,29.92,NNE,16,0.0,0.0,95,0.00,,---,0.16,VWS V14.00,2013-04-02 19:03:00,
2013-04-02 14:04:00,67.3,65.8,29.92,NNE,16,0.0,0.0,95,0.00,,---,0.16,VWS V14.00,2013-04-02 19:04:00,
2013-04-02 14:05:00,67.3,65.8,29.92,NNE,16,0.0,1.0,95,0.00,,---,0.16,VWS V14.00,2013-04-02 19:05:00,
2013-04-02 14:06:00,67.3,65.8,29.92,NNE,16,0.0,1.0,95,0.00,,---,0.16,VWS V14.00,2013-04-02 19:06:00,
2013-04-02 14:07:00,67.3,65.5,29.92,NNE,16,0.0,1.0,94,0.00,,---,0.16,VWS V14.00,2013-04-02 19:07:00,
2013-04-02 14:08:00,67.3,65.5,29.92,NNE,16,0.0,1.0,94,0.00,,---,0.16,VWS V14.00,2013-04-02 19:08:00,
2013-04-02 14:09:00,67.3,65.5,29.93,NNE,16,0.0,1.0,94,0.00,,---,0.16,VWS V14.00,2013-04-02 19:09:00,
2013-04-02 14:10:00,67.4,65.6,29.92,NNE,16,0.0,1.0,94,0.00,,---,0.16,VWS V14.00,2013-04-02 19:10:00,
2013-04-02 14:11:00,67.4,65.6,29.93,NNE,16,0.0,1.0,94,0.00,,---,0.16,VWS V14.00,2013-04-02 19:11:00,
2013-04-02 14:12:00,67.4,65.6,29.92,NNE,16,0.0,1.0,94,0.00,,---,0.16,VWS V14.00,2013-04-02 19:12:00,
2013-04-02 14:13:00,67.4,65.6,29.92,NNE,16,0.0,1.0,94,0.00,,---,0.16,VWS V14.00,2013-04-02 19:13:00,
2013-04-02 14:14:00,67.4,65.6,29.93,NNE,16,0.0,1.0,94,0.00,,---,0.16,VWS V14.00,2013-04-02 19:14:00,
2013-04-02 14:16:00,67.5,65.7,29.93,NNE,16,0.0,1.0,94,0.00,,---,0.16,VWS V14.00,2013-04-02 19:16:00,
2013-04-02 14:17:00,67.5,65.7,29.92,NNE,16,0.0,1.0,94,0.00,,---,0.16,VWS V14.00,2013-04-02 19:17:00,
2013-04-02 14:18:00,67.5,65.7,29.92,NNE,16,0.0,1.0,94,0.00,,---,0.16,VWS V14.00,2013-04-02 19:18:00,
2013-04-02 14:19:00,67.5,65.7,29.92,NNE,16,0.0,1.0,94,0.00,,---,0.16,VWS V14.00,2013-04-02 19:19:00,
2013-04-02 14:21:00,67.5,65.7,29.92,NNE,16,0.0,1.0,94,0.00,,---,0.16,VWS V14.00,2013-04-02 19:21:00,
2013-04-02 14:22:00,67.5,65.4,29.92,NNE,16,0.0,1.0,93,0.00,,---,0.16,VWS V14.00,2013-04-02 19:22:00,
2013-04-02 14:23:00,67.5,65.4,29.92,NNE,16,0.0,1.0,93,0.00,,---,0.16,VWS V14.00,2013-04-02 19:23:00,
2013-04-02 14:24:00,67.6,65.5,29.92,NNE,16,0.0,1.0,93,0.00,,---,0.16,VWS V14.00,2013-04-02 19:24:00,
2013-04-02 14:26:00,67.6,65.8,29.92,NNE,16,0.0,1.0,94,0.00,,---,0.16,VWS V14.00,2013-04-02 19:26:00,
2013-04-02 14:27:00,67.6,65.5,29.92,NNE,16,0.0,1.0,93,0.00,,---,0.16,VWS V14.00,2013-04-02 19:27:00,
2013-04-02 14:28:00,67.7,65.6,29.92,NNE,16,0.0,1.0,93,0.00,,---,0.16,VWS V14.00,2013-04-02 19:28:00,
2013-04-02 14:29:00,67.7,65.6,29.92,NNE,16,0.0,1.0,93,0.00,,---,0.16,VWS V14.00,2013-04-02 19:29:00,
2013-04-02 14:30:00,67.7,65.6,29.92,NNE,16,0.0,1.0,93,0.00,,---,0.16,VWS V14.00,2013-04-02 19:30:00,
2013-04-02 14:31:00,67.7,65.6,29.92,NNE,16,0.0,0.0,93,0.00,,---,0.16,VWS V14.00,2013-04-02 19:31:00,
2013-04-02 14:32:00,67.7,65.6,29.92,NNE,16,0.0,0.0,93,0.00,,---,0.16,VWS V14.00,2013-04-02 19:32:00,
2013-04-02 14:33:00,67.7,65.6,29.93,NNE,16,0.0,0.0,93,0.00,,---,0.16,VWS V14.00,2013-04-02 19:33:00,
2013-04-02 14:34:00,67.8,65.7,29.93,NNE,16,0.0,0.0,93,0.00,,---,0.16,VWS V14.00,2013-04-02 19:34:00,
2013-04-02 14:35:00,67.8,65.7,29.93,NNE,16,0.0,0.0,93,0.00,,---,0.16,VWS V14.00,2013-04-02 19:35:00,
2013-04-02 14:36:00,67.8,65.7,29.92,NNE,16,0.0,0.0,93,0.00,,---,0.16,VWS V14.00,2013-04-02 19:36:00,
2013-04-02 14:38:00,67.8,65.7,29.92,NNE,16,0.0,0.0,93,0.00,,---,0.16,VWS V14.00,2013-04-02 19:38:00,
2013-04-02 14:41:00,67.8,65.7,29.93,NNE,16,0.0,0.0,93,0.00,,---,0.16,VWS V14.00,2013-04-02 19:41:00,
2013-04-02 14:42:00,67.8,65.4,29.92,NNE,16,0.0,0.0,92,0.00,,---,0.16,VWS V14.00,2013-04-02 19:42:00,
2013-04-02 14:43:00,67.8,65.4,29.92,NNE,16,0.0,0.0,92,0.00,,---,0.16,VWS V14.00,2013-04-02 19:43:00,
2013-04-02 14:45:00,67.8,65.7,29.92,NNE,16,0.0,1.0,93,0.00,,---,0.16,VWS V14.00,2013-04-02 19:45:00,
2013-04-02 14:46:00,67.8,65.7,29.92,NNE,16,0.0,1.0,93,0.00,,---,0.16,VWS V14.00,2013-04-02 19:46:00,
2013-04-02 14:47:00,67.9,65.8,29.92,NNE,16,0.0,1.0,93,0.00,,---,0.16,VWS V14.00,2013-04-02 19:47:00,
2013-04-02 14:48:00,67.9,65.8,29.92,NNE,16,0.0,1.0,93,0.00,,---,0.16,VWS V14.00,2013-04-02 19:48:00,
2013-04-02 14:49:00,67.9,65.8,29.92,NNE,16,0.0,1.0,93,0.00,,---,0.16,VWS V14.00,2013-04-02 19:49:00,
2013-04-02 14:50:00,68.1,66.0,29.92,NNE,16,0.0,1.0,93,0.00,,---,0.16,VWS V14.00,2013-04-02 19:50:00,
2013-04-02 14:51:00,68.1,66.0,29.92,NNE,16,0.0,1.0,93,0.00,,---,0.16,VWS V14.00,2013-04-02 19:51:00,
2013-04-02 14:53:00,68.5,66.7,29.92,NNE,16,0.0,1.0,94,0.00,,---,0.16,VWS V14.00,2013-04-02 19:53:00,
2013-04-02 14:54:00,68.6,66.8,29.92,NNE,16,0.0,1.0,94,0.00,,---,0.16,VWS V14.00,2013-04-02 19:54:00,
2013-04-02 14:56:00,68.7,66.9,29.92,NNE,16,0.0,1.0,94,0.00,,---,0.16,VWS V14.00,2013-04-02 19:56:00,
2013-04-02 14:57:00,68.8,67.0,29.92,NNE,16,0.0,1.0,94,0.00,,---,0.16,VWS V14.00,2013-04-02 19:57:00,
2013-04-02 14:58:00,68.9,66.8,29.92,NNE,16,0.0,1.0,93,0.00,,---,0.16,VWS V14.00,2013-04-02 19:58:00,
2013-04-02 14:59:00,68.9,66.8,29.92,NNE,16,0.0,1.0,93,0.00,,---,0.16,VWS V14.00,2013-04-02 19:59:00,
2013-04-02 15:00:00,69.0,66.6,29.92,NNE,16,0.0,1.0,92,0.00,,---,0.16,VWS V14.00,2013-04-02 20:00:00,
2013-04-02 15:01:00,68.9,66.2,29.92,NNE,16,0.0,1.0,91,0.00,,---,0.16,VWS V14.00,2013-04-02 20:01:00,
2013-04-02 15:03:00,69.0,66.3,29.92,NNE,16,0.0,1.0,91,0.00,,---,0.16,VWS V14.00,2013-04-02 20:03:00,
2013-04-02 15:04:00,69.0,66.3,29.92,NNE,16,0.0,1.0,91,0.00,,---,0.16,VWS V14.00,2013-04-02 20:04:00,
2013-04-02 15:05:00,69.0,66.3,29.92,NNE,16,0.0,1.0,91,0.00,,---,0.16,VWS V14.00,2013-04-02 20:05:00,
2013-04-02 15:06:00,69.0,66.3,29.92,NNE,16,0.0,1.0,91,0.00,,---,0.16,VWS V14.00,2013-04-02 20:06:00,
2013-04-02 15:07:00,69.0,66.3,29.92,NNE,16,0.0,1.0,91,0.00,,---,0.16,VWS V14.00,2013-04-02 20:07:00,
2013-04-02 15:08:00,69.0,66.3,29.92,NNE,16,0.0,1.0,91,0.00,,---,0.16,VWS V14.00,2013-04-02 20:08:00,
2013-04-02 15:09:00,69.0,66.3,29.92,NNE,16,0.0,1.0,91,0.00,,---,0.16,VWS V14.00,2013-04-02 20:09:00,
2013-04-02 15:10:00,69.1,66.4,29.92,NNE,16,0.0,1.0,91,0.00,,---,0.16,VWS V14.00,2013-04-02 20:10:00,
2013-04-02 15:11:00,69.1,66.4,29.92,NNE,16,0.0,1.0,91,0.00,,---,0.16,VWS V14.00,2013-04-02 20:11:00,
2013-04-02 15:12:00,69.2,66.5,29.92,NNE,16,0.0,1.0,91,0.00,,---,0.17,VWS V14.00,2013-04-02 20:12:00,
2013-04-02 15:13:00,69.3,66.6,29.92,NNE,16,0.0,1.0,91,0.00,,---,0.17,VWS V14.00,2013-04-02 20:13:00,
2013-04-02 15:14:00,69.3,66.6,29.92,NNE,16,0.0,1.0,91,0.00,,---,0.17,VWS V14.00,2013-04-02 20:14:00,
2013-04-02 15:15:00,69.4,66.7,29.92,NNE,16,0.0,1.0,91,0.00,,---,0.17,VWS V14.00,2013-04-02 20:15:00,
2013-04-02 15:16:00,69.5,66.8,29.92,NNE,16,0.0,1.0,91,0.00,,---,0.17,VWS V14.00,2013-04-02 20:16:00,
2013-04-02 15:19:00,69.7,67.0,29.92,NNE,16,0.0,1.0,91,0.00,,---,0.17,VWS V14.00,2013-04-02 20:19:00,
2013-04-02 15:21:00,69.9,66.8,29.91,NNE,16,0.0,1.0,90,0.00,,---,0.17,VWS V14.00,2013-04-02 20:21:00,
2013-04-02 15:22:00,70.0,66.9,29.92,NNE,16,0.0,1.0,90,0.00,,---,0.17,VWS V14.00,2013-04-02 20:22:00,
2013-04-02 15:23:00,70.1,67.0,29.91,NNE,16,1.0,2.0,90,0.00,,---,0.17,VWS V14.00,2013-04-02 20:23:00,
2013-04-02 15:24:00,70.2,67.4,29.91,NNE,16,2.0,2.0,91,0.00,,---,0.17,VWS V14.00,2013-04-02 20:24:00,
2013-04-02 15:26:00,70.5,67.4,29.91,NNE,16,0.0,3.0,90,0.00,,---,0.17,VWS V14.00,2013-04-02 20:26:00,
2013-04-02 15:28:00,70.6,66.9,29.91,NNE,16,0.0,3.0,88,0.00,,---,0.17,VWS V14.00,2013-04-02 20:28:00,
2013-04-02 15:29:00,70.6,66.6,29.91,NNE,16,0.0,3.0,87,0.00,,---,0.17,VWS V14.00,2013-04-02 20:29:00,
2013-04-02 15:30:00,70.7,66.7,29.91,NNE,16,0.0,3.0,87,0.00,,---,0.17,VWS V14.00,2013-04-02 20:30:00,
2013-04-02 15:31:00,70.8,67.1,29.91,NNE,17,0.0,3.0,88,0.00,,---,0.17,VWS V14.00,2013-04-02 20:31:00,
2013-04-02 15:32:00,70.9,66.8,29.91,NNE,17,0.0,3.0,87,0.00,,---,0.17,VWS V14.00,2013-04-02 20:32:00,
2013-04-02 15:33:00,71.0,66.9,29.91,NNE,17,0.0,3.0,87,0.00,,---,0.17,VWS V14.00,2013-04-02 20:33:00,
2013-04-02 15:36:00,71.1,67.0,29.91,NNE,17,0.0,3.0,87,0.00,,---,0.17,VWS V14.00,2013-04-02 20:36:00,
2013-04-02 15:37:00,71.1,67.4,29.91,NNE,17,0.0,3.0,88,0.00,,---,0.17,VWS V14.00,2013-04-02 20:37:00,
2013-04-02 15:38:00,71.3,67.6,29.91,NNE,17,0.0,3.0,88,0.00,,---,0.17,VWS V14.00,2013-04-02 20:38:00,
2013-04-02 15:39:00,71.4,67.7,29.91,NNE,17,0.0,3.0,88,0.00,,---,0.17,VWS V14.00,2013-04-02 20:39:00,
2013-04-02 15:40:00,71.5,67.8,29.91,NNE,17,0.0,3.0,88,0.00,,---,0.17,VWS V14.00,2013-04-02 20:40:00,
2013-04-02 15:41:00,71.7,68.0,29.91,NNE,17,0.0,3.0,88,0.00,,---,0.17,VWS V14.00,2013-04-02 20:41:00,
2013-04-02 15:42:00,71.8,67.1,29.91,NNE,21,0.0,3.0,85,0.00,,---,0.17,VWS V14.00,2013-04-02 20:42:00,
2013-04-02 15:44:00,71.9,66.5,29.91,NNE,14,0.0,3.0,83,0.00,,---,0.17,VWS V14.00,2013-04-02 20:44:00,
2013-04-02 15:45:00,72.0,66.9,29.91,NNE,17,0.0,3.0,84,0.00,,---,0.17,VWS V14.00,2013-04-02 20:45:00,
2013-04-02 15:46:00,72.1,67.0,29.91,ENE,65,0.0,3.0,84,0.00,,---,0.17,VWS V14.00,2013-04-02 20:46:00,
2013-04-02 15:47:00,72.2,67.1,29.90,East,96,0.0,3.0,84,0.00,,---,0.17,VWS V14.00,2013-04-02 20:47:00,
2013-04-02 15:48:00,72.3,67.2,29.90,East,96,0.0,3.0,84,0.00,,---,0.17,VWS V14.00,2013-04-02 20:48:00,
2013-04-02 15:49:00,72.4,67.6,29.90,East,96,1.0,3.0,85,0.00,,---,0.17,VWS V14.00,2013-04-02 20:49:00,
2013-04-02 15:50:00,72.5,67.7,29.90,ESE,116,0.0,3.0,85,0.00,,---,0.17,VWS V14.00,2013-04-02 20:50:00,
2013-04-02 15:51:00,72.6,67.2,29.90,ESE,115,0.0,3.0,83,0.00,,---,0.17,VWS V14.00,2013-04-02 20:51:00,
2013-04-02 15:53:00,72.8,67.3,29.90,SSW,203,1.0,3.0,83,0.00,,---,0.17,VWS V14.00,2013-04-02 20:53:00,
2013-04-02 15:54:00,72.9,67.8,29.90,West,270,4.0,4.0,84,0.00,,---,0.17,VWS V14.00,2013-04-02 20:54:00,
2013-04-02 15:55:00,73.0,67.5,29.90,West,278,0.0,7.0,83,0.00,,---,0.17,VWS V14.00,2013-04-02 20:55:00,
2013-04-02 15:56:00,73.1,67.3,29.90,SSE,160,1.0,7.0,82,0.00,,---,0.17,VWS V14.00,2013-04-02 20:56:00,
2013-04-02 15:59:00,73.3,67.5,29.90,WSW,254,0.0,7.0,82,0.00,,---,0.17,VWS V14.00,2013-04-02 20:59:00,
2013-04-02 16:00:00,73.4,67.9,29.90,WSW,254,0.0,7.0,83,0.00,,---,0.17,VWS V14.00,2013-04-02 21:00:00,
2013-04-02 16:01:00,73.6,67.8,29.90,West,263,0.0,2.0,82,0.00,,---,0.17,VWS V14.00,2013-04-02 21:01:00,
2013-04-02 16:02:00,73.6,67.1,29.90,West,263,0.0,2.0,80,0.00,,---,0.17,VWS V14.00,2013-04-02 21:02:00,
2013-04-02 16:03:00,73.7,67.2,29.90,West,263,0.0,2.0,80,0.00,,---,0.17,VWS V14.00,2013-04-02 21:03:00,
2013-04-02 16:04:00,73.8,67.6,29.90,SE,139,0.0,2.0,81,0.00,,---,0.17,VWS V14.00,2013-04-02 21:04:00,
2013-04-02 16:05:00,73.8,67.2,29.90,SE,139,0.0,2.0,80,0.00,,---,0.17,VWS V14.00,2013-04-02 21:05:00,
2013-04-02 16:06:00,73.8,67.2,29.90,SE,139,0.0,2.0,80,0.00,,---,0.17,VWS V14.00,2013-04-02 21:06:00,
2013-04-02 16:07:00,73.8,67.2,29.90,SW,236,0.0,3.0,80,0.00,,---,0.17,VWS V14.00,2013-04-02 21:07:00,
2013-04-02 16:08:00,73.8,67.2,29.90,WSW,240,0.0,3.0,80,0.00,,---,0.17,VWS V14.00,2013-04-02 21:08:00,
2013-04-02 16:11:00,73.9,67.3,29.90,South,169,0.0,3.0,80,0.00,,---,0.17,VWS V14.00,2013-04-02 21:11:00,
2013-04-02 16:12:00,73.9,67.0,29.90,WNW,294,0.0,8.0,79,0.00,,---,0.17,VWS V14.00,2013-04-02 21:12:00,
2013-04-02 16:13:00,73.9,66.6,29.90,West,279,5.0,8.0,78,0.00,,---,0.17,VWS V14.00,2013-04-02 21:13:00,
2013-04-02 16:14:00,73.9,66.6,29.90,WNW,286,1.0,8.0,78,0.00,,---,0.17,VWS V14.00,2013-04-02 21:14:00,
2013-04-02 16:15:00,73.9,67.0,29.90,WNW,286,0.0,8.0,79,0.00,,---,0.17,VWS V14.00,2013-04-02 21:15:00,
2013-04-02 16:16:00,74.0,67.1,29.90,WNW,302,0.0,8.0,79,0.00,,---,0.17,VWS V14.00,2013-04-02 21:16:00,
2013-04-02 16:17:00,74.0,66.7,29.89,WNW,300,4.0,8.0,78,0.00,,---,0.17,VWS V14.00,2013-04-02 21:17:00,
2013-04-02 16:18:00,74.0,66.7,29.90,WNW,300,0.0,8.0,78,0.00,,---,0.17,VWS V14.00,2013-04-02 21:18:00,
2013-04-02 16:19:00,74.1,66.8,29.89,WNW,302,1.0,8.0,78,0.00,,---,0.17,VWS V14.00,2013-04-02 21:19:00,
2013-04-02 16:20:00,74.2,66.5,29.90,WNW,302,0.0,8.0,77,0.00,,---,0.17,VWS V14.00,2013-04-02 21:20:00,
2013-04-02 16:21:00,74.2,66.9,29.90,WNW,302,0.0,8.0,78,0.00,,---,0.17,VWS V14.00,2013-04-02 21:21:00,
2013-04-02 16:22:00,74.2,67.3,29.90,WNW,302,0.0,8.0,79,0.00,,---,0.17,VWS V14.00,2013-04-02 21:22:00,
2013-04-02 16:23:00,74.2,66.9,29.90,WNW,302,0.0,8.0,78,0.00,,---,0.17,VWS V14.00,2013-04-02 21:23:00,
2013-04-02 16:26:00,74.2,66.9,29.89,West,277,4.0,8.0,78,0.00,,---,0.17,VWS V14.00,2013-04-02 21:26:00,
2013-04-02 16:27:00,74.2,66.5,29.89,WSW,255,0.0,8.0,77,0.00,,---,0.17,VWS V14.00,2013-04-02 21:27:00,
2013-04-02 16:28:00,74.2,66.5,29.89,WSW,257,1.0,8.0,77,0.00,,---,0.17,VWS V14.00,2013-04-02 21:28:00,
2013-04-02 16:29:00,74.1,66.4,29.89,WSW,257,0.0,8.0,77,0.00,,---,0.17,VWS V14.00,2013-04-02 21:29:00,
2013-04-02 16:30:00,74.1,66.8,29.89,WSW,257,0.0,8.0,78,0.00,,---,0.17,VWS V14.00,2013-04-02 21:30:00,
2013-04-02 16:31:00,74.2,67.3,29.89,WSW,257,0.0,0.0,79,0.00,,---,0.17,VWS V14.00,2013-04-02 21:31:00,
2013-04-02 16:33:00,74.2,67.3,29.89,West,267,0.0,2.0,79,0.00,,---,0.17,VWS V14.00,2013-04-02 21:33:00,
2013-04-02 16:34:00,74.2,66.9,29.89,West,279,1.0,5.0,78,0.00,,---,0.17,VWS V14.00,2013-04-02 21:34:00,
2013-04-02 16:35:00,74.2,66.9,29.89,West,277,5.0,8.0,78,0.00,,---,0.17,VWS V14.00,2013-04-02 21:35:00,
2013-04-02 16:36:00,74.2,66.5,29.89,SSW,192,0.0,8.0,77,0.00,,---,0.18,VWS V14.00,2013-04-02 21:36:00,
2013-04-02 16:38:00,74.2,67.3,29.89,West,269,0.0,8.0,79,0.00,,---,0.18,VWS V14.00,2013-04-02 21:38:00,
2013-04-02 16:39:00,74.2,66.9,29.89,West,269,0.0,8.0,78,0.00,,---,0.18,VWS V14.00,2013-04-02 21:39:00,
2013-04-02 16:40:00,74.2,66.5,29.89,West,269,0.0,8.0,77,0.00,,---,0.18,VWS V14.00,2013-04-02 21:40:00,
2013-04-02 16:41:00,74.2,66.9,29.89,West,269,0.0,8.0,78,0.00,,---,0.18,VWS V14.00,2013-04-02 21:41:00,
2013-04-02 16:42:00,74.2,66.9,29.89,West,269,0.0,8.0,78,0.00,,---,0.18,VWS V14.00,2013-04-02 21:42:00,
2013-04-02 16:43:00,74.2,66.9,29.89,WNW,285,0.0,8.0,78,0.00,,---,0.18,VWS V14.00,2013-04-02 21:43:00,
2013-04-02 16:46:00,74.2,66.5,29.88,West,272,0.0,8.0,77,0.00,,---,0.18,VWS V14.00,2013-04-02 21:46:00,
2013-04-02 16:47:00,74.3,67.0,29.88,West,272,0.0,8.0,78,0.00,,---,0.18,VWS V14.00,2013-04-02 21:47:00,
2013-04-02 16:48:00,74.3,67.0,29.88,West,265,0.0,8.0,78,0.00,,---,0.18,VWS V14.00,2013-04-02 21:48:00,
2013-04-02 16:49:00,74.4,67.1,29.88,West,265,0.0,8.0,78,0.00,,---,0.18,VWS V14.00,2013-04-02 21:49:00,
2013-04-02 16:51:00,74.6,67.7,29.88,West,268,0.0,8.0,79,0.00,,---,0.18,VWS V14.00,2013-04-02 21:51:00,
2013-04-02 16:52:00,74.7,67.8,29.88,NW,307,0.0,8.0,79,0.00,,---,0.18,VWS V14.00,2013-04-02 21:52:00,
2013-04-02 16:53:00,74.7,67.4,29.89,NW,307,0.0,8.0,78,0.00,,---,0.18,VWS V14.00,2013-04-02 21:53:00,
2013-04-02 16:54:00,74.8,66.7,29.88,WNW,291,1.0,8.0,76,0.00,,---,0.18,VWS V14.00,2013-04-02 21:54:00,
2013-04-02 16:55:00,74.8,66.3,29.89,WNW,291,0.0,8.0,75,0.00,,---,0.18,VWS V14.00,2013-04-02 21:55:00,
2013-04-02 16:56:00,74.8,66.7,29.88,WNW,291,0.0,8.0,76,0.00,,---,0.18,VWS V14.00,2013-04-02 21:56:00,
2013-04-02 16:57:00,74.9,67.2,29.88,ESE,122,2.0,8.0,77,0.00,,---,0.18,VWS V14.00,2013-04-02 21:57:00,
2013-04-02 16:58:00,74.9,66.8,29.88,SW,226,0.0,8.0,76,0.00,,---,0.18,VWS V14.00,2013-04-02 21:58:00,
2013-04-02 17:00:00,74.9,66.8,29.88,SW,226,0.0,8.0,76,0.00,,---,0.18,VWS V14.00,2013-04-02 22:00:00,
2013-04-02 17:01:00,74.9,66.4,29.88,SW,226,0.0,1.0,75,0.00,,---,0.18,VWS V14.00,2013-04-02 22:01:00,
2013-04-02 17:02:00,74.8,66.7,29.88,South,188,2.0,4.0,76,0.00,,---,0.18,VWS V14.00,2013-04-02 22:02:00,
2013-04-02 17:03:00,74.8,66.7,29.88,WNW,282,1.0,4.0,76,0.00,,---,0.18,VWS V14.00,2013-04-02 22:03:00,
2013-04-02 17:04:00,74.8,67.1,29.88,SSW,209,0.0,4.0,77,0.00,,---,0.18,VWS V14.00,2013-04-02 22:04:00,
2013-04-02 17:05:00,74.7,66.6,29.88,South,171,1.0,4.0,76,0.00,,---,0.18,VWS V14.00,2013-04-02 22:05:00,
2013-04-02 17:06:00,74.7,67.0,29.88,West,260,0.0,4.0,77,0.00,,---,0.18,VWS V14.00,2013-04-02 22:06:00,
2013-04-02 17:08:00,74.6,66.9,29.88,WNW,283,0.0,4.0,77,0.00,,---,0.18,VWS V14.00,2013-04-02 22:08:00,
2013-04-02 17:09:00,74.5,66.8,29.88,WNW,285,0.0,4.0,77,0.00,,---,0.18,VWS V14.00,2013-04-02 22:09:00,
2013-04-02 17:10:00,74.4,67.5,29.88,WNW,285,0.0,4.0,79,0.00,,---,0.18,VWS V14.00,2013-04-02 22:10:00,
2013-04-02 17:11:00,74.4,67.1,29.88,WSW,256,0.0,7.0,78,0.00,,---,0.18,VWS V14.00,2013-04-02 22:11:00,
2013-04-02 17:12:00,74.3,66.6,29.88,South,171,2.0,9.0,77,0.00,,---,0.18,VWS V14.00,2013-04-02 22:12:00,
2013-04-02 17:13:00,74.2,66.5,29.88,WSW,242,0.0,9.0,77,0.00,,---,0.18,VWS V14.00,2013-04-02 22:13:00,
2013-04-02 17:14:00,74.0,66.3,29.88,WSW,242,0.0,9.0,77,0.00,,---,0.18,VWS V14.00,2013-04-02 22:14:00,
2013-04-02 17:15:00,74.0,66.7,29.88,WSW,238,0.0,9.0,78,0.00,,---,0.18,VWS V14.00,2013-04-02 22:15:00,
2013-04-02 17:16:00,73.9,67.0,29.88,WSW,241,0.0,9.0,79,0.00,,---,0.18,VWS V14.00,2013-04-02 22:16:00,
2013-04-02 17:18:00,73.8,67.2,29.88,WSW,241,1.0,9.0,80,0.00,,---,0.18,VWS V14.00,2013-04-02 22:18:00,
2013-04-02 17:19:00,73.8,67.2,29.88,WSW,241,0.0,9.0,80,0.00,,---,0.18,VWS V14.00,2013-04-02 22:19:00,
2013-04-02 17:20:00,73.7,66.8,29.88,NW,326,0.0,9.0,79,0.00,,---,0.18,VWS V14.00,2013-04-02 22:20:00,
2013-04-02 17:21:00,73.7,67.2,29.88,NW,326,0.0,9.0,80,0.00,,---,0.18,VWS V14.00,2013-04-02 22:21:00,
2013-04-02 17:23:00,73.7,67.2,29.88,NW,326,0.0,9.0,80,0.00,,---,0.18,VWS V14.00,2013-04-02 22:23:00,
2013-04-02 17:24:00,73.6,67.1,29.88,NW,314,0.0,9.0,80,0.00,,---,0.18,VWS V14.00,2013-04-02 22:24:00,
2013-04-02 17:25:00,73.6,67.1,29.88,NW,309,2.0,9.0,80,0.00,,---,0.18,VWS V14.00,2013-04-02 22:25:00,
2013-04-02 17:26:00,73.6,67.1,29.87,SE,146,0.0,9.0,80,0.00,,---,0.18,VWS V14.00,2013-04-02 22:26:00,
2013-04-02 17:28:00,73.6,66.7,29.88,WNW,284,0.0,9.0,79,0.00,,---,0.18,VWS V14.00,2013-04-02 22:28:00,
2013-04-02 17:29:00,73.6,66.7,29.88,WNW,284,0.0,9.0,79,0.00,,---,0.18,VWS V14.00,2013-04-02 22:29:00,
2013-04-02 17:30:00,73.6,67.1,29.88,WNW,284,0.0,9.0,80,0.00,,---,0.18,VWS V14.00,2013-04-02 22:30:00,
2013-04-02 17:31:00,73.6,67.1,29.88,NW,305,0.0,4.0,80,0.00,,---,0.18,VWS V14.00,2013-04-02 22:31:00,
2013-04-02 17:32:00,73.5,66.6,29.88,NW,305,0.0,4.0,79,0.00,,---,0.18,VWS V14.00,2013-04-02 22:32:00,
2013-04-02 17:33:00,73.5,67.0,29.88,WSW,250,0.0,4.0,80,0.00,,---,0.18,VWS V14.00,2013-04-02 22:33:00,
2013-04-02 17:34:00,73.5,66.6,29.88,WSW,250,0.0,4.0,79,0.00,,---,0.18,VWS V14.00,2013-04-02 22:34:00,
2013-04-02 17:35:00,73.5,67.0,29.88,SE,146,2.0,4.0,80,0.00,,---,0.18,VWS V14.00,2013-04-02 22:35:00,
2013-04-02 17:36:00,73.5,66.6,29.88,SE,146,0.0,4.0,79,0.00,,---,0.18,VWS V14.00,2013-04-02 22:36:00,
2013-04-02 17:38:00,73.5,66.6,29.88,South,191,0.0,4.0,79,0.00,,---,0.18,VWS V14.00,2013-04-02 22:38:00,
2013-04-02 17:39:00,73.5,67.0,29.88,South,191,0.0,4.0,80,0.00,,---,0.18,VWS V14.00,2013-04-02 22:39:00,
2013-04-02 17:40:00,73.5,66.6,29.88,West,281,0.0,6.0,79,0.00,,---,0.18,VWS V14.00,2013-04-02 22:40:00,
2013-04-02 17:41:00,73.4,66.9,29.88,West,281,0.0,6.0,80,0.00,,---,0.18,VWS V14.00,2013-04-02 22:41:00,
2013-04-02 17:42:00,73.5,67.0,29.88,West,281,0.0,6.0,80,0.00,,---,0.18,VWS V14.00,2013-04-02 22:42:00,
2013-04-02 17:44:00,73.5,67.0,29.88,SSE,156,0.0,6.0,80,0.00,,---,0.18,VWS V14.00,2013-04-02 22:44:00,
2013-04-02 17:45:00,73.5,67.0,29.88,SSE,156,0.0,6.0,80,0.00,,---,0.18,VWS V14.00,2013-04-02 22:45:00,
2013-04-02 17:46:00,73.5,66.6,29.88,South,177,0.0,6.0,79,0.00,,---,0.18,VWS V14.00,2013-04-02 22:46:00,
2013-04-02 17:47:00,73.5,66.2,29.87,West,273,1.0,6.0,78,0.00,,---,0.18,VWS V14.00,2013-04-02 22:47:00,
2013-04-02 17:48:00,73.5,66.2,29.88,West,273,0.0,6.0,78,0.00,,---,0.18,VWS V14.00,2013-04-02 22:48:00,
2013-04-02 17:49:00,73.5,66.2,29.87,West,265,0.0,6.0,78,0.00,,---,0.18,VWS V14.00,2013-04-02 22:49:00,
2013-04-02 17:50:00,73.5,66.2,29.88,West,265,0.0,6.0,78,0.00,,---,0.18,VWS V14.00,2013-04-02 22:50:00,
2013-04-02 17:51:00,73.5,66.6,29.88,South,181,0.0,6.0,79,0.00,,---,0.18,VWS V14.00,2013-04-02 22:51:00,
2013-04-02 17:52:00,73.5,66.6,29.88,WSW,251,0.0,6.0,79,0.00,,---,0.18,VWS V14.00,2013-04-02 22:52:00,
2013-04-02 17:53:00,73.5,66.6,29.88,WSW,251,0.0,6.0,79,0.00,,---,0.18,VWS V14.00,2013-04-02 22:53:00,
2013-04-02 17:54:00,73.5,66.6,29.87,WSW,250,0.0,6.0,79,0.00,,---,0.18,VWS V14.00,2013-04-02 22:54:00,
2013-04-02 17:55:00,73.5,66.6,29.88,SE,145,0.0,6.0,79,0.00,,---,0.18,VWS V14.00,2013-04-02 22:55:00,
2013-04-02 17:56:00,73.4,66.9,29.88,SE,145,1.0,6.0,80,0.00,,---,0.18,VWS V14.00,2013-04-02 22:56:00,
2013-04-02 17:58:00,73.4,66.9,29.88,SE,145,0.0,6.0,80,0.00,,---,0.18,VWS V14.00,2013-04-02 22:58:00,
2013-04-02 17:59:00,73.4,66.9,29.88,WNW,294,0.0,6.0,80,0.00,,---,0.18,VWS V14.00,2013-04-02 22:59:00,
2013-04-02 18:00:00,73.3,66.8,29.88,WNW,283,0.0,5.0,80,0.00,,---,0.18,VWS V14.00,2013-04-02 23:00:00,
2013-04-02 18:01:00,73.3,66.4,29.88,SSE,156,1.0,5.0,79,0.00,,---,0.18,VWS V14.00,2013-04-02 23:01:00,
2013-04-02 18:02:00,73.3,66.4,29.88,South,178,0.0,5.0,79,0.00,,---,0.18,VWS V14.00,2013-04-02 23:02:00,
2013-04-02 18:03:00,73.2,66.3,29.87,South,184,0.0,5.0,79,0.00,,---,0.18,VWS V14.00,2013-04-02 23:03:00,
2013-04-02 18:04:00,73.1,66.2,29.88,SW,226,0.0,5.0,79,0.00,,---,0.18,VWS V14.00,2013-04-02 23:04:00,
2013-04-02 18:05:00,73.1,66.2,29.88,SW,224,0.0,5.0,79,0.00,,---,0.18,VWS V14.00,2013-04-02 23:05:00,
2013-04-02 18:06:00,72.9,66.0,29.88,SW,224,0.0,5.0,79,0.00,,---,0.18,VWS V14.00,2013-04-02 23:06:00,
2013-04-02 18:08:00,72.8,66.3,29.88,South,182,1.0,5.0,80,0.00,,---,0.18,VWS V14.00,2013-04-02 23:08:00,
2013-04-02 18:11:00,72.6,66.4,29.88,WNW,288,0.0,5.0,81,0.00,,---,0.18,VWS V14.00,2013-04-02 23:11:00,
2013-04-02 18:12:00,72.6,66.4,29.88,WNW,288,1.0,5.0,81,0.00,,---,0.18,VWS V14.00,2013-04-02 23:12:00,
2013-04-02 18:13:00,72.6,66.4,29.88,NW,322,0.0,5.0,81,0.00,,---,0.18,VWS V14.00,2013-04-02 23:13:00,
2013-04-02 18:14:00,72.5,66.3,29.88,WSW,242,1.0,5.0,81,0.00,,---,0.18,VWS V14.00,2013-04-02 23:14:00,
2013-04-02 18:15:00,72.4,65.9,29.88,South,190,2.0,5.0,80,0.00,,---,0.18,VWS V14.00,2013-04-02 23:15:00,
2013-04-02 18:16:00,72.3,66.2,29.88,West,263,0.0,5.0,81,0.00,,---,0.18,VWS V14.00,2013-04-02 23:16:00,
2013-04-02 18:17:00,72.2,66.1,29.88,WSW,257,0.0,5.0,81,0.00,,---,0.18,VWS V14.00,2013-04-02 23:17:00,
2013-04-02 18:18:00,72.2,66.1,29.88,WSW,251,0.0,5.0,81,0.00,,---,0.18,VWS V14.00,2013-04-02 23:18:00,
2013-04-02 18:19:00,72.1,65.9,29.88,WSW,253,0.0,5.0,81,0.00,,---,0.18,VWS V14.00,2013-04-02 23:19:00,
2013-04-02 18:20:00,72.0,65.9,29.88,WSW,253,0.0,5.0,81,0.00,,---,0.18,VWS V14.00,2013-04-02 23:20:00,
2013-04-02 18:21:00,71.9,66.1,29.88,SSE,157,0.0,5.0,82,0.00,,---,0.18,VWS V14.00,2013-04-02 23:21:00,
2013-04-02 18:23:00,71.8,66.0,29.87,SW,215,2.0,5.0,82,0.00,,---,0.18,VWS V14.00,2013-04-02 23:23:00,
2013-04-02 18:24:00,71.7,66.3,29.87,SW,215,0.0,5.0,83,0.00,,---,0.18,VWS V14.00,2013-04-02 23:24:00,
2013-04-02 18:26:00,71.6,65.8,29.87,West,271,0.0,7.0,82,0.00,,---,0.18,VWS V14.00,2013-04-02 23:26:00,
2013-04-02 18:27:00,71.6,65.8,29.87,West,271,1.0,7.0,82,0.00,,---,0.18,VWS V14.00,2013-04-02 23:27:00,
2013-04-02 18:28:00,71.5,65.7,29.87,WNW,282,0.0,7.0,82,0.00,,---,0.18,VWS V14.00,2013-04-02 23:28:00,
2013-04-02 18:29:00,71.4,66.0,29.87,WNW,282,0.0,7.0,83,0.00,,---,0.18,VWS V14.00,2013-04-02 23:29:00,
2013-04-02 18:30:00,71.5,66.1,29.87,WNW,282,0.0,7.0,83,0.00,,---,0.18,VWS V14.00,2013-04-02 23:30:00,
2013-04-02 18:31:00,71.4,66.0,29.87,West,279,1.0,2.0,83,0.00,,---,0.18,VWS V14.00,2013-04-02 23:31:00,
2013-04-02 18:33:00,71.4,66.0,29.87,WNW,291,0.0,2.0,83,0.00,,---,0.18,VWS V14.00,2013-04-02 23:33:00,
2013-04-02 18:34:00,71.4,66.0,29.87,WNW,291,0.0,2.0,83,0.00,,---,0.18,VWS V14.00,2013-04-02 23:34:00,
2013-04-02 18:36:00,71.4,66.0,29.87,WNW,282,0.0,2.0,83,0.00,,---,0.18,VWS V14.00,2013-04-02 23:36:00,
2013-04-02 18:37:00,71.4,66.0,29.87,WNW,282,0.0,2.0,83,0.00,,---,0.18,VWS V14.00,2013-04-02 23:37:00,
2013-04-02 18:38:00,71.4,66.0,29.87,WNW,282,0.0,2.0,83,0.00,,---,0.18,VWS V14.00,2013-04-02 23:38:00,
2013-04-02 18:39:00,71.4,66.0,29.87,West,279,0.0,2.0,83,0.00,,---,0.18,VWS V14.00,2013-04-02 23:39:00,
2013-04-02 18:40:00,71.4,65.6,29.87,South,187,1.0,2.0,82,0.00,,---,0.18,VWS V14.00,2013-04-02 23:40:00,
2013-04-02 18:41:00,71.4,65.6,29.87,WNW,284,0.0,5.0,82,0.00,,---,0.18,VWS V14.00,2013-04-02 23:41:00,
2013-04-02 18:42:00,71.3,65.9,29.87,WNW,284,0.0,5.0,83,0.00,,---,0.18,VWS V14.00,2013-04-02 23:42:00,
2013-04-02 18:43:00,71.3,65.9,29.87,WNW,288,5.0,5.0,83,0.00,,---,0.18,VWS V14.00,2013-04-02 23:43:00,
2013-04-02 18:44:00,71.3,65.5,29.87,WNW,288,0.0,5.0,82,0.00,,---,0.18,VWS V14.00,2013-04-02 23:44:00,
2013-04-02 18:45:00,71.3,65.9,29.87,West,267,2.0,5.0,83,0.00,,---,0.18,VWS V14.00,2013-04-02 23:45:00,
2013-04-02 18:46:00,71.3,65.9,29.87,South,175,0.0,5.0,83,0.00,,---,0.18,VWS V14.00,2013-04-02 23:46:00,
2013-04-02 18:47:00,71.3,65.9,29.87,South,175,0.0,5.0,83,0.00,,---,0.18,VWS V14.00,2013-04-02 23:47:00,
2013-04-02 18:48:00,71.3,65.9,29.87,South,191,1.0,5.0,83,0.00,,---,0.18,VWS V14.00,2013-04-02 23:48:00,
2013-04-02 18:49:00,71.4,66.3,29.87,SSW,192,0.0,5.0,84,0.00,,---,0.18,VWS V14.00,2013-04-02 23:49:00,
2013-04-02 18:50:00,71.4,66.3,29.87,SSW,192,0.0,5.0,84,0.00,,---,0.18,VWS V14.00,2013-04-02 23:50:00,
2013-04-02 18:51:00,71.4,66.0,29.87,South,187,0.0,5.0,83,0.00,,---,0.18,VWS V14.00,2013-04-02 23:51:00,
2013-04-02 18:52:00,71.5,66.1,29.87,South,187,0.0,5.0,83,0.00,,---,0.18,VWS V14.00,2013-04-02 23:52:00,
2013-04-02 18:53:00,71.5,66.1,29.86,South,187,0.0,5.0,83,0.00,,---,0.18,VWS V14.00,2013-04-02 23:53:00,
2013-04-02 18:54:00,71.5,66.4,29.86,South,187,0.0,5.0,84,0.00,,---,0.18,VWS V14.00,2013-04-02 23:54:00,
2013-04-02 18:55:00,71.5,66.1,29.86,West,277,1.0,5.0,83,0.00,,---,0.18,VWS V14.00,2013-04-02 23:55:00,
2013-04-02 18:57:00,71.6,66.2,29.86,SE,135,0.0,5.0,83,0.00,,---,0.18,VWS V14.00,2013-04-02 23:57:00,
2013-04-02 18:58:00,71.6,66.2,29.86,South,187,0.0,5.0,83,0.00,,---,0.18,VWS V14.00,2013-04-02 23:58:00,
2013-04-02 18:59:00,71.6,66.2,29.86,WSW,243,1.0,5.0,83,0.00,,---,0.18,VWS V14.00,2013-04-02 23:59:00,
2013-04-02 19:00:00,71.6,66.2,29.86,WSW,243,0.0,5.0,83,0.00,,---,0.18,VWS V14.00,2013-04-03 00:00:00,
2013-04-02 19:01:00,71.6,65.8,29.86,WSW,247,2.0,2.0,82,0.00,,---,0.18,VWS V14.00,2013-04-03 00:01:00,
2013-04-02 19:03:00,71.6,65.8,29.87,WSW,251,1.0,2.0,82,0.00,,---,0.18,VWS V14.00,2013-04-03 00:03:00,
2013-04-02 19:04:00,71.7,65.9,29.87,SSE,150,4.0,4.0,82,0.00,,---,0.18,VWS V14.00,2013-04-03 00:04:00,
2013-04-02 19:06:00,71.6,66.2,29.87,West,272,0.0,4.0,83,0.00,,---,0.18,VWS V14.00,2013-04-03 00:06:00,
2013-04-02 19:07:00,71.6,65.8,29.86,SSE,155,0.0,4.0,82,0.00,,---,0.18,VWS V14.00,2013-04-03 00:07:00,
2013-04-02 19:08:00,71.6,66.2,29.86,SE,132,1.0,4.0,83,0.00,,---,0.18,VWS V14.00,2013-04-03 00:08:00,
2013-04-02 19:09:00,71.6,66.2,29.86,SE,143,0.0,4.0,83,0.00,,---,0.18,VWS V14.00,2013-04-03 00:09:00,
2013-04-02 19:10:00,71.6,65.8,29.86,West,269,0.0,4.0,82,0.00,,---,0.18,VWS V14.00,2013-04-03 00:10:00,
2013-04-02 19:11:00,71.6,65.8,29.86,South,186,0.0,4.0,82,0.00,,---,0.18,VWS V14.00,2013-04-03 00:11:00,
2013-04-02 19:12:00,71.6,65.8,29.86,SSE,158,0.0,4.0,82,0.00,,---,0.18,VWS V14.00,2013-04-03 00:12:00,
2013-04-02 19:13:00,71.5,65.7,29.86,WNW,286,2.0,8.0,82,0.00,,---,0.18,VWS V14.00,2013-04-03 00:13:00,
2013-04-02 19:16:00,71.5,65.7,29.86,West,278,0.0,8.0,82,0.00,,---,0.18,VWS V14.00,2013-04-03 00:16:00,
2013-04-02 19:17:00,71.5,66.1,29.86,West,278,0.0,8.0,83,0.00,,---,0.18,VWS V14.00,2013-04-03 00:17:00,
2013-04-02 19:18:00,71.4,66.0,29.86,WNW,295,0.0,8.0,83,0.00,,---,0.18,VWS V14.00,2013-04-03 00:18:00,
2013-04-02 19:19:00,71.5,66.1,29.86,WNW,299,0.0,8.0,83,0.00,,---,0.18,VWS V14.00,2013-04-03 00:19:00,
2013-04-02 19:21:00,71.5,66.1,29.86,West,280,0.0,8.0,83,0.00,,---,0.19,VWS V14.00,2013-04-03 00:21:00,
2013-04-02 19:22:00,71.5,66.1,29.86,SE,126,2.0,8.0,83,0.00,,---,0.19,VWS V14.00,2013-04-03 00:22:00,
2013-04-02 19:23:00,71.5,66.1,29.86,SSW,205,0.0,8.0,83,0.00,,---,0.19,VWS V14.00,2013-04-03 00:23:00,
2013-04-02 19:24:00,71.5,66.1,29.85,SSE,150,0.0,8.0,83,0.00,,---,0.19,VWS V14.00,2013-04-03 00:24:00,
2013-04-02 19:26:00,71.5,66.1,29.86,SSE,150,0.0,8.0,83,0.00,,---,0.19,VWS V14.00,2013-04-03 00:26:00,
2013-04-02 19:28:00,71.5,65.7,29.86,SSW,197,0.0,8.0,82,0.00,,---,0.19,VWS V14.00,2013-04-03 00:28:00,
2013-04-02 19:29:00,71.5,65.7,29.86,SSW,197,0.0,8.0,82,0.00,,---,0.19,VWS V14.00,2013-04-03 00:29:00,
2013-04-02 19:30:00,71.5,65.7,29.86,SSW,197,0.0,0.0,82,0.00,,---,0.19,VWS V14.00,2013-04-03 00:30:00,
2013-04-02 19:31:00,71.5,66.1,29.86,SSW,197,0.0,1.0,83,0.00,,---,0.19,VWS V14.00,2013-04-03 00:31:00,
2013-04-02 19:32:00,71.5,65.7,29.86,West,281,0.0,4.0,82,0.00,,---,0.19,VWS V14.00,2013-04-03 00:32:00,
2013-04-02 19:33:00,71.5,65.7,29.85,West,281,0.0,4.0,82,0.00,,---,0.19,VWS V14.00,2013-04-03 00:33:00,
2013-04-02 19:36:00,71.6,66.2,29.85,West,281,1.0,4.0,83,0.00,,---,0.19,VWS V14.00,2013-04-03 00:36:00,
2013-04-02 19:37:00,71.6,66.2,29.85,NW,313,1.0,6.0,83,0.00,,---,0.19,VWS V14.00,2013-04-03 00:37:00,
2013-04-02 19:38:00,71.6,65.8,29.85,NW,313,0.0,6.0,82,0.00,,---,0.19,VWS V14.00,2013-04-03 00:38:00,
2013-04-02 19:39:00,71.7,66.3,29.85,NW,313,0.0,6.0,83,0.00,,---,0.19,VWS V14.00,2013-04-03 00:39:00,
2013-04-02 19:40:00,71.7,65.9,29.85,NW,315,0.0,6.0,82,0.00,,---,0.19,VWS V14.00,2013-04-03 00:40:00,
2013-04-02 19:41:00,71.7,65.9,29.85,NW,309,0.0,6.0,82,0.00,,---,0.19,VWS V14.00,2013-04-03 00:41:00,
2013-04-02 19:42:00,71.8,65.7,29.85,West,275,0.0,6.0,81,0.00,,---,0.19,VWS V14.00,2013-04-03 00:42:00,
2013-04-02 19:43:00,71.8,65.7,29.85,West,275,0.0,6.0,81,0.00,,---,0.19,VWS V14.00,2013-04-03 00:43:00,
2013-04-02 19:44:00,71.8,65.7,29.85,West,275,0.0,6.0,81,0.00,,---,0.19,VWS V14.00,2013-04-03 00:44:00,
2013-04-02 19:46:00,71.8,65.3,29.85,West,273,0.0,6.0,80,0.00,,---,0.19,VWS V14.00,2013-04-03 00:46:00,
2013-04-02 19:47:00,71.8,65.3,29.85,West,275,0.0,6.0,80,0.00,,---,0.19,VWS V14.00,2013-04-03 00:47:00,
2013-04-02 19:48:00,71.8,65.3,29.85,West,275,0.0,6.0,80,0.00,,---,0.19,VWS V14.00,2013-04-03 00:48:00,
2013-04-02 19:49:00,71.8,65.7,29.85,West,275,0.0,6.0,81,0.00,,---,0.19,VWS V14.00,2013-04-03 00:49:00,
2013-04-02 19:50:00,71.8,65.7,29.85,West,278,0.0,6.0,81,0.00,,---,0.19,VWS V14.00,2013-04-03 00:50:00,
2013-04-02 19:51:00,71.7,65.6,29.85,ESE,123,0.0,6.0,81,0.00,,---,0.19,VWS V14.00,2013-04-03 00:51:00,
2013-04-02 19:52:00,71.7,65.9,29.85,ESE,123,0.0,6.0,82,0.00,,---,0.19,VWS V14.00,2013-04-03 00:52:00,
2013-04-02 19:53:00,71.7,65.6,29.85,ESE,123,0.0,6.0,81,0.00,,---,0.19,VWS V14.00,2013-04-03 00:53:00,
2013-04-02 19:54:00,71.7,65.9,29.85,ESE,123,0.0,6.0,82,0.00,,---,0.19,VWS V14.00,2013-04-03 00:54:00,
2013-04-02 19:55:00,71.7,65.9,29.85,ESE,123,0.0,6.0,82,0.00,,---,0.19,VWS V14.00,2013-04-03 00:55:00,
2013-04-02 19:56:00,71.7,66.3,29.85,ESE,123,0.0,6.0,83,0.00,,---,0.19,VWS V14.00,2013-04-03 00:56:00,
2013-04-02 19:57:00,71.7,65.9,29.85,ESE,123,0.0,6.0,82,0.00,,---,0.19,VWS V14.00,2013-04-03 00:57:00,
2013-04-02 19:58:00,71.7,65.9,29.85,ESE,123,0.0,6.0,82,0.00,,---,0.19,VWS V14.00,2013-04-03 00:58:00,
2013-04-02 19:59:00,71.7,65.9,29.85,West,277,1.0,6.0,82,0.00,,---,0.19,VWS V14.00,2013-04-03 00:59:00,
2013-04-02 20:00:00,71.7,65.6,29.85,West,275,0.0,1.0,81,0.00,,---,0.19,VWS V14.00,2013-04-03 01:00:00,
2013-04-02 20:01:00,71.7,65.9,29.85,West,275,0.0,1.0,82,0.00,,---,0.19,VWS V14.00,2013-04-03 01:01:00,
2013-04-02 20:02:00,71.7,65.9,29.85,West,271,0.0,5.0,82,0.00,,---,0.19,VWS V14.00,2013-04-03 01:02:00,
2013-04-02 20:03:00,71.7,65.6,29.85,West,280,0.0,5.0,81,0.00,,---,0.19,VWS V14.00,2013-04-03 01:03:00,
2013-04-02 20:04:00,71.7,65.6,29.85,West,281,4.0,5.0,81,0.00,,---,0.19,VWS V14.00,2013-04-03 01:04:00,
2013-04-02 20:05:00,71.7,65.6,29.85,West,273,0.0,5.0,81,0.00,,---,0.19,VWS V14.00,2013-04-03 01:05:00,
2013-04-02 20:06:00,71.7,65.6,29.85,West,273,0.0,5.0,81,0.00,,---,0.19,VWS V14.00,2013-04-03 01:06:00,
2013-04-02 20:07:00,71.8,66.0,29.85,NW,311,0.0,5.0,82,0.00,,---,0.19,VWS V14.00,2013-04-03 01:07:00,
2013-04-02 20:08:00,71.8,65.7,29.85,NW,312,0.0,5.0,81,0.00,,---,0.19,VWS V14.00,2013-04-03 01:08:00,
2013-04-02 20:09:00,71.8,65.7,29.85,NW,313,0.0,5.0,81,0.00,,---,0.19,VWS V14.00,2013-04-03 01:09:00,
2013-04-02 20:10:00,71.8,65.7,29.85,NW,312,1.0,5.0,81,0.00,,---,0.19,VWS V14.00,2013-04-03 01:10:00,
2013-04-02 20:11:00,71.8,65.7,29.85,WNW,302,0.0,5.0,81,0.00,,---,0.19,VWS V14.00,2013-04-03 01:11:00,
2013-04-02 20:12:00,71.9,65.4,29.85,WNW,302,0.0,5.0,80,0.00,,---,0.19,VWS V14.00,2013-04-03 01:12:00,
2013-04-02 20:13:00,71.9,65.8,29.85,WNW,302,0.0,5.0,81,0.00,,---,0.19,VWS V14.00,2013-04-03 01:13:00,
2013-04-02 20:14:00,71.9,65.8,29.85,NW,317,2.0,5.0,81,0.00,,---,0.19,VWS V14.00,2013-04-03 01:14:00,
2013-04-02 20:15:00,72.0,65.9,29.85,ESE,115,5.0,5.0,81,0.00,,---,0.19,VWS V14.00,2013-04-03 01:15:00,
2013-04-02 20:16:00,71.9,65.8,29.85,ESE,116,0.0,5.0,81,0.00,,---,0.19,VWS V14.00,2013-04-03 01:16:00,
2013-04-02 20:17:00,71.9,65.4,29.85,WSW,258,1.0,5.0,80,0.00,,---,0.19,VWS V14.00,2013-04-03 01:17:00,
2013-04-02 20:18:00,71.8,65.3,29.85,West,262,0.0,5.0,80,0.00,,---,0.19,VWS V14.00,2013-04-03 01:18:00,
2013-04-02 20:19:00,71.8,65.3,29.85,West,262,0.0,5.0,80,0.00,,---,0.19,VWS V14.00,2013-04-03 01:19:00,
2013-04-02 20:20:00,71.8,65.3,29.85,West,264,0.0,5.0,80,0.00,,---,0.19,VWS V14.00,2013-04-03 01:20:00,
2013-04-02 20:21:00,71.7,65.2,29.85,West,262,0.0,5.0,80,0.00,,---,0.19,VWS V14.00,2013-04-03 01:21:00,
2013-04-02 20:22:00,71.7,65.2,29.84,West,262,0.0,5.0,80,0.00,,---,0.19,VWS V14.00,2013-04-03 01:22:00,
2013-04-02 20:23:00,71.7,65.6,29.84,West,267,1.0,5.0,81,0.00,,---,0.19,VWS V14.00,2013-04-03 01:23:00,
2013-04-02 20:26:00,71.6,65.1,29.84,NW,306,0.0,6.0,80,0.00,,---,0.19,VWS V14.00,2013-04-03 01:26:00,
2013-04-02 20:27:00,71.6,65.1,29.84,NW,306,0.0,6.0,80,0.00,,---,0.19,VWS V14.00,2013-04-03 01:27:00,
2013-04-02 20:28:00,71.5,65.0,29.84,NW,306,0.0,6.0,80,0.00,,---,0.19,VWS V14.00,2013-04-03 01:28:00,
2013-04-02 20:29:00,71.5,65.4,29.84,WNW,301,0.0,6.0,81,0.00,,---,0.19,VWS V14.00,2013-04-03 01:29:00,
2013-04-02 20:30:00,71.5,65.4,29.84,WNW,301,0.0,0.0,81,0.00,,---,0.19,VWS V14.00,2013-04-03 01:30:00,
2013-04-02 20:31:00,71.5,65.4,29.84,NW,311,0.0,4.0,81,0.00,,---,0.19,VWS V14.00,2013-04-03 01:31:00,
2013-04-02 20:32:00,71.5,65.0,29.84,NW,311,0.0,4.0,80,0.00,,---,0.19,VWS V14.00,2013-04-03 01:32:00,
2013-04-02 20:33:00,71.5,65.4,29.84,NW,315,1.0,5.0,81,0.00,,---,0.19,VWS V14.00,2013-04-03 01:33:00,
2013-04-02 20:34:00,71.5,65.4,29.84,NNW,338,0.0,5.0,81,0.00,,---,0.19,VWS V14.00,2013-04-03 01:34:00,
2013-04-02 20:35:00,71.5,65.0,29.84,West,263,1.0,7.0,80,0.00,,---,0.19,VWS V14.00,2013-04-03 01:35:00,
2013-04-02 20:36:00,71.5,65.0,29.84,West,267,0.0,7.0,80,0.00,,---,0.19,VWS V14.00,2013-04-03 01:36:00,
2013-04-02 20:37:00,71.5,65.0,29.84,SSE,159,0.0,7.0,80,0.00,,---,0.19,VWS V14.00,2013-04-03 01:37:00,
2013-04-02 20:38:00,71.5,65.0,29.84,WNW,301,2.0,7.0,80,0.00,,---,0.19,VWS V14.00,2013-04-03 01:38:00,
2013-04-02 20:39:00,71.5,65.0,29.84,WNW,301,0.0,7.0,80,0.00,,---,0.19,VWS V14.00,2013-04-03 01:39:00,
2013-04-02 20:40:00,71.4,64.9,29.84,WNW,301,0.0,7.0,80,0.00,,---,0.19,VWS V14.00,2013-04-03 01:40:00,
2013-04-02 20:41:00,71.4,64.9,29.84,WNW,301,0.0,7.0,80,0.00,,---,0.19,VWS V14.00,2013-04-03 01:41:00,
2013-04-02 20:42:00,71.4,64.9,29.84,WNW,296,0.0,7.0,80,0.00,,---,0.19,VWS V14.00,2013-04-03 01:42:00,
2013-04-02 20:43:00,71.3,64.8,29.84,WNW,286,0.0,7.0,80,0.00,,---,0.19,VWS V14.00,2013-04-03 01:43:00,
2013-04-02 20:44:00,71.3,64.8,29.84,WNW,283,1.0,7.0,80,0.00,,---,0.19,VWS V14.00,2013-04-03 01:44:00,
2013-04-02 20:45:00,71.3,64.8,29.84,NW,315,1.0,7.0,80,0.00,,---,0.19,VWS V14.00,2013-04-03 01:45:00,
2013-04-02 20:46:00,71.3,64.5,29.84,West,273,7.0,7.0,79,0.00,,---,0.19,VWS V14.00,2013-04-03 01:46:00,
2013-04-02 20:47:00,71.2,64.4,29.84,WNW,291,0.0,7.0,79,0.00,,---,0.19,VWS V14.00,2013-04-03 01:47:00,
2013-04-02 20:48:00,71.2,64.4,29.84,West,274,6.0,7.0,79,0.00,,---,0.19,VWS V14.00,2013-04-03 01:48:00,
2013-04-02 20:49:00,71.2,64.4,29.83,West,274,0.0,7.0,79,0.00,,---,0.19,VWS V14.00,2013-04-03 01:49:00,
2013-04-02 20:50:00,71.2,64.7,29.84,West,274,0.0,7.0,80,0.00,,---,0.19,VWS V14.00,2013-04-03 01:50:00,
2013-04-02 20:51:00,71.1,64.6,29.84,West,275,0.0,7.0,80,0.00,,---,0.19,VWS V14.00,2013-04-03 01:51:00,
2013-04-02 20:52:00,71.1,64.6,29.84,West,275,0.0,7.0,80,0.00,,---,0.19,VWS V14.00,2013-04-03 01:52:00,
2013-04-02 20:53:00,71.1,64.6,29.84,West,275,0.0,7.0,80,0.00,,---,0.19,VWS V14.00,2013-04-03 01:53:00,
2013-04-02 20:54:00,71.0,64.5,29.84,West,275,0.0,7.0,80,0.00,,---,0.19,VWS V14.00,2013-04-03 01:54:00,
2013-04-02 20:55:00,71.0,64.2,29.84,West,275,1.0,7.0,79,0.00,,---,0.19,VWS V14.00,2013-04-03 01:55:00,
2013-04-02 20:56:00,71.0,64.5,29.84,NW,305,0.0,7.0,80,0.00,,---,0.19,VWS V14.00,2013-04-03 01:56:00,
2013-04-02 20:59:00,70.8,64.3,29.84,NW,305,0.0,7.0,80,0.00,,---,0.19,VWS V14.00,2013-04-03 01:59:00,
2013-04-02 21:00:00,70.8,64.3,29.84,West,265,0.0,7.0,80,0.00,,---,0.19,VWS V14.00,2013-04-03 02:00:00,
2013-04-02 21:01:00,70.7,64.6,29.84,West,265,0.0,0.0,81,0.00,,---,0.19,VWS V14.00,2013-04-03 02:01:00,
2013-04-02 21:02:00,70.6,64.5,29.84,West,265,0.0,1.0,81,0.00,,---,0.19,VWS V14.00,2013-04-03 02:02:00,
2013-04-02 21:03:00,70.6,64.5,29.84,West,265,0.0,1.0,81,0.00,,---,0.19,VWS V14.00,2013-04-03 02:03:00,
2013-04-02 21:04:00,70.5,64.4,29.84,WNW,294,2.0,6.0,81,0.00,,---,0.19,VWS V14.00,2013-04-03 02:04:00,
2013-04-02 21:05:00,70.5,64.4,29.83,WNW,284,0.0,6.0,81,0.00,,---,0.19,VWS V14.00,2013-04-03 02:05:00,
2013-04-02 21:06:00,70.4,64.3,29.83,WNW,284,0.0,6.0,81,0.00,,---,0.19,VWS V14.00,2013-04-03 02:06:00,
2013-04-02 21:07:00,70.4,64.3,29.83,WNW,285,0.0,6.0,81,0.00,,---,0.19,VWS V14.00,2013-04-03 02:07:00,
2013-04-02 21:08:00,70.3,64.2,29.84,WNW,287,0.0,6.0,81,0.00,,---,0.19,VWS V14.00,2013-04-03 02:08:00,
2013-04-02 21:09:00,70.3,64.2,29.83,WNW,286,4.0,6.0,81,0.00,,---,0.19,VWS V14.00,2013-04-03 02:09:00,
2013-04-02 21:10:00,70.2,63.8,29.83,WNW,299,0.0,6.0,80,0.00,,---,0.19,VWS V14.00,2013-04-03 02:10:00,
2013-04-02 21:11:00,70.1,63.7,29.84,West,274,0.0,6.0,80,0.00,,---,0.19,VWS V14.00,2013-04-03 02:11:00,
2013-04-02 21:12:00,70.1,63.7,29.83,West,274,0.0,6.0,80,0.00,,---,0.19,VWS V14.00,2013-04-03 02:12:00,
2013-04-02 21:13:00,70.1,64.0,29.84,WNW,284,0.0,6.0,81,0.00,,---,0.19,VWS V14.00,2013-04-03 02:13:00,
2013-04-02 21:14:00,70.1,64.0,29.83,WNW,284,0.0,6.0,81,0.00,,---,0.19,VWS V14.00,2013-04-03 02:14:00,
2013-04-02 21:15:00,70.1,64.0,29.84,WNW,284,0.0,6.0,81,0.00,,---,0.19,VWS V14.00,2013-04-03 02:15:00,
2013-04-02 21:16:00,70.1,64.0,29.84,WNW,284,0.0,6.0,81,0.00,,---,0.19,VWS V14.00,2013-04-03 02:16:00,
2013-04-02 21:17:00,70.1,64.0,29.84,WNW,292,0.0,6.0,81,0.00,,---,0.19,VWS V14.00,2013-04-03 02:17:00,
2013-04-02 21:18:00,70.1,64.4,29.84,WNW,292,0.0,6.0,82,0.00,,---,0.19,VWS V14.00,2013-04-03 02:18:00,
2013-04-02 21:19:00,70.1,64.4,29.84,WNW,292,0.0,6.0,82,0.00,,---,0.19,VWS V14.00,2013-04-03 02:19:00,
2013-04-02 21:20:00,70.1,64.4,29.84,WNW,292,0.0,6.0,82,0.00,,---,0.19,VWS V14.00,2013-04-03 02:20:00,
2013-04-02 21:21:00,70.1,64.4,29.84,WNW,292,0.0,6.0,82,0.00,,---,0.19,VWS V14.00,2013-04-03 02:21:00,
2013-04-02 21:22:00,70.1,64.0,29.83,West,277,0.0,6.0,81,0.00,,---,0.19,VWS V14.00,2013-04-03 02:22:00,
2013-04-02 21:23:00,70.1,64.4,29.84,West,277,1.0,6.0,82,0.00,,---,0.19,VWS V14.00,2013-04-03 02:23:00,
2013-04-02 21:26:00,70.1,64.4,29.84,West,277,0.0,6.0,82,0.00,,---,0.19,VWS V14.00,2013-04-03 02:26:00,
2013-04-02 21:27:00,70.1,64.4,29.84,West,278,0.0,6.0,82,0.00,,---,0.19,VWS V14.00,2013-04-03 02:27:00,
2013-04-02 21:28:00,70.1,64.4,29.84,West,278,0.0,6.0,82,0.00,,---,0.19,VWS V14.00,2013-04-03 02:28:00,
2013-04-02 21:29:00,70.0,63.9,29.84,West,277,0.0,6.0,81,0.00,,---,0.19,VWS V14.00,2013-04-03 02:29:00,
2013-04-02 21:30:00,70.0,64.3,29.84,West,277,0.0,6.0,82,0.00,,---,0.19,VWS V14.00,2013-04-03 02:30:00,
2013-04-02 21:31:00,69.9,64.2,29.84,West,277,0.0,0.0,82,0.00,,---,0.19,VWS V14.00,2013-04-03 02:31:00,
2013-04-02 21:32:00,69.9,64.2,29.84,West,277,0.0,0.0,82,0.00,,---,0.19,VWS V14.00,2013-04-03 02:32:00,
2013-04-02 21:33:00,69.9,64.2,29.83,West,281,4.0,5.0,82,0.00,,---,0.19,VWS V14.00,2013-04-03 02:33:00,
2013-04-02 21:34:00,69.8,64.1,29.84,WNW,294,0.0,6.0,82,0.00,,---,0.19,VWS V14.00,2013-04-03 02:34:00,
2013-04-02 21:35:00,69.8,64.1,29.83,WNW,294,0.0,6.0,82,0.00,,---,0.19,VWS V14.00,2013-04-03 02:35:00,
2013-04-02 21:36:00,69.7,64.0,29.84,WNW,294,0.0,6.0,82,0.00,,---,0.19,VWS V14.00,2013-04-03 02:36:00,
2013-04-02 21:38:00,69.7,64.0,29.84,WSW,237,0.0,6.0,82,0.00,,---,0.19,VWS V14.00,2013-04-03 02:38:00,
2013-04-02 21:39:00,69.6,63.9,29.83,West,262,4.0,6.0,82,0.00,,---,0.19,VWS V14.00,2013-04-03 02:39:00,
2013-04-02 21:40:00,69.6,63.9,29.84,West,267,3.0,6.0,82,0.00,,---,0.19,VWS V14.00,2013-04-03 02:40:00,
2013-04-02 21:41:00,69.5,63.8,29.83,West,268,0.0,6.0,82,0.00,,---,0.19,VWS V14.00,2013-04-03 02:41:00,
2013-04-02 21:42:00,69.5,63.4,29.84,West,268,0.0,6.0,81,0.00,,---,0.19,VWS V14.00,2013-04-03 02:42:00,
2013-04-02 21:43:00,69.5,63.4,29.84,West,269,2.0,6.0,81,0.00,,---,0.19,VWS V14.00,2013-04-03 02:43:00,
2013-04-02 21:44:00,69.4,63.3,29.84,West,269,0.0,6.0,81,0.00,,---,0.19,VWS V14.00,2013-04-03 02:44:00,
2013-04-02 21:45:00,69.4,63.7,29.84,WNW,289,1.0,6.0,82,0.00,,---,0.19,VWS V14.00,2013-04-03 02:45:00,
2013-04-02 21:46:00,69.4,63.7,29.84,WNW,289,0.0,6.0,82,0.00,,---,0.19,VWS V14.00,2013-04-03 02:46:00,
2013-04-02 21:49:00,69.3,63.9,29.84,WNW,289,0.0,6.0,83,0.00,,---,0.19,VWS V14.00,2013-04-03 02:49:00,
2013-04-02 21:50:00,69.3,63.9,29.84,WNW,289,0.0,6.0,83,0.00,,---,0.19,VWS V14.00,2013-04-03 02:50:00,
2013-04-02 21:51:00,69.3,63.6,29.84,WNW,289,0.0,6.0,82,0.00,,---,0.19,VWS V14.00,2013-04-03 02:51:00,
2013-04-02 21:52:00,69.2,63.8,29.84,WNW,300,0.0,6.0,83,0.00,,---,0.19,VWS V14.00,2013-04-03 02:52:00,
2013-04-02 21:53:00,69.2,63.8,29.84,WNW,300,0.0,6.0,83,0.00,,---,0.19,VWS V14.00,2013-04-03 02:53:00,
2013-04-02 21:54:00,69.1,63.7,29.84,WNW,300,0.0,6.0,83,0.00,,---,0.19,VWS V14.00,2013-04-03 02:54:00,
2013-04-02 21:55:00,69.1,63.7,29.84,WNW,288,0.0,6.0,83,0.00,,---,0.19,VWS V14.00,2013-04-03 02:55:00,
2013-04-02 21:57:00,69.0,63.3,29.84,WNW,287,0.0,6.0,82,0.00,,---,0.19,VWS V14.00,2013-04-03 02:57:00,
2013-04-02 21:58:00,68.9,63.2,29.84,WNW,288,0.0,6.0,82,0.00,,---,0.19,VWS V14.00,2013-04-03 02:58:00,
2013-04-02 21:59:00,68.9,63.2,29.84,WNW,289,0.0,6.0,82,0.00,,---,0.19,VWS V14.00,2013-04-03 02:59:00,
2013-04-02 22:00:00,68.8,63.1,29.84,WNW,289,0.0,6.0,82,0.00,,---,0.19,VWS V14.00,2013-04-03 03:00:00,
2013-04-02 22:01:00,68.8,63.4,29.83,WNW,282,0.0,2.0,83,0.00,,---,0.19,VWS V14.00,2013-04-03 03:01:00,
2013-04-02 22:03:00,68.7,63.3,29.83,West,281,0.0,2.0,83,0.00,,---,0.19,VWS V14.00,2013-04-03 03:03:00,
2013-04-02 22:04:00,68.7,63.7,29.83,West,281,0.0,2.0,84,0.00,,---,0.19,VWS V14.00,2013-04-03 03:04:00,
2013-04-02 22:05:00,68.6,63.6,29.83,West,280,0.0,2.0,84,0.00,,---,0.19,VWS V14.00,2013-04-03 03:05:00,
2013-04-02 22:06:00,68.6,63.6,29.83,West,280,0.0,2.0,84,0.00,,---,0.19,VWS V14.00,2013-04-03 03:06:00,
2013-04-02 22:07:00,68.5,63.5,29.83,West,280,0.0,2.0,84,0.00,,---,0.19,VWS V14.00,2013-04-03 03:07:00,
2013-04-02 22:08:00,68.5,63.5,29.83,West,280,0.0,2.0,84,0.00,,---,0.19,VWS V14.00,2013-04-03 03:08:00,
2013-04-02 22:09:00,68.5,63.8,29.83,West,280,0.0,2.0,85,0.00,,---,0.19,VWS V14.00,2013-04-03 03:09:00,
2013-04-02 22:10:00,68.4,63.4,29.83,West,281,0.0,2.0,84,0.00,,---,0.19,VWS V14.00,2013-04-03 03:10:00,
2013-04-02 22:11:00,68.4,63.7,29.83,West,280,0.0,2.0,85,0.00,,---,0.19,VWS V14.00,2013-04-03 03:11:00,
2013-04-02 22:12:00,68.3,63.3,29.83,West,280,0.0,2.0,84,0.00,,---,0.19,VWS V14.00,2013-04-03 03:12:00,
2013-04-02 22:13:00,68.3,63.3,29.83,West,281,0.0,2.0,84,0.00,,---,0.19,VWS V14.00,2013-04-03 03:13:00,
2013-04-02 22:14:00,68.3,63.3,29.83,West,281,0.0,2.0,84,0.00,,---,0.19,VWS V14.00,2013-04-03 03:14:00,
2013-04-02 22:15:00,68.2,63.2,29.83,West,280,0.0,2.0,84,0.00,,---,0.19,VWS V14.00,2013-04-03 03:15:00,
2013-04-02 22:16:00,68.2,63.5,29.83,West,280,0.0,2.0,85,0.00,,---,0.19,VWS V14.00,2013-04-03 03:16:00,
2013-04-02 22:17:00,68.1,63.4,29.83,West,281,0.0,2.0,85,0.00,,---,0.19,VWS V14.00,2013-04-03 03:17:00,
2013-04-02 22:18:00,68.1,63.4,29.83,West,281,0.0,2.0,85,0.00,,---,0.19,VWS V14.00,2013-04-03 03:18:00,
2013-04-02 22:21:00,68.1,63.4,29.83,West,280,2.0,2.0,85,0.00,,---,0.19,VWS V14.00,2013-04-03 03:21:00,
2013-04-02 22:22:00,68.0,63.3,29.83,West,280,0.0,2.0,85,0.00,,---,0.19,VWS V14.00,2013-04-03 03:22:00,
2013-04-02 22:24:00,67.9,63.2,29.83,West,280,0.0,2.0,85,0.00,,---,0.19,VWS V14.00,2013-04-03 03:24:00,
2013-04-02 22:25:00,67.9,63.2,29.83,West,280,0.0,2.0,85,0.00,,---,0.19,VWS V14.00,2013-04-03 03:25:00,
2013-04-02 22:26:00,67.9,63.6,29.83,West,280,0.0,2.0,86,0.00,,---,0.19,VWS V14.00,2013-04-03 03:26:00,
2013-04-02 22:28:00,67.8,63.5,29.83,West,280,0.0,2.0,86,0.00,,---,0.19,VWS V14.00,2013-04-03 03:28:00,
2013-04-02 22:29:00,67.8,63.5,29.83,West,280,0.0,2.0,86,0.00,,---,0.19,VWS V14.00,2013-04-03 03:29:00,
2013-04-02 22:30:00,67.7,63.4,29.83,West,281,0.0,0.0,86,0.00,,---,0.19,VWS V14.00,2013-04-03 03:30:00,
2013-04-02 22:31:00,67.7,63.4,29.83,West,280,0.0,0.0,86,0.00,,---,0.19,VWS V14.00,2013-04-03 03:31:00,
2013-04-02 22:32:00,67.7,63.4,29.83,West,280,0.0,0.0,86,0.00,,---,0.19,VWS V14.00,2013-04-03 03:32:00,
2013-04-02 22:33:00,67.6,63.3,29.83,West,281,0.0,1.0,86,0.00,,---,0.19,VWS V14.00,2013-04-03 03:33:00,
2013-04-02 22:34:00,67.6,63.3,29.83,West,280,0.0,1.0,86,0.00,,---,0.19,VWS V14.00,2013-04-03 03:34:00,
2013-04-02 22:35:00,67.6,63.3,29.83,West,278,0.0,2.0,86,0.00,,---,0.19,VWS V14.00,2013-04-03 03:35:00,
2013-04-02 22:36:00,67.5,63.2,29.83,West,281,4.0,6.0,86,0.00,,---,0.19,VWS V14.00,2013-04-03 03:36:00,
2013-04-02 22:37:00,67.5,63.2,29.83,West,280,0.0,6.0,86,0.00,,---,0.19,VWS V14.00,2013-04-03 03:37:00,
2013-04-02 22:38:00,67.5,63.2,29.83,West,259,4.0,8.0,86,0.00,,---,0.19,VWS V14.00,2013-04-03 03:38:00,
2013-04-02 22:41:00,67.4,63.4,29.83,West,261,0.0,8.0,87,0.00,,---,0.19,VWS V14.00,2013-04-03 03:41:00,
2013-04-02 22:43:00,67.2,63.2,29.83,West,261,0.0,8.0,87,0.00,,---,0.19,VWS V14.00,2013-04-03 03:43:00,
2013-04-02 22:44:00,67.2,63.2,29.83,West,261,0.0,8.0,87,0.00,,---,0.19,VWS V14.00,2013-04-03 03:44:00,
2013-04-02 22:45:00,67.1,63.1,29.83,West,261,0.0,8.0,87,0.00,,---,0.19,VWS V14.00,2013-04-03 03:45:00,
2013-04-02 22:46:00,67.1,63.1,29.83,West,261,0.0,8.0,87,0.00,,---,0.19,VWS V14.00,2013-04-03 03:46:00,
2013-04-02 22:47:00,67.1,63.1,29.83,West,261,0.0,8.0,87,0.00,,---,0.19,VWS V14.00,2013-04-03 03:47:00,
2013-04-02 22:48:00,67.0,63.0,29.83,West,261,0.0,8.0,87,0.00,,---,0.19,VWS V14.00,2013-04-03 03:48:00,
2013-04-02 22:49:00,67.0,63.0,29.83,West,261,0.0,8.0,87,0.00,,---,0.19,VWS V14.00,2013-04-03 03:49:00,
2013-04-02 22:50:00,67.0,63.0,29.83,West,261,0.0,8.0,87,0.00,,---,0.19,VWS V14.00,2013-04-03 03:50:00,
2013-04-02 22:51:00,66.9,63.2,29.83,West,265,0.0,8.0,88,0.00,,---,0.19,VWS V14.00,2013-04-03 03:51:00,
2013-04-02 22:52:00,66.8,63.1,29.83,West,265,0.0,8.0,88,0.00,,---,0.19,VWS V14.00,2013-04-03 03:52:00,
2013-04-02 22:53:00,66.8,63.1,29.83,West,265,0.0,8.0,88,0.00,,---,0.19,VWS V14.00,2013-04-03 03:53:00,
2013-04-02 22:54:00,66.8,63.1,29.83,West,265,0.0,8.0,88,0.00,,---,0.19,VWS V14.00,2013-04-03 03:54:00,
2013-04-02 22:55:00,66.7,63.0,29.83,NNW,336,1.0,8.0,88,0.00,,---,0.19,VWS V14.00,2013-04-03 03:55:00,
2013-04-02 22:56:00,66.7,63.0,29.83,NW,311,0.0,8.0,88,0.00,,---,0.19,VWS V14.00,2013-04-03 03:56:00,
2013-04-02 22:57:00,66.6,62.9,29.83,West,275,4.0,8.0,88,0.00,,---,0.19,VWS V14.00,2013-04-03 03:57:00,
2013-04-02 22:58:00,66.6,62.9,29.83,West,275,0.0,8.0,88,0.00,,---,0.19,VWS V14.00,2013-04-03 03:58:00,
2013-04-02 22:59:00,66.5,62.8,29.83,West,277,0.0,8.0,88,0.00,,---,0.19,VWS V14.00,2013-04-03 03:59:00,
2013-04-02 23:00:00,66.5,62.8,29.83,West,276,0.0,8.0,88,0.00,,---,0.19,VWS V14.00,2013-04-03 04:00:00,
2013-04-02 23:01:00,66.4,62.7,29.83,West,277,0.0,1.0,88,0.00,,---,0.19,VWS V14.00,2013-04-03 04:01:00,
2013-04-02 23:03:00,66.3,63.0,29.84,West,277,0.0,1.0,89,0.00,,---,0.19,VWS V14.00,2013-04-03 04:03:00,
2013-04-02 23:06:00,66.2,62.9,29.83,West,276,0.0,1.0,89,0.00,,---,0.19,VWS V14.00,2013-04-03 04:06:00,
2013-04-02 23:07:00,66.1,62.8,29.83,West,276,0.0,1.0,89,0.00,,---,0.19,VWS V14.00,2013-04-03 04:07:00,
2013-04-02 23:08:00,66.1,62.8,29.83,West,277,1.0,2.0,89,0.00,,---,0.19,VWS V14.00,2013-04-03 04:08:00,
2013-04-02 23:09:00,66.0,62.7,29.83,West,271,4.0,4.0,89,0.00,,---,0.19,VWS V14.00,2013-04-03 04:09:00,
2013-04-02 23:10:00,66.0,62.7,29.83,NW,311,4.0,6.0,89,0.00,,---,0.19,VWS V14.00,2013-04-03 04:10:00,
2013-04-02 23:11:00,65.9,62.6,29.83,NW,304,0.0,6.0,89,0.00,,---,0.19,VWS V14.00,2013-04-03 04:11:00,
2013-04-02 23:13:00,65.8,62.5,29.84,WNW,303,0.0,6.0,89,0.00,,---,0.19,VWS V14.00,2013-04-03 04:13:00,
2013-04-02 23:14:00,65.8,62.5,29.84,WNW,303,0.0,6.0,89,0.00,,---,0.19,VWS V14.00,2013-04-03 04:14:00,
2013-04-02 23:15:00,65.7,62.7,29.84,WNW,303,0.0,6.0,90,0.00,,---,0.19,VWS V14.00,2013-04-03 04:15:00,
2013-04-02 23:16:00,65.7,62.7,29.83,WNW,303,0.0,6.0,90,0.00,,---,0.19,VWS V14.00,2013-04-03 04:16:00,
2013-04-02 23:17:00,65.7,62.7,29.83,WNW,303,0.0,6.0,90,0.00,,---,0.19,VWS V14.00,2013-04-03 04:17:00,
2013-04-02 23:18:00,65.6,62.6,29.83,WNW,303,0.0,6.0,90,0.00,,---,0.19,VWS V14.00,2013-04-03 04:18:00,
2013-04-02 23:19:00,65.6,62.6,29.83,WNW,303,0.0,6.0,90,0.00,,---,0.20,VWS V14.00,2013-04-03 04:19:00,
2013-04-02 23:20:00,65.5,62.5,29.84,WNW,302,0.0,6.0,90,0.00,,---,0.20,VWS V14.00,2013-04-03 04:20:00,
2013-04-02 23:21:00,65.5,62.5,29.84,WNW,296,0.0,6.0,90,0.00,,---,0.20,VWS V14.00,2013-04-03 04:21:00,
2013-04-02 23:22:00,65.4,62.4,29.84,WNW,296,0.0,6.0,90,0.00,,---,0.20,VWS V14.00,2013-04-03 04:22:00,
2013-04-02 23:23:00,65.4,62.4,29.84,West,275,5.0,6.0,90,0.00,,---,0.20,VWS V14.00,2013-04-03 04:23:00,
2013-04-02 23:24:00,65.4,62.4,29.84,West,277,0.0,6.0,90,0.00,,---,0.20,VWS V14.00,2013-04-03 04:24:00,
2013-04-02 23:25:00,65.4,62.4,29.84,West,263,1.0,6.0,90,0.00,,---,0.20,VWS V14.00,2013-04-03 04:25:00,
2013-04-02 23:26:00,65.3,62.3,29.84,West,266,0.0,6.0,90,0.00,,---,0.20,VWS V14.00,2013-04-03 04:26:00,
2013-04-02 23:27:00,65.3,62.6,29.84,West,269,1.0,6.0,91,0.00,,---,0.20,VWS V14.00,2013-04-03 04:27:00,
2013-04-02 23:28:00,65.2,62.5,29.84,West,269,0.0,6.0,91,0.00,,---,0.20,VWS V14.00,2013-04-03 04:28:00,
2013-04-02 23:29:00,65.2,62.5,29.84,West,270,0.0,6.0,91,0.00,,---,0.20,VWS V14.00,2013-04-03 04:29:00,
2013-04-02 23:30:00,65.2,62.5,29.83,West,269,0.0,6.0,91,0.00,,---,0.20,VWS V14.00,2013-04-03 04:30:00,
2013-04-02 23:31:00,65.1,62.4,29.83,West,271,1.0,2.0,91,0.00,,---,0.20,VWS V14.00,2013-04-03 04:31:00,
2013-04-02 23:32:00,65.1,62.4,29.83,West,271,0.0,2.0,91,0.00,,---,0.20,VWS V14.00,2013-04-03 04:32:00,
2013-04-02 23:33:00,65.1,62.4,29.83,West,270,0.0,2.0,91,0.00,,---,0.20,VWS V14.00,2013-04-03 04:33:00,
2013-04-02 23:36:00,65.0,62.3,29.83,West,270,0.0,2.0,91,0.00,,---,0.20,VWS V14.00,2013-04-03 04:36:00,
2013-04-02 23:37:00,65.0,62.3,29.83,West,270,0.0,2.0,91,0.00,,---,0.20,VWS V14.00,2013-04-03 04:37:00,
2013-04-02 23:38:00,64.9,62.2,29.83,West,271,0.0,2.0,91,0.00,,---,0.20,VWS V14.00,2013-04-03 04:38:00,
2013-04-02 23:39:00,64.9,62.2,29.83,West,271,0.0,2.0,91,0.00,,---,0.20,VWS V14.00,2013-04-03 04:39:00,
2013-04-02 23:41:00,64.9,62.2,29.83,WNW,284,4.0,4.0,91,0.00,,---,0.20,VWS V14.00,2013-04-03 04:41:00,
2013-04-02 23:43:00,64.8,62.1,29.83,WNW,284,0.0,4.0,91,0.00,,---,0.20,VWS V14.00,2013-04-03 04:43:00,
2013-04-02 23:44:00,64.8,62.1,29.84,WNW,284,0.0,4.0,91,0.00,,---,0.20,VWS V14.00,2013-04-03 04:44:00,
2013-04-02 23:45:00,64.7,62.0,29.83,WNW,284,0.0,4.0,91,0.00,,---,0.20,VWS V14.00,2013-04-03 04:45:00,
2013-04-02 23:46:00,64.7,62.0,29.84,WNW,284,0.0,4.0,91,0.00,,---,0.20,VWS V14.00,2013-04-03 04:46:00,
2013-04-02 23:47:00,64.7,62.0,29.83,WNW,284,0.0,4.0,91,0.00,,---,0.20,VWS V14.00,2013-04-03 04:47:00,
2013-04-02 23:48:00,64.6,61.9,29.83,WNW,284,0.0,4.0,91,0.00,,---,0.20,VWS V14.00,2013-04-03 04:48:00,
2013-04-02 23:49:00,64.6,61.9,29.83,WNW,284,0.0,4.0,91,0.00,,---,0.20,VWS V14.00,2013-04-03 04:49:00,
2013-04-02 23:50:00,64.6,61.9,29.83,West,279,0.0,4.0,91,0.00,,---,0.20,VWS V14.00,2013-04-03 04:50:00,
2013-04-02 23:51:00,64.5,62.1,29.83,West,279,0.0,4.0,92,0.00,,---,0.20,VWS V14.00,2013-04-03 04:51:00,
2013-04-02 23:52:00,64.5,62.1,29.83,West,279,0.0,4.0,92,0.00,,---,0.20,VWS V14.00,2013-04-03 04:52:00,
2013-04-02 23:54:00,64.5,62.1,29.83,West,279,0.0,4.0,92,0.00,,---,0.20,VWS V14.00,2013-04-03 04:54:00,
2013-04-02 23:55:00,64.4,62.0,29.83,West,279,0.0,4.0,92,0.00,,---,0.20,VWS V14.00,2013-04-03 04:55:00,
2013-04-02 23:56:00,64.4,62.0,29.83,West,279,0.0,4.0,92,0.00,,---,0.20,VWS V14.00,2013-04-03 04:56:00,
2013-04-02 23:57:00,64.4,62.0,29.83,West,279,0.0,4.0,92,0.00,,---,0.20,VWS V14.00,2013-04-03 04:57:00,
2013-04-02 23:58:00,64.3,61.9,29.83,West,279,1.0,4.0,92,0.00,,---,0.20,VWS V14.00,2013-04-03 04:58:00,
2013-04-02 23:59:00,64.3,61.9,29.83,West,281,0.0,5.0,92,0.00,,---,0.20,VWS V14.00,2013-04-03 04:59:00,